<?xml version="1.0" encoding="UTF-8" standalone="no" ?><gpx xmlns="http://www.topografix.com/GPX/1/1" xmlns:gpxx="http://www.garmin.com/xmlschemas/GpxExtensions/v3" xmlns:gpxtrkx="http://www.garmin.com/xmlschemas/TrackStatsExtension/v1" xmlns:wptx1="http://www.garmin.com/xmlschemas/WaypointExtension/v1" xmlns:gpxtpx="http://www.garmin.com/xmlschemas/TrackPointExtension/v1" creator="GPSMAP 65s" version="1.1" xmlns:xsi="http://www.w3.org/2001/XMLSchema-instance" xsi:schemaLocation="http://www.topografix.com/GPX/1/1 http://www.topografix.com/GPX/1/1/gpx.xsd http://www.garmin.com/xmlschemas/GpxExtensions/v3 http://www8.garmin.com/xmlschemas/GpxExtensionsv3.xsd http://www.garmin.com/xmlschemas/TrackStatsExtension/v1 http://www8.garmin.com/xmlschemas/TrackStatsExtension.xsd http://www.garmin.com/xmlschemas/WaypointExtension/v1 http://www8.garmin.com/xmlschemas/WaypointExtensionv1.xsd http://www.garmin.com/xmlschemas/TrackPointExtension/v1 http://www.garmin.com/xmlschemas/TrackPointExtensionv1.xsd"><metadata><link href="http://www.garmin.com"><text>Garmin International</text></link><time>2026-08-16T18:25:25Z</time></metadata>
<trk><name>2026-08-16 Стуккей Божок</name>
<trkseg><trkpt lat="59.3132764846" lon="34.7126594000"><ele>159.51</ele><time>2026-08-16T07:50:17Z</time></trkpt><trkpt lat="59.3132761493" lon="34.7126577236"><ele>159.51</ele><time>2026-08-16T07:50:18Z</time></trkpt><trkpt lat="59.3132765684" lon="34.7126537841"><ele>156.95</ele><time>2026-08-16T07:50:20Z</time></trkpt><trkpt lat="59.3132830225" lon="34.7126333322"><ele>158.41</ele><time>2026-08-16T07:50:44Z</time></trkpt><trkpt lat="59.3132749759" lon="34.7126317397"><ele>156.91</ele><time>2026-08-16T07:51:04Z</time></trkpt><trkpt lat="59.3132829387" lon="34.7126395348"><ele>156.49</ele><time>2026-08-16T07:51:27Z</time></trkpt><trkpt lat="59.3133293744" lon="34.7127825301"><ele>156.38</ele><time>2026-08-16T07:52:00Z</time></trkpt><trkpt lat="59.3132865429" lon="34.7126159817"><ele>156.53</ele><time>2026-08-16T07:52:30Z</time></trkpt><trkpt lat="59.3133073300" lon="34.7126831207"><ele>156.53</ele><time>2026-08-16T07:53:07Z</time></trkpt><trkpt lat="59.3133122753" lon="34.7126679495"><ele>156.85</ele><time>2026-08-16T07:53:33Z</time></trkpt><trkpt lat="59.3133347388" lon="34.7127412912"><ele>157.56</ele><time>2026-08-16T07:54:01Z</time></trkpt><trkpt lat="59.3132989481" lon="34.7126551252"><ele>158.12</ele><time>2026-08-16T07:54:22Z</time></trkpt><trkpt lat="59.3133089226" lon="34.7126475815"><ele>158.72</ele><time>2026-08-16T07:54:49Z</time></trkpt><trkpt lat="59.3133207411" lon="34.7126162332"><ele>158.71</ele><time>2026-08-16T07:55:10Z</time></trkpt><trkpt lat="59.3133094255" lon="34.7126531973"><ele>159.23</ele><time>2026-08-16T07:55:47Z</time></trkpt><trkpt lat="59.3133037258" lon="34.7125901654"><ele>157.73</ele><time>2026-08-16T07:56:16Z</time></trkpt><trkpt lat="59.3132869620" lon="34.7126397863"><ele>158.38</ele><time>2026-08-16T07:57:01Z</time></trkpt><trkpt lat="59.3132897280" lon="34.7126379423"><ele>158.45</ele><time>2026-08-16T07:57:46Z</time></trkpt><trkpt lat="59.3132799212" lon="34.7126322426"><ele>158.89</ele><time>2026-08-16T07:58:21Z</time></trkpt><trkpt lat="59.3132660910" lon="34.7126655187"><ele>158.92</ele><time>2026-08-16T07:58:57Z</time></trkpt><trkpt lat="59.3132763170" lon="34.7126423847"><ele>159.06</ele><time>2026-08-16T07:59:36Z</time></trkpt><trkpt lat="59.3132755626" lon="34.7126418818"><ele>159.21</ele><time>2026-08-16T08:00:01Z</time></trkpt><trkpt lat="59.3133064918" lon="34.7127340827"><ele>158.99</ele><time>2026-08-16T08:00:18Z</time></trkpt><trkpt lat="59.3133108504" lon="34.7127355915"><ele>158.88</ele><time>2026-08-16T08:00:33Z</time></trkpt><trkpt lat="59.3133243453" lon="34.7127320711"><ele>159.29</ele><time>2026-08-16T08:00:59Z</time></trkpt><trkpt lat="59.3133372534" lon="34.7127533611"><ele>159.49</ele><time>2026-08-16T08:01:19Z</time></trkpt><trkpt lat="59.3133370858" lon="34.7127191629"><ele>159.57</ele><time>2026-08-16T08:01:43Z</time></trkpt><trkpt lat="59.3133188970" lon="34.7127072606"><ele>161.42</ele><time>2026-08-16T08:02:17Z</time></trkpt><trkpt lat="59.3133051507" lon="34.7127875593"><ele>160.73</ele><time>2026-08-16T08:02:28Z</time></trkpt><trkpt lat="59.3132762332" lon="34.7126831207"><ele>161.03</ele><time>2026-08-16T08:02:48Z</time></trkpt><trkpt lat="59.3132934999" lon="34.7126049176"><ele>161.47</ele><time>2026-08-16T08:03:16Z</time></trkpt><trkpt lat="59.3132866267" lon="34.7126462404"><ele>161.82</ele><time>2026-08-16T08:03:22Z</time></trkpt><trkpt lat="59.3132614810" lon="34.7127079312"><ele>161.48</ele><time>2026-08-16T08:03:46Z</time></trkpt><trkpt lat="59.3132769875" lon="34.7126926761"><ele>161.62</ele><time>2026-08-16T08:04:05Z</time></trkpt><trkpt lat="59.3132682703" lon="34.7127009742"><ele>161.27</ele><time>2026-08-16T08:04:22Z</time></trkpt><trkpt lat="59.3132584635" lon="34.7126641776"><ele>161.39</ele><time>2026-08-16T08:05:00Z</time></trkpt><trkpt lat="59.3132789992" lon="34.7126721404"><ele>159.30</ele><time>2026-08-16T08:05:10Z</time></trkpt><trkpt lat="59.3132780772" lon="34.7126696259"><ele>161.94</ele><time>2026-08-16T08:05:13Z</time></trkpt><trkpt lat="59.3132603914" lon="34.7126609925"><ele>161.51</ele><time>2026-08-16T08:05:31Z</time></trkpt><trkpt lat="59.3132278696" lon="34.7126289736"><ele>161.59</ele><time>2026-08-16T08:05:52Z</time></trkpt><trkpt lat="59.3132517580" lon="34.7126755770"><ele>161.47</ele><time>2026-08-16T08:06:08Z</time></trkpt><trkpt lat="59.3132210802" lon="34.7126911674"><ele>161.36</ele><time>2026-08-16T08:06:28Z</time></trkpt><trkpt lat="59.3132950924" lon="34.7127087694"><ele>162.34</ele><time>2026-08-16T08:06:46Z</time></trkpt><trkpt lat="59.3133044802" lon="34.7126783431"><ele>161.36</ele><time>2026-08-16T08:07:05Z</time></trkpt><trkpt lat="59.3132532667" lon="34.7126816958"><ele>161.39</ele><time>2026-08-16T08:07:25Z</time></trkpt><trkpt lat="59.3132515904" lon="34.7126205917"><ele>161.46</ele><time>2026-08-16T08:07:46Z</time></trkpt><trkpt lat="59.3132567871" lon="34.7126126289"><ele>161.55</ele><time>2026-08-16T08:08:04Z</time></trkpt><trkpt lat="59.3132908177" lon="34.7125903331"><ele>161.78</ele><time>2026-08-16T08:08:25Z</time></trkpt><trkpt lat="59.3132906500" lon="34.7125513572"><ele>162.13</ele><time>2026-08-16T08:08:45Z</time></trkpt><trkpt lat="59.3132782448" lon="34.7125830408"><ele>162.03</ele><time>2026-08-16T08:09:13Z</time></trkpt><trkpt lat="59.3131666817" lon="34.7124492656"><ele>161.98</ele><time>2026-08-16T08:09:43Z</time></trkpt><trkpt lat="59.3131594732" lon="34.7123709787"><ele>162.24</ele><time>2026-08-16T08:10:12Z</time></trkpt><trkpt lat="59.3132045679" lon="34.7124336753"><ele>162.54</ele><time>2026-08-16T08:10:31Z</time></trkpt><trkpt lat="59.3132313900" lon="34.7124694660"><ele>162.16</ele><time>2026-08-16T08:10:48Z</time></trkpt><trkpt lat="59.3132465612" lon="34.7125077713"><ele>161.32</ele><time>2026-08-16T08:11:01Z</time></trkpt><trkpt lat="59.3132614810" lon="34.7124461643"><ele>161.94</ele><time>2026-08-16T08:11:18Z</time></trkpt><trkpt lat="59.3132836930" lon="34.7123734932"><ele>161.91</ele><time>2026-08-16T08:11:39Z</time></trkpt><trkpt lat="59.3132712878" lon="34.7123107128"><ele>162.73</ele><time>2026-08-16T08:11:50Z</time></trkpt><trkpt lat="59.3132404424" lon="34.7122658696"><ele>161.37</ele><time>2026-08-16T08:12:01Z</time></trkpt><trkpt lat="59.3132401910" lon="34.7122500278"><ele>161.43</ele><time>2026-08-16T08:12:02Z</time></trkpt><trkpt lat="59.3132355809" lon="34.7121452540"><ele>161.07</ele><time>2026-08-16T08:12:14Z</time></trkpt><trkpt lat="59.3132426217" lon="34.7119449265"><ele>161.20</ele><time>2026-08-16T08:12:27Z</time></trkpt><trkpt lat="59.3132095970" lon="34.7118708305"><ele>156.78</ele><time>2026-08-16T08:12:37Z</time></trkpt><trkpt lat="59.3132029753" lon="34.7118676454"><ele>156.79</ele><time>2026-08-16T08:12:38Z</time></trkpt><trkpt lat="59.3131443858" lon="34.7117372230"><ele>156.94</ele><time>2026-08-16T08:12:59Z</time></trkpt><trkpt lat="59.3131459784" lon="34.7117124964"><ele>161.27</ele><time>2026-08-16T08:13:00Z</time></trkpt><trkpt lat="59.3131458107" lon="34.7117036115"><ele>161.42</ele><time>2026-08-16T08:13:01Z</time></trkpt><trkpt lat="59.3131233472" lon="34.7114829998"><ele>161.63</ele><time>2026-08-16T08:13:13Z</time></trkpt><trkpt lat="59.3131160550" lon="34.7113882843"><ele>162.18</ele><time>2026-08-16T08:13:30Z</time></trkpt><trkpt lat="59.3130397797" lon="34.7111832630"><ele>162.12</ele><time>2026-08-16T08:13:40Z</time></trkpt><trkpt lat="59.3130144663" lon="34.7110143676"><ele>162.63</ele><time>2026-08-16T08:13:51Z</time></trkpt><trkpt lat="59.3129685335" lon="34.7108786646"><ele>162.54</ele><time>2026-08-16T08:13:59Z</time></trkpt><trkpt lat="59.3129882310" lon="34.7107014712"><ele>162.80</ele><time>2026-08-16T08:14:12Z</time></trkpt><trkpt lat="59.3129975349" lon="34.7106702905"><ele>162.60</ele><time>2026-08-16T08:14:15Z</time></trkpt><trkpt lat="59.3130608182" lon="34.7105727252"><ele>162.74</ele><time>2026-08-16T08:14:27Z</time></trkpt><trkpt lat="59.3130739778" lon="34.7105516866"><ele>162.60</ele><time>2026-08-16T08:14:44Z</time></trkpt><trkpt lat="59.3130780850" lon="34.7105296422"><ele>162.64</ele><time>2026-08-16T08:15:06Z</time></trkpt><trkpt lat="59.3131002970" lon="34.7105279658"><ele>162.41</ele><time>2026-08-16T08:15:22Z</time></trkpt><trkpt lat="59.3131383508" lon="34.7104999702"><ele>162.57</ele><time>2026-08-16T08:15:27Z</time></trkpt><trkpt lat="59.3131759856" lon="34.7104510199"><ele>162.85</ele><time>2026-08-16T08:15:32Z</time></trkpt><trkpt lat="59.3132453877" lon="34.7103048395"><ele>163.10</ele><time>2026-08-16T08:15:42Z</time></trkpt><trkpt lat="59.3133685179" lon="34.7101776861"><ele>163.11</ele><time>2026-08-16T08:15:57Z</time></trkpt><trkpt lat="59.3133967649" lon="34.7098765243"><ele>163.01</ele><time>2026-08-16T08:16:14Z</time></trkpt><trkpt lat="59.3134200666" lon="34.7097118199"><ele>162.68</ele><time>2026-08-16T08:16:24Z</time></trkpt><trkpt lat="59.3134709448" lon="34.7095502168"><ele>162.80</ele><time>2026-08-16T08:16:35Z</time></trkpt><trkpt lat="59.3135369942" lon="34.7094350494"><ele>162.73</ele><time>2026-08-16T08:16:48Z</time></trkpt><trkpt lat="59.3136319611" lon="34.7092900425"><ele>162.60</ele><time>2026-08-16T08:17:03Z</time></trkpt><trkpt lat="59.3137168698" lon="34.7090850212"><ele>161.87</ele><time>2026-08-16T08:17:16Z</time></trkpt><trkpt lat="59.3137571868" lon="34.7090737894"><ele>162.32</ele><time>2026-08-16T08:17:23Z</time></trkpt><trkpt lat="59.3138018623" lon="34.7089774814"><ele>162.45</ele><time>2026-08-16T08:17:35Z</time></trkpt><trkpt lat="59.3138587754" lon="34.7089096718"><ele>161.89</ele><time>2026-08-16T08:17:48Z</time></trkpt><trkpt lat="59.3138444424" lon="34.7088096756"><ele>161.82</ele><time>2026-08-16T08:18:13Z</time></trkpt><trkpt lat="59.3138210569" lon="34.7087752260"><ele>161.79</ele><time>2026-08-16T08:18:30Z</time></trkpt><trkpt lat="59.3138111662" lon="34.7087540198"><ele>161.54</ele><time>2026-08-16T08:18:34Z</time></trkpt><trkpt lat="59.3138027843" lon="34.7087352443"><ele>161.76</ele><time>2026-08-16T08:18:51Z</time></trkpt><trkpt lat="59.3137906305" lon="34.7087013815"><ele>161.69</ele><time>2026-08-16T08:19:13Z</time></trkpt><trkpt lat="59.3137658201" lon="34.7086451389"><ele>162.22</ele><time>2026-08-16T08:19:25Z</time></trkpt><trkpt lat="59.3138130940" lon="34.7087453865"><ele>162.24</ele><time>2026-08-16T08:19:36Z</time></trkpt><trkpt lat="59.3138164468" lon="34.7087643296"><ele>162.03</ele><time>2026-08-16T08:19:37Z</time></trkpt><trkpt lat="59.3138368987" lon="34.7088471428"><ele>162.10</ele><time>2026-08-16T08:19:42Z</time></trkpt><trkpt lat="59.3138855975" lon="34.7088762280"><ele>161.68</ele><time>2026-08-16T08:19:48Z</time></trkpt><trkpt lat="59.3139324524" lon="34.7089696862"><ele>161.50</ele><time>2026-08-16T08:19:56Z</time></trkpt><trkpt lat="59.3140105717" lon="34.7089609690"><ele>162.12</ele><time>2026-08-16T08:20:09Z</time></trkpt><trkpt lat="59.3140723463" lon="34.7086599749"><ele>162.46</ele><time>2026-08-16T08:20:24Z</time></trkpt><trkpt lat="59.3140956480" lon="34.7085126210"><ele>163.11</ele><time>2026-08-16T08:20:50Z</time></trkpt><trkpt lat="59.3141302653" lon="34.7084551211"><ele>163.11</ele><time>2026-08-16T08:21:05Z</time></trkpt><trkpt lat="59.3141561653" lon="34.7083856352"><ele>163.56</ele><time>2026-08-16T08:21:22Z</time></trkpt><trkpt lat="59.3142306805" lon="34.7083000559"><ele>163.87</ele><time>2026-08-16T08:21:36Z</time></trkpt><trkpt lat="59.3143224623" lon="34.7083108686"><ele>164.58</ele><time>2026-08-16T08:21:49Z</time></trkpt><trkpt lat="59.3144196086" lon="34.7081590723"><ele>164.52</ele><time>2026-08-16T08:22:02Z</time></trkpt><trkpt lat="59.3144880887" lon="34.7079579905"><ele>163.71</ele><time>2026-08-16T08:22:16Z</time></trkpt><trkpt lat="59.3144944590" lon="34.7078024223"><ele>164.87</ele><time>2026-08-16T08:22:33Z</time></trkpt><trkpt lat="59.3145518750" lon="34.7077593394"><ele>164.81</ele><time>2026-08-16T08:22:46Z</time></trkpt><trkpt lat="59.3144677207" lon="34.7075080499"><ele>164.49</ele><time>2026-08-16T08:22:59Z</time></trkpt><trkpt lat="59.3144556507" lon="34.7074763663"><ele>164.70</ele><time>2026-08-16T08:23:03Z</time></trkpt><trkpt lat="59.3144109752" lon="34.7073281743"><ele>164.35</ele><time>2026-08-16T08:23:17Z</time></trkpt><trkpt lat="59.3143393937" lon="34.7072575986"><ele>164.87</ele><time>2026-08-16T08:23:34Z</time></trkpt><trkpt lat="59.3142581731" lon="34.7072204668"><ele>164.92</ele><time>2026-08-16T08:23:46Z</time></trkpt><trkpt lat="59.3142028525" lon="34.7068225779"><ele>165.67</ele><time>2026-08-16T08:24:12Z</time></trkpt><trkpt lat="59.3140519783" lon="34.7066798341"><ele>165.65</ele><time>2026-08-16T08:24:27Z</time></trkpt><trkpt lat="59.3139965739" lon="34.7065733839"><ele>165.72</ele><time>2026-08-16T08:24:51Z</time></trkpt><trkpt lat="59.3140181992" lon="34.7065146267"><ele>165.62</ele><time>2026-08-16T08:25:38Z</time></trkpt><trkpt lat="59.3140131701" lon="34.7064271197"><ele>166.17</ele><time>2026-08-16T08:26:16Z</time></trkpt><trkpt lat="59.3140578456" lon="34.7062998824"><ele>161.36</ele><time>2026-08-16T08:26:32Z</time></trkpt><trkpt lat="59.3140601926" lon="34.7062832862"><ele>170.29</ele><time>2026-08-16T08:26:33Z</time></trkpt><trkpt lat="59.3140595220" lon="34.7062664386"><ele>168.30</ele><time>2026-08-16T08:26:34Z</time></trkpt><trkpt lat="59.3140555825" lon="34.7062348388"><ele>166.39</ele><time>2026-08-16T08:26:37Z</time></trkpt><trkpt lat="59.3140194565" lon="34.7060795221"><ele>166.22</ele><time>2026-08-16T08:26:51Z</time></trkpt><trkpt lat="59.3139997590" lon="34.7059110459"><ele>166.10</ele><time>2026-08-16T08:27:11Z</time></trkpt><trkpt lat="59.3139981665" lon="34.7058275621"><ele>166.74</ele><time>2026-08-16T08:27:28Z</time></trkpt><trkpt lat="59.3139692489" lon="34.7057818808"><ele>166.31</ele><time>2026-08-16T08:27:51Z</time></trkpt><trkpt lat="59.3139486294" lon="34.7058139835"><ele>166.62</ele><time>2026-08-16T08:28:23Z</time></trkpt><trkpt lat="59.3139326200" lon="34.7058265563"><ele>166.29</ele><time>2026-08-16T08:28:53Z</time></trkpt><trkpt lat="59.3139281776" lon="34.7057249676"><ele>166.98</ele><time>2026-08-16T08:29:09Z</time></trkpt><trkpt lat="59.3139474560" lon="34.7057237942"><ele>166.52</ele><time>2026-08-16T08:29:32Z</time></trkpt><trkpt lat="59.3140226416" lon="34.7055298369"><ele>166.10</ele><time>2026-08-16T08:29:47Z</time></trkpt><trkpt lat="59.3140358850" lon="34.7054068744"><ele>166.01</ele><time>2026-08-16T08:29:59Z</time></trkpt><trkpt lat="59.3140753638" lon="34.7052073851"><ele>166.72</ele><time>2026-08-16T08:30:14Z</time></trkpt><trkpt lat="59.3141127471" lon="34.7050478775"><ele>166.74</ele><time>2026-08-16T08:30:25Z</time></trkpt><trkpt lat="59.3141584285" lon="34.7049244959"><ele>166.33</ele><time>2026-08-16T08:30:40Z</time></trkpt><trkpt lat="59.3142588437" lon="34.7048037965"><ele>166.18</ele><time>2026-08-16T08:30:56Z</time></trkpt><trkpt lat="59.3143524695" lon="34.7047321312"><ele>165.91</ele><time>2026-08-16T08:31:13Z</time></trkpt><trkpt lat="59.3144078739" lon="34.7046279442"><ele>165.91</ele><time>2026-08-16T08:31:31Z</time></trkpt><trkpt lat="59.3144092988" lon="34.7046283633"><ele>166.30</ele><time>2026-08-16T08:31:56Z</time></trkpt><trkpt lat="59.3144432455" lon="34.7045452986"><ele>165.76</ele><time>2026-08-16T08:32:16Z</time></trkpt><trkpt lat="59.3144930340" lon="34.7044961806"><ele>166.37</ele><time>2026-08-16T08:32:29Z</time></trkpt><trkpt lat="59.3145377934" lon="34.7042215895"><ele>166.07</ele><time>2026-08-16T08:32:44Z</time></trkpt><trkpt lat="59.3145782780" lon="34.7039811965"><ele>165.95</ele><time>2026-08-16T08:32:59Z</time></trkpt><trkpt lat="59.3146313354" lon="34.7038162407"><ele>166.09</ele><time>2026-08-16T08:33:12Z</time></trkpt><trkpt lat="59.3146617617" lon="34.7036922723"><ele>166.85</ele><time>2026-08-16T08:33:27Z</time></trkpt><trkpt lat="59.3146937806" lon="34.7035666276"><ele>166.40</ele><time>2026-08-16T08:33:43Z</time></trkpt><trkpt lat="59.3147502746" lon="34.7034244705"><ele>167.25</ele><time>2026-08-16T08:34:00Z</time></trkpt><trkpt lat="59.3147996441" lon="34.7033611871"><ele>167.56</ele><time>2026-08-16T08:34:11Z</time></trkpt><trkpt lat="59.3148728181" lon="34.7032331955"><ele>167.37</ele><time>2026-08-16T08:34:26Z</time></trkpt><trkpt lat="59.3149382807" lon="34.7031263262"><ele>168.27</ele><time>2026-08-16T08:34:41Z</time></trkpt><trkpt lat="59.3149461597" lon="34.7028758749"><ele>168.86</ele><time>2026-08-16T08:34:58Z</time></trkpt><trkpt lat="59.3149332516" lon="34.7028330434"><ele>169.09</ele><time>2026-08-16T08:35:17Z</time></trkpt><trkpt lat="59.3149764184" lon="34.7028363962"><ele>168.54</ele><time>2026-08-16T08:35:55Z</time></trkpt><trkpt lat="59.3150685355" lon="34.7026279382"><ele>168.53</ele><time>2026-08-16T08:36:11Z</time></trkpt><trkpt lat="59.3151349202" lon="34.7024044767"><ele>168.30</ele><time>2026-08-16T08:36:25Z</time></trkpt><trkpt lat="59.3151695374" lon="34.7022917401"><ele>167.33</ele><time>2026-08-16T08:36:37Z</time></trkpt><trkpt lat="59.3152481597" lon="34.7020997945"><ele>167.36</ele><time>2026-08-16T08:36:54Z</time></trkpt><trkpt lat="59.3152645882" lon="34.7020802647"><ele>167.09</ele><time>2026-08-16T08:36:59Z</time></trkpt><trkpt lat="59.3153357506" lon="34.7019894887"><ele>167.51</ele><time>2026-08-16T08:37:12Z</time></trkpt><trkpt lat="59.3153736368" lon="34.7019086871"><ele>167.26</ele><time>2026-08-16T08:37:23Z</time></trkpt><trkpt lat="59.3154239282" lon="34.7016658634"><ele>167.29</ele><time>2026-08-16T08:37:38Z</time></trkpt><trkpt lat="59.3154766504" lon="34.7014183458"><ele>167.95</ele><time>2026-08-16T08:37:58Z</time></trkpt><trkpt lat="59.3155494053" lon="34.7012507915"><ele>167.88</ele><time>2026-08-16T08:38:13Z</time></trkpt><trkpt lat="59.3156255968" lon="34.7011693195"><ele>167.94</ele><time>2026-08-16T08:38:34Z</time></trkpt><trkpt lat="59.3156644888" lon="34.7011658829"><ele>167.90</ele><time>2026-08-16T08:39:14Z</time></trkpt><trkpt lat="59.3157344777" lon="34.7010788787"><ele>167.23</ele><time>2026-08-16T08:39:28Z</time></trkpt><trkpt lat="59.3158197217" lon="34.7010162659"><ele>167.98</ele><time>2026-08-16T08:39:43Z</time></trkpt><trkpt lat="59.3158832565" lon="34.7009470314"><ele>167.09</ele><time>2026-08-16T08:39:58Z</time></trkpt><trkpt lat="59.3158046342" lon="34.7008654755"><ele>165.10</ele><time>2026-08-16T08:40:07Z</time></trkpt><trkpt lat="59.3158285227" lon="34.7008717619"><ele>164.90</ele><time>2026-08-16T08:40:08Z</time></trkpt><trkpt lat="59.3158534169" lon="34.7008136753"><ele>167.02</ele><time>2026-08-16T08:40:10Z</time></trkpt><trkpt lat="59.3158487231" lon="34.7004844341"><ele>166.35</ele><time>2026-08-16T08:40:21Z</time></trkpt><trkpt lat="59.3158484716" lon="34.7003840189"><ele>166.01</ele><time>2026-08-16T08:40:35Z</time></trkpt><trkpt lat="59.3158919737" lon="34.7002821788"><ele>167.12</ele><time>2026-08-16T08:40:52Z</time></trkpt><trkpt lat="59.3159758765" lon="34.7001333162"><ele>168.26</ele><time>2026-08-16T08:41:09Z</time></trkpt><trkpt lat="59.3160097394" lon="34.7001135349"><ele>166.89</ele><time>2026-08-16T08:41:36Z</time></trkpt><trkpt lat="59.3160281796" lon="34.7000832763"><ele>169.24</ele><time>2026-08-16T08:41:38Z</time></trkpt><trkpt lat="59.3160764594" lon="34.6999390237"><ele>168.90</ele><time>2026-08-16T08:41:53Z</time></trkpt><trkpt lat="59.3160952348" lon="34.6998913307"><ele>169.41</ele><time>2026-08-16T08:41:59Z</time></trkpt><trkpt lat="59.3161125854" lon="34.6998516843"><ele>167.84</ele><time>2026-08-16T08:42:02Z</time></trkpt><trkpt lat="59.3161156867" lon="34.6998309810"><ele>168.34</ele><time>2026-08-16T08:42:20Z</time></trkpt><trkpt lat="59.3161545787" lon="34.6997884847"><ele>168.77</ele><time>2026-08-16T08:42:50Z</time></trkpt><trkpt lat="59.3161241524" lon="34.6996874828"><ele>169.25</ele><time>2026-08-16T08:43:08Z</time></trkpt><trkpt lat="59.3160752859" lon="34.6994628478"><ele>168.99</ele><time>2026-08-16T08:43:21Z</time></trkpt><trkpt lat="59.3160241563" lon="34.6993342694"><ele>168.65</ele><time>2026-08-16T08:43:37Z</time></trkpt><trkpt lat="59.3160145171" lon="34.6991957165"><ele>168.60</ele><time>2026-08-16T08:43:50Z</time></trkpt><trkpt lat="59.3160139304" lon="34.6990958881"><ele>168.74</ele><time>2026-08-16T08:44:02Z</time></trkpt><trkpt lat="59.3159978371" lon="34.6989559941"><ele>168.45</ele><time>2026-08-16T08:44:18Z</time></trkpt><trkpt lat="59.3159852643" lon="34.6988121606"><ele>168.55</ele><time>2026-08-16T08:44:35Z</time></trkpt><trkpt lat="59.3159535807" lon="34.6986714285"><ele>168.56</ele><time>2026-08-16T08:44:51Z</time></trkpt><trkpt lat="59.3158999365" lon="34.6986026131"><ele>168.71</ele><time>2026-08-16T08:45:07Z</time></trkpt><trkpt lat="59.3158045504" lon="34.6984284371"><ele>168.77</ele><time>2026-08-16T08:45:25Z</time></trkpt><trkpt lat="59.3157983478" lon="34.6982702706"><ele>169.19</ele><time>2026-08-16T08:45:43Z</time></trkpt><trkpt lat="59.3157409318" lon="34.6982256789"><ele>169.62</ele><time>2026-08-16T08:45:59Z</time></trkpt><trkpt lat="59.3156979326" lon="34.6981761418"><ele>169.19</ele><time>2026-08-16T08:46:25Z</time></trkpt><trkpt lat="59.3156350683" lon="34.6980890539"><ele>169.47</ele><time>2026-08-16T08:46:41Z</time></trkpt><trkpt lat="59.3156133592" lon="34.6980456356"><ele>169.68</ele><time>2026-08-16T08:47:36Z</time></trkpt><trkpt lat="59.3156266026" lon="34.6978785004"><ele>169.76</ele><time>2026-08-16T08:47:52Z</time></trkpt><trkpt lat="59.3156063184" lon="34.6976445615"><ele>170.06</ele><time>2026-08-16T08:48:06Z</time></trkpt><trkpt lat="59.3156034686" lon="34.6975665260"><ele>170.08</ele><time>2026-08-16T08:48:24Z</time></trkpt><trkpt lat="59.3155965954" lon="34.6973445732"><ele>170.18</ele><time>2026-08-16T08:48:36Z</time></trkpt><trkpt lat="59.3155608885" lon="34.6971252188"><ele>169.99</ele><time>2026-08-16T08:48:51Z</time></trkpt><trkpt lat="59.3155838549" lon="34.6968945488"><ele>170.10</ele><time>2026-08-16T08:49:05Z</time></trkpt><trkpt lat="59.3155744672" lon="34.6966489591"><ele>170.64</ele><time>2026-08-16T08:49:21Z</time></trkpt><trkpt lat="59.3155700248" lon="34.6964658983"><ele>170.29</ele><time>2026-08-16T08:49:37Z</time></trkpt><trkpt lat="59.3155403528" lon="34.6963284351"><ele>170.76</ele><time>2026-08-16T08:49:54Z</time></trkpt><trkpt lat="59.3155116867" lon="34.6961897984"><ele>170.54</ele><time>2026-08-16T08:50:11Z</time></trkpt><trkpt lat="59.3155153748" lon="34.6959600504"><ele>170.75</ele><time>2026-08-16T08:50:26Z</time></trkpt><trkpt lat="59.3155109324" lon="34.6958403569"><ele>170.62</ele><time>2026-08-16T08:50:45Z</time></trkpt><trkpt lat="59.3155041430" lon="34.6956625767"><ele>170.53</ele><time>2026-08-16T08:51:00Z</time></trkpt><trkpt lat="59.3155370839" lon="34.6955012251"><ele>169.79</ele><time>2026-08-16T08:51:16Z</time></trkpt><trkpt lat="59.3155187275" lon="34.6954477485"><ele>169.88</ele><time>2026-08-16T08:51:29Z</time></trkpt><trkpt lat="59.3155612238" lon="34.6953100339"><ele>169.67</ele><time>2026-08-16T08:51:44Z</time></trkpt><trkpt lat="59.3155806698" lon="34.6952120494"><ele>169.74</ele><time>2026-08-16T08:51:57Z</time></trkpt><trkpt lat="59.3155388441" lon="34.6951631829"><ele>170.00</ele><time>2026-08-16T08:52:10Z</time></trkpt><trkpt lat="59.3155411910" lon="34.6950512845"><ele>170.20</ele><time>2026-08-16T08:52:52Z</time></trkpt><trkpt lat="59.3155597989" lon="34.6947963908"><ele>171.15</ele><time>2026-08-16T08:53:22Z</time></trkpt><trkpt lat="59.3156452943" lon="34.6946748532"><ele>171.94</ele><time>2026-08-16T08:53:38Z</time></trkpt><trkpt lat="59.3156865332" lon="34.6945369709"><ele>171.02</ele><time>2026-08-16T08:53:50Z</time></trkpt><trkpt lat="59.3156919815" lon="34.6943532396"><ele>171.11</ele><time>2026-08-16T08:54:01Z</time></trkpt><trkpt lat="59.3157113437" lon="34.6941745374"><ele>172.72</ele><time>2026-08-16T08:54:16Z</time></trkpt><trkpt lat="59.3157783989" lon="34.6939509921"><ele>173.46</ele><time>2026-08-16T08:54:34Z</time></trkpt><trkpt lat="59.3158290256" lon="34.6937869582"><ele>173.84</ele><time>2026-08-16T08:54:54Z</time></trkpt><trkpt lat="59.3159229867" lon="34.6935631614"><ele>173.29</ele><time>2026-08-16T08:55:10Z</time></trkpt><trkpt lat="59.3160735257" lon="34.6933479980"><ele>173.34</ele><time>2026-08-16T08:55:28Z</time></trkpt><trkpt lat="59.3161379825" lon="34.6934253629"><ele>172.06</ele><time>2026-08-16T08:55:37Z</time></trkpt><trkpt lat="59.3161409162" lon="34.6934291348"><ele>173.60</ele><time>2026-08-16T08:55:39Z</time></trkpt><trkpt lat="59.3161955662" lon="34.6933376882"><ele>173.04</ele><time>2026-08-16T08:55:55Z</time></trkpt><trkpt lat="59.3162557483" lon="34.6933339164"><ele>173.50</ele><time>2026-08-16T08:56:35Z</time></trkpt><trkpt lat="59.3162513897" lon="34.6932658553"><ele>173.48</ele><time>2026-08-16T08:57:30Z</time></trkpt><trkpt lat="59.3162399903" lon="34.6932754945"><ele>173.51</ele><time>2026-08-16T08:58:04Z</time></trkpt><trkpt lat="59.3162245676" lon="34.6932831220"><ele>173.10</ele><time>2026-08-16T08:58:46Z</time></trkpt><trkpt lat="59.3162494618" lon="34.6932908334"><ele>173.73</ele><time>2026-08-16T08:59:06Z</time></trkpt><trkpt lat="59.3162194546" lon="34.6932848822"><ele>173.32</ele><time>2026-08-16T08:59:28Z</time></trkpt><trkpt lat="59.3162411638" lon="34.6931028273"><ele>173.17</ele><time>2026-08-16T08:59:46Z</time></trkpt><trkpt lat="59.3162748590" lon="34.6928395517"><ele>173.36</ele><time>2026-08-16T09:00:01Z</time></trkpt><trkpt lat="59.3162643816" lon="34.6927156672"><ele>173.30</ele><time>2026-08-16T09:00:10Z</time></trkpt><trkpt lat="59.3162865937" lon="34.6925047785"><ele>174.02</ele><time>2026-08-16T09:00:25Z</time></trkpt><trkpt lat="59.3163047824" lon="34.6923505515"><ele>174.04</ele><time>2026-08-16T09:00:36Z</time></trkpt><trkpt lat="59.3163378909" lon="34.6922444366"><ele>174.23</ele><time>2026-08-16T09:00:48Z</time></trkpt><trkpt lat="59.3163153436" lon="34.6919387486"><ele>173.99</ele><time>2026-08-16T09:01:06Z</time></trkpt><trkpt lat="59.3163075484" lon="34.6916854475"><ele>173.63</ele><time>2026-08-16T09:01:20Z</time></trkpt><trkpt lat="59.3163593486" lon="34.6914802585"><ele>173.61</ele><time>2026-08-16T09:01:34Z</time></trkpt><trkpt lat="59.3163570855" lon="34.6912513487"><ele>173.03</ele><time>2026-08-16T09:01:47Z</time></trkpt><trkpt lat="59.3163862545" lon="34.6910035796"><ele>173.23</ele><time>2026-08-16T09:02:01Z</time></trkpt><trkpt lat="59.3163968995" lon="34.6907830518"><ele>173.41</ele><time>2026-08-16T09:02:13Z</time></trkpt><trkpt lat="59.3163963966" lon="34.6907656174"><ele>173.76</ele><time>2026-08-16T09:02:23Z</time></trkpt><trkpt lat="59.3163657188" lon="34.6907189302"><ele>173.88</ele><time>2026-08-16T09:02:56Z</time></trkpt><trkpt lat="59.3164252304" lon="34.6907546371"><ele>174.39</ele><time>2026-08-16T09:03:35Z</time></trkpt><trkpt lat="59.3165622745" lon="34.6907082852"><ele>174.39</ele><time>2026-08-16T09:03:49Z</time></trkpt><trkpt lat="59.3166340236" lon="34.6905264817"><ele>175.03</ele><time>2026-08-16T09:04:01Z</time></trkpt><trkpt lat="59.3167242967" lon="34.6904321853"><ele>174.73</ele><time>2026-08-16T09:04:17Z</time></trkpt><trkpt lat="59.3168098759" lon="34.6903047804"><ele>174.20</ele><time>2026-08-16T09:04:30Z</time></trkpt><trkpt lat="59.3168773502" lon="34.6903884318"><ele>174.77</ele><time>2026-08-16T09:04:39Z</time></trkpt><trkpt lat="59.3169759214" lon="34.6905906871"><ele>174.48</ele><time>2026-08-16T09:04:51Z</time></trkpt><trkpt lat="59.3170260452" lon="34.6907249652"><ele>174.34</ele><time>2026-08-16T09:05:04Z</time></trkpt><trkpt lat="59.3170500174" lon="34.6907189302"><ele>174.35</ele><time>2026-08-16T09:05:23Z</time></trkpt><trkpt lat="59.3170916755" lon="34.6906121448"><ele>174.41</ele><time>2026-08-16T09:05:38Z</time></trkpt><trkpt lat="59.3170990516" lon="34.6904449258"><ele>174.31</ele><time>2026-08-16T09:06:05Z</time></trkpt><trkpt lat="59.3170653563" lon="34.6902134176"><ele>174.50</ele><time>2026-08-16T09:06:32Z</time></trkpt><trkpt lat="59.3170481734" lon="34.6901894454"><ele>174.87</ele><time>2026-08-16T09:07:02Z</time></trkpt><trkpt lat="59.3170458265" lon="34.6900512278"><ele>174.23</ele><time>2026-08-16T09:07:18Z</time></trkpt><trkpt lat="59.3170720618" lon="34.6897844318"><ele>174.29</ele><time>2026-08-16T09:07:36Z</time></trkpt><trkpt lat="59.3171086907" lon="34.6895788237"><ele>174.00</ele><time>2026-08-16T09:07:51Z</time></trkpt><trkpt lat="59.3171653524" lon="34.6893578768"><ele>174.31</ele><time>2026-08-16T09:08:11Z</time></trkpt><trkpt lat="59.3171662744" lon="34.6891764924"><ele>174.17</ele><time>2026-08-16T09:08:24Z</time></trkpt><trkpt lat="59.3171686213" lon="34.6890302282"><ele>173.61</ele><time>2026-08-16T09:08:40Z</time></trkpt><trkpt lat="59.3171610776" lon="34.6888222732"><ele>173.52</ele><time>2026-08-16T09:08:58Z</time></trkpt><trkpt lat="59.3171139713" lon="34.6887997258"><ele>174.25</ele><time>2026-08-16T09:09:15Z</time></trkpt><trkpt lat="59.3171358481" lon="34.6888014860"><ele>173.78</ele><time>2026-08-16T09:09:43Z</time></trkpt><trkpt lat="59.3171834573" lon="34.6887587383"><ele>174.16</ele><time>2026-08-16T09:10:06Z</time></trkpt><trkpt lat="59.3172829505" lon="34.6885976382"><ele>175.43</ele><time>2026-08-16T09:10:22Z</time></trkpt><trkpt lat="59.3172390293" lon="34.6884877514"><ele>175.68</ele><time>2026-08-16T09:10:40Z</time></trkpt><trkpt lat="59.3172699586" lon="34.6884969715"><ele>175.81</ele><time>2026-08-16T09:11:20Z</time></trkpt><trkpt lat="59.3172786757" lon="34.6884359512"><ele>175.83</ele><time>2026-08-16T09:11:40Z</time></trkpt><trkpt lat="59.3172935955" lon="34.6882797964"><ele>175.98</ele><time>2026-08-16T09:11:56Z</time></trkpt><trkpt lat="59.3172821961" lon="34.6881244797"><ele>176.03</ele><time>2026-08-16T09:12:13Z</time></trkpt><trkpt lat="59.3173023965" lon="34.6879956499"><ele>175.79</ele><time>2026-08-16T09:12:32Z</time></trkpt><trkpt lat="59.3173178192" lon="34.6878995933"><ele>175.27</ele><time>2026-08-16T09:12:50Z</time></trkpt><trkpt lat="59.3173133768" lon="34.6879522316"><ele>175.19</ele><time>2026-08-16T09:13:17Z</time></trkpt><trkpt lat="59.3172996305" lon="34.6879489627"><ele>175.73</ele><time>2026-08-16T09:13:45Z</time></trkpt><trkpt lat="59.3173110299" lon="34.6879512258"><ele>175.88</ele><time>2026-08-16T09:14:13Z</time></trkpt><trkpt lat="59.3173242733" lon="34.6879206318"><ele>175.69</ele><time>2026-08-16T09:14:45Z</time></trkpt><trkpt lat="59.3173406180" lon="34.6877385769"><ele>174.92</ele><time>2026-08-16T09:15:00Z</time></trkpt><trkpt lat="59.3173546996" lon="34.6875167917"><ele>174.13</ele><time>2026-08-16T09:15:12Z</time></trkpt><trkpt lat="59.3173454795" lon="34.6873053163"><ele>172.89</ele><time>2026-08-16T09:15:22Z</time></trkpt><trkpt lat="59.3173650932" lon="34.6870681923"><ele>171.51</ele><time>2026-08-16T09:15:37Z</time></trkpt><trkpt lat="59.3173970282" lon="34.6868639253"><ele>171.00</ele><time>2026-08-16T09:15:52Z</time></trkpt><trkpt lat="59.3174031470" lon="34.6866325848"><ele>170.25</ele><time>2026-08-16T09:16:06Z</time></trkpt><trkpt lat="59.3174003810" lon="34.6865317505"><ele>169.88</ele><time>2026-08-16T09:16:18Z</time></trkpt><trkpt lat="59.3174309749" lon="34.6862787846"><ele>170.45</ele><time>2026-08-16T09:16:32Z</time></trkpt><trkpt lat="59.3174153846" lon="34.6860595979"><ele>170.70</ele><time>2026-08-16T09:16:45Z</time></trkpt><trkpt lat="59.3174569588" lon="34.6858373936"><ele>170.89</ele><time>2026-08-16T09:16:58Z</time></trkpt><trkpt lat="59.3174752314" lon="34.6856905427"><ele>171.57</ele><time>2026-08-16T09:17:15Z</time></trkpt><trkpt lat="59.3174829427" lon="34.6856471244"><ele>171.13</ele><time>2026-08-16T09:18:04Z</time></trkpt><trkpt lat="59.3174924143" lon="34.6855507325"><ele>171.58</ele><time>2026-08-16T09:18:28Z</time></trkpt><trkpt lat="59.3175319768" lon="34.6854651533"><ele>171.27</ele><time>2026-08-16T09:18:45Z</time></trkpt><trkpt lat="59.3175707851" lon="34.6852957550"><ele>172.27</ele><time>2026-08-16T09:19:03Z</time></trkpt><trkpt lat="59.3176015466" lon="34.6849581320"><ele>172.16</ele><time>2026-08-16T09:19:20Z</time></trkpt><trkpt lat="59.3176455516" lon="34.6847246960"><ele>170.96</ele><time>2026-08-16T09:19:33Z</time></trkpt><trkpt lat="59.3176755589" lon="34.6844764240"><ele>171.10</ele><time>2026-08-16T09:19:47Z</time></trkpt><trkpt lat="59.3177073263" lon="34.6842757612"><ele>171.04</ele><time>2026-08-16T09:20:01Z</time></trkpt><trkpt lat="59.3177379202" lon="34.6841262281"><ele>170.88</ele><time>2026-08-16T09:20:17Z</time></trkpt><trkpt lat="59.3177657481" lon="34.6839751862"><ele>169.95</ele><time>2026-08-16T09:20:30Z</time></trkpt><trkpt lat="59.3178102560" lon="34.6837441809"><ele>170.38</ele><time>2026-08-16T09:20:43Z</time></trkpt><trkpt lat="59.3178249244" lon="34.6836643852"><ele>170.44</ele><time>2026-08-16T09:21:04Z</time></trkpt><trkpt lat="59.3178407662" lon="34.6834887005"><ele>171.02</ele><time>2026-08-16T09:21:21Z</time></trkpt><trkpt lat="59.3178201467" lon="34.6833472978"><ele>171.17</ele><time>2026-08-16T09:21:37Z</time></trkpt><trkpt lat="59.3178700190" lon="34.6832593717"><ele>171.10</ele><time>2026-08-16T09:21:55Z</time></trkpt><trkpt lat="59.3179172929" lon="34.6832711902"><ele>171.22</ele><time>2026-08-16T09:22:11Z</time></trkpt><trkpt lat="59.3179286923" lon="34.6832743753"><ele>167.55</ele><time>2026-08-16T09:22:25Z</time></trkpt><trkpt lat="59.3179286923" lon="34.6832720283"><ele>167.55</ele><time>2026-08-16T09:22:26Z</time></trkpt><trkpt lat="59.3179312907" lon="34.6832666639"><ele>171.13</ele><time>2026-08-16T09:22:32Z</time></trkpt><trkpt lat="59.3179301172" lon="34.6832652390"><ele>170.68</ele><time>2026-08-16T09:22:33Z</time></trkpt><trkpt lat="59.3179173768" lon="34.6832063980"><ele>170.83</ele><time>2026-08-16T09:22:51Z</time></trkpt><trkpt lat="59.3179483898" lon="34.6831058990"><ele>171.00</ele><time>2026-08-16T09:23:09Z</time></trkpt><trkpt lat="59.3179278541" lon="34.6830447949"><ele>171.58</ele><time>2026-08-16T09:23:27Z</time></trkpt><trkpt lat="59.3179858569" lon="34.6829866245"><ele>171.43</ele><time>2026-08-16T09:23:42Z</time></trkpt><trkpt lat="59.3180220667" lon="34.6828277875"><ele>171.23</ele><time>2026-08-16T09:23:58Z</time></trkpt><trkpt lat="59.3180108350" lon="34.6826909948"><ele>170.78</ele><time>2026-08-16T09:24:12Z</time></trkpt><trkpt lat="59.3180006929" lon="34.6825382765"><ele>170.96</ele><time>2026-08-16T09:24:29Z</time></trkpt><trkpt lat="59.3180190492" lon="34.6825666912"><ele>170.94</ele><time>2026-08-16T09:24:53Z</time></trkpt><trkpt lat="59.3180197198" lon="34.6825356781"><ele>170.80</ele><time>2026-08-16T09:25:20Z</time></trkpt><trkpt lat="59.3180377409" lon="34.6823966224"><ele>170.87</ele><time>2026-08-16T09:25:33Z</time></trkpt><trkpt lat="59.3180814944" lon="34.6822787728"><ele>170.56</ele><time>2026-08-16T09:25:47Z</time></trkpt><trkpt lat="59.3181082327" lon="34.6821569838"><ele>170.51</ele><time>2026-08-16T09:25:59Z</time></trkpt><trkpt lat="59.3181623798" lon="34.6819860768"><ele>170.47</ele><time>2026-08-16T09:26:11Z</time></trkpt><trkpt lat="59.3182120845" lon="34.6817966457"><ele>170.08</ele><time>2026-08-16T09:26:23Z</time></trkpt><trkpt lat="59.3182207178" lon="34.6817581728"><ele>170.26</ele><time>2026-08-16T09:26:25Z</time></trkpt><trkpt lat="59.3182313628" lon="34.6815249883"><ele>169.78</ele><time>2026-08-16T09:26:37Z</time></trkpt><trkpt lat="59.3182667345" lon="34.6814725175"><ele>169.59</ele><time>2026-08-16T09:26:54Z</time></trkpt><trkpt lat="59.3182806484" lon="34.6814706735"><ele>170.29</ele><time>2026-08-16T09:27:06Z</time></trkpt><trkpt lat="59.3182684947" lon="34.6816491242"><ele>169.88</ele><time>2026-08-16T09:27:22Z</time></trkpt><trkpt lat="59.3182668183" lon="34.6816895250"><ele>165.95</ele><time>2026-08-16T09:27:25Z</time></trkpt><trkpt lat="59.3182646390" lon="34.6816909499"><ele>166.69</ele><time>2026-08-16T09:27:26Z</time></trkpt><trkpt lat="59.3182641361" lon="34.6817079652"><ele>169.24</ele><time>2026-08-16T09:27:30Z</time></trkpt><trkpt lat="59.3182468694" lon="34.6817234717"><ele>175.80</ele><time>2026-08-16T09:27:41Z</time></trkpt><trkpt lat="59.3182446901" lon="34.6817236394"><ele>172.68</ele><time>2026-08-16T09:27:42Z</time></trkpt><trkpt lat="59.3182395771" lon="34.6817393135"><ele>170.77</ele><time>2026-08-16T09:27:44Z</time></trkpt><trkpt lat="59.3182353862" lon="34.6817182750"><ele>169.50</ele><time>2026-08-16T09:27:46Z</time></trkpt><trkpt lat="59.3182421755" lon="34.6816207934"><ele>169.36</ele><time>2026-08-16T09:28:17Z</time></trkpt><trkpt lat="59.3182794750" lon="34.6814916283"><ele>168.85</ele><time>2026-08-16T09:28:33Z</time></trkpt><trkpt lat="59.3183070514" lon="34.6815929655"><ele>169.15</ele><time>2026-08-16T09:28:52Z</time></trkpt><trkpt lat="59.3183173612" lon="34.6815438475"><ele>168.67</ele><time>2026-08-16T09:29:11Z</time></trkpt><trkpt lat="59.3183143437" lon="34.6815974917"><ele>168.62</ele><time>2026-08-16T09:29:33Z</time></trkpt><trkpt lat="59.3183106557" lon="34.6816917881"><ele>168.16</ele><time>2026-08-16T09:29:56Z</time></trkpt><trkpt lat="59.3183236476" lon="34.6818154212"><ele>167.93</ele><time>2026-08-16T09:30:07Z</time></trkpt><trkpt lat="59.3181231525" lon="34.6815985814"><ele>167.75</ele><time>2026-08-16T09:30:34Z</time></trkpt><trkpt lat="59.3181228172" lon="34.6815967374"><ele>171.81</ele><time>2026-08-16T09:30:42Z</time></trkpt><trkpt lat="59.3181228172" lon="34.6815965697"><ele>170.56</ele><time>2026-08-16T09:30:43Z</time></trkpt><trkpt lat="59.3181224819" lon="34.6815953963"><ele>167.98</ele><time>2026-08-16T09:30:45Z</time></trkpt><trkpt lat="59.3181221467" lon="34.6815958992"><ele>167.80</ele><time>2026-08-16T09:30:49Z</time></trkpt><trkpt lat="59.3181141838" lon="34.6815135889"><ele>165.77</ele><time>2026-08-16T09:30:55Z</time></trkpt><trkpt lat="59.3181128427" lon="34.6815041173"><ele>167.94</ele><time>2026-08-16T09:30:58Z</time></trkpt><trkpt lat="59.3181103282" lon="34.6814895328"><ele>164.81</ele><time>2026-08-16T09:31:05Z</time></trkpt><trkpt lat="59.3181117531" lon="34.6814819891"><ele>166.04</ele><time>2026-08-16T09:31:06Z</time></trkpt><trkpt lat="59.3181196321" lon="34.6813815739"><ele>169.49</ele><time>2026-08-16T09:31:11Z</time></trkpt><trkpt lat="59.3181093223" lon="34.6813436877"><ele>168.39</ele><time>2026-08-16T09:31:15Z</time></trkpt><trkpt lat="59.3181520700" lon="34.6813577693"><ele>168.94</ele><time>2026-08-16T09:31:22Z</time></trkpt><trkpt lat="59.3181508966" lon="34.6813721862"><ele>168.01</ele><time>2026-08-16T09:31:24Z</time></trkpt><trkpt lat="59.3181852624" lon="34.6814005170"><ele>167.81</ele><time>2026-08-16T09:31:40Z</time></trkpt><trkpt lat="59.3182555865" lon="34.6814383194"><ele>167.67</ele><time>2026-08-16T09:32:04Z</time></trkpt><trkpt lat="59.3182418402" lon="34.6814316977"><ele>165.96</ele><time>2026-08-16T09:32:33Z</time></trkpt><trkpt lat="59.3182354700" lon="34.6814319491"><ele>158.96</ele><time>2026-08-16T09:32:53Z</time></trkpt><trkpt lat="59.3182348832" lon="34.6814305242"><ele>158.96</ele><time>2026-08-16T09:32:54Z</time></trkpt><trkpt lat="59.3182362244" lon="34.6814326197"><ele>168.14</ele><time>2026-08-16T09:33:06Z</time></trkpt><trkpt lat="59.3182365596" lon="34.6814331226"><ele>167.73</ele><time>2026-08-16T09:33:07Z</time></trkpt><trkpt lat="59.3182394933" lon="34.6814457793"><ele>167.42</ele><time>2026-08-16T09:33:47Z</time></trkpt><trkpt lat="59.3182607833" lon="34.6814315300"><ele>167.53</ele><time>2026-08-16T09:34:30Z</time></trkpt><trkpt lat="59.3183042854" lon="34.6814495511"><ele>167.22</ele><time>2026-08-16T09:34:54Z</time></trkpt><trkpt lat="59.3182839174" lon="34.6814791393"><ele>167.66</ele><time>2026-08-16T09:35:36Z</time></trkpt><trkpt lat="59.3182855938" lon="34.6814770438"><ele>167.57</ele><time>2026-08-16T09:36:11Z</time></trkpt><trkpt lat="59.3182983343" lon="34.6814941429"><ele>167.67</ele><time>2026-08-16T09:37:23Z</time></trkpt><trkpt lat="59.3183013517" lon="34.6814912930"><ele>167.42</ele><time>2026-08-16T09:38:05Z</time></trkpt><trkpt lat="59.3182980828" lon="34.6814740263"><ele>167.27</ele><time>2026-08-16T09:39:00Z</time></trkpt><trkpt lat="59.3183017708" lon="34.6814619564"><ele>167.69</ele><time>2026-08-16T09:39:45Z</time></trkpt><trkpt lat="59.3183019385" lon="34.6814625431"><ele>167.50</ele><time>2026-08-16T09:40:40Z</time></trkpt><trkpt lat="59.3182983343" lon="34.6815046202"><ele>168.28</ele><time>2026-08-16T09:41:29Z</time></trkpt><trkpt lat="59.3183131702" lon="34.6815134212"><ele>168.18</ele><time>2026-08-16T09:41:54Z</time></trkpt><trkpt lat="59.3183468655" lon="34.6815143432"><ele>168.02</ele><time>2026-08-16T09:42:13Z</time></trkpt><trkpt lat="59.3183688261" lon="34.6815105714"><ele>164.95</ele><time>2026-08-16T09:42:41Z</time></trkpt><trkpt lat="59.3183692452" lon="34.6815094817"><ele>164.95</ele><time>2026-08-16T09:42:42Z</time></trkpt><trkpt lat="59.3183629587" lon="34.6815181989"><ele>168.70</ele><time>2026-08-16T09:42:56Z</time></trkpt><trkpt lat="59.3183632940" lon="34.6815221384"><ele>168.54</ele><time>2026-08-16T09:42:57Z</time></trkpt><trkpt lat="59.3183588516" lon="34.6815172769"><ele>168.50</ele><time>2026-08-16T09:43:19Z</time></trkpt><trkpt lat="59.3183502182" lon="34.6815260779"><ele>168.46</ele><time>2026-08-16T09:43:51Z</time></trkpt><trkpt lat="59.3183990847" lon="34.6816107351"><ele>168.61</ele><time>2026-08-16T09:44:07Z</time></trkpt><trkpt lat="59.3184538186" lon="34.6817561612"><ele>169.26</ele><time>2026-08-16T09:44:21Z</time></trkpt><trkpt lat="59.3184964824" lon="34.6819288284"><ele>169.89</ele><time>2026-08-16T09:44:33Z</time></trkpt><trkpt lat="59.3185684830" lon="34.6820082050"><ele>170.25</ele><time>2026-08-16T09:44:45Z</time></trkpt><trkpt lat="59.3185932934" lon="34.6820724942"><ele>170.75</ele><time>2026-08-16T09:45:04Z</time></trkpt><trkpt lat="59.3187149987" lon="34.6821205225"><ele>170.48</ele><time>2026-08-16T09:45:21Z</time></trkpt><trkpt lat="59.3187682237" lon="34.6821255516"><ele>169.90</ele><time>2026-08-16T09:45:28Z</time></trkpt><trkpt lat="59.3188317586" lon="34.6821329277"><ele>169.67</ele><time>2026-08-16T09:45:39Z</time></trkpt><trkpt lat="59.3188885879" lon="34.6821268927"><ele>169.71</ele><time>2026-08-16T09:45:47Z</time></trkpt><trkpt lat="59.3189671263" lon="34.6820371225"><ele>169.58</ele><time>2026-08-16T09:45:58Z</time></trkpt><trkpt lat="59.3190719839" lon="34.6819723304"><ele>169.22</ele><time>2026-08-16T09:46:09Z</time></trkpt><trkpt lat="59.3191502709" lon="34.6819416527"><ele>169.32</ele><time>2026-08-16T09:46:21Z</time></trkpt><trkpt lat="59.3191966228" lon="34.6819283254"><ele>169.22</ele><time>2026-08-16T09:46:26Z</time></trkpt><trkpt lat="59.3193294760" lon="34.6819659602"><ele>169.07</ele><time>2026-08-16T09:46:41Z</time></trkpt><trkpt lat="59.3193986267" lon="34.6819881722"><ele>169.37</ele><time>2026-08-16T09:46:53Z</time></trkpt><trkpt lat="59.3194279633" lon="34.6819818858"><ele>169.34</ele><time>2026-08-16T09:47:09Z</time></trkpt><trkpt lat="59.3194376864" lon="34.6819884237"><ele>169.22</ele><time>2026-08-16T09:47:43Z</time></trkpt><trkpt lat="59.3194362614" lon="34.6819903515"><ele>169.58</ele><time>2026-08-16T09:47:56Z</time></trkpt><trkpt lat="59.3194515165" lon="34.6821175888"><ele>169.53</ele><time>2026-08-16T09:48:09Z</time></trkpt><trkpt lat="59.3195075914" lon="34.6821998991"><ele>169.82</ele><time>2026-08-16T09:48:21Z</time></trkpt><trkpt lat="59.3195488304" lon="34.6822709776"><ele>168.81</ele><time>2026-08-16T09:48:33Z</time></trkpt><trkpt lat="59.3196301349" lon="34.6823422238"><ele>168.39</ele><time>2026-08-16T09:48:48Z</time></trkpt><trkpt lat="59.3197262753" lon="34.6824565530"><ele>168.34</ele><time>2026-08-16T09:49:02Z</time></trkpt><trkpt lat="59.3197482359" lon="34.6824437287"><ele>168.34</ele><time>2026-08-16T09:49:04Z</time></trkpt><trkpt lat="59.3198389281" lon="34.6824602410"><ele>168.44</ele><time>2026-08-16T09:49:19Z</time></trkpt><trkpt lat="59.3198578712" lon="34.6824458241"><ele>168.45</ele><time>2026-08-16T09:49:37Z</time></trkpt><trkpt lat="59.3199386727" lon="34.6824960317"><ele>168.40</ele><time>2026-08-16T09:49:51Z</time></trkpt><trkpt lat="59.3200628925" lon="34.6825603209"><ele>167.96</ele><time>2026-08-16T09:50:10Z</time></trkpt><trkpt lat="59.3201942369" lon="34.6826405358"><ele>168.10</ele><time>2026-08-16T09:50:25Z</time></trkpt><trkpt lat="59.3202032894" lon="34.6826654300"><ele>166.21</ele><time>2026-08-16T09:50:29Z</time></trkpt><trkpt lat="59.3202148564" lon="34.6826668549"><ele>167.94</ele><time>2026-08-16T09:50:38Z</time></trkpt><trkpt lat="59.3201970868" lon="34.6826942638"><ele>167.77</ele><time>2026-08-16T09:51:04Z</time></trkpt><trkpt lat="59.3201858550" lon="34.6827091835"><ele>167.45</ele><time>2026-08-16T09:51:34Z</time></trkpt><trkpt lat="59.3201805744" lon="34.6829076670"><ele>167.21</ele><time>2026-08-16T09:51:51Z</time></trkpt><trkpt lat="59.3201770540" lon="34.6830493212"><ele>167.33</ele><time>2026-08-16T09:51:58Z</time></trkpt><trkpt lat="59.3200924806" lon="34.6831096709"><ele>167.27</ele><time>2026-08-16T09:52:13Z</time></trkpt><trkpt lat="59.3201140221" lon="34.6832572762"><ele>167.11</ele><time>2026-08-16T09:52:23Z</time></trkpt><trkpt lat="59.3201786466" lon="34.6832758840"><ele>167.02</ele><time>2026-08-16T09:52:30Z</time></trkpt><trkpt lat="59.3201297801" lon="34.6833946556"><ele>166.73</ele><time>2026-08-16T09:52:46Z</time></trkpt><trkpt lat="59.3199675903" lon="34.6836050414"><ele>166.86</ele><time>2026-08-16T09:52:59Z</time></trkpt><trkpt lat="59.3199433666" lon="34.6838379744"><ele>166.18</ele><time>2026-08-16T09:53:16Z</time></trkpt><trkpt lat="59.3199305423" lon="34.6839350369"><ele>166.28</ele><time>2026-08-16T09:53:26Z</time></trkpt><trkpt lat="59.3198455498" lon="34.6840573289"><ele>166.58</ele><time>2026-08-16T09:53:41Z</time></trkpt><trkpt lat="59.3198519200" lon="34.6841377951"><ele>166.89</ele><time>2026-08-16T09:53:45Z</time></trkpt><trkpt lat="59.3197809253" lon="34.6844903380"><ele>166.50</ele><time>2026-08-16T09:53:58Z</time></trkpt><trkpt lat="59.3197166361" lon="34.6845842991"><ele>163.95</ele><time>2026-08-16T09:54:14Z</time></trkpt><trkpt lat="59.3196678534" lon="34.6847360954"><ele>163.49</ele><time>2026-08-16T09:54:28Z</time></trkpt><trkpt lat="59.3196644168" lon="34.6848705411"><ele>163.74</ele><time>2026-08-16T09:54:44Z</time></trkpt><trkpt lat="59.3196149636" lon="34.6849384345"><ele>166.61</ele><time>2026-08-16T09:55:04Z</time></trkpt><trkpt lat="59.3195788376" lon="34.6849350818"><ele>168.28</ele><time>2026-08-16T09:55:15Z</time></trkpt><trkpt lat="59.3195752334" lon="34.6849330701"><ele>167.36</ele><time>2026-08-16T09:55:17Z</time></trkpt><trkpt lat="59.3194716331" lon="34.6849976946"><ele>168.16</ele><time>2026-08-16T09:55:41Z</time></trkpt><trkpt lat="59.3194102775" lon="34.6851111855"><ele>168.06</ele><time>2026-08-16T09:56:01Z</time></trkpt><trkpt lat="59.3193414621" lon="34.6853478905"><ele>168.54</ele><time>2026-08-16T09:56:14Z</time></trkpt><trkpt lat="59.3193086889" lon="34.6854081564"><ele>168.52</ele><time>2026-08-16T09:56:34Z</time></trkpt><trkpt lat="59.3192985468" lon="34.6856035385"><ele>168.59</ele><time>2026-08-16T09:56:51Z</time></trkpt><trkpt lat="59.3193706311" lon="34.6857838333"><ele>168.61</ele><time>2026-08-16T09:57:05Z</time></trkpt><trkpt lat="59.3194083497" lon="34.6859866753"><ele>168.90</ele><time>2026-08-16T09:57:18Z</time></trkpt><trkpt lat="59.3194773328" lon="34.6860809717"><ele>169.04</ele><time>2026-08-16T09:57:30Z</time></trkpt><trkpt lat="59.3195116986" lon="34.6861959714"><ele>169.33</ele><time>2026-08-16T09:57:47Z</time></trkpt><trkpt lat="59.3195569608" lon="34.6862698998"><ele>172.66</ele><time>2026-08-16T09:58:13Z</time></trkpt><trkpt lat="59.3195569608" lon="34.6862708218"><ele>171.96</ele><time>2026-08-16T09:58:14Z</time></trkpt><trkpt lat="59.3195534404" lon="34.6862830594"><ele>168.71</ele><time>2026-08-16T09:58:38Z</time></trkpt><trkpt lat="59.3195642531" lon="34.6863221191"><ele>169.39</ele><time>2026-08-16T09:59:01Z</time></trkpt><trkpt lat="59.3195023108" lon="34.6863470133"><ele>169.51</ele><time>2026-08-16T09:59:15Z</time></trkpt><trkpt lat="59.3194743991" lon="34.6864827164"><ele>169.62</ele><time>2026-08-16T09:59:33Z</time></trkpt><trkpt lat="59.3194371834" lon="34.6865780186"><ele>169.16</ele><time>2026-08-16T09:59:52Z</time></trkpt><trkpt lat="59.3194640893" lon="34.6868308168"><ele>169.09</ele><time>2026-08-16T10:00:08Z</time></trkpt><trkpt lat="59.3194304779" lon="34.6870531887"><ele>170.27</ele><time>2026-08-16T10:00:28Z</time></trkpt><trkpt lat="59.3192959484" lon="34.6871925797"><ele>170.39</ele><time>2026-08-16T10:00:44Z</time></trkpt><trkpt lat="59.3192882370" lon="34.6873560268"><ele>171.13</ele><time>2026-08-16T10:00:58Z</time></trkpt><trkpt lat="59.3191627599" lon="34.6875830926"><ele>171.53</ele><time>2026-08-16T10:01:16Z</time></trkpt><trkpt lat="59.3190626800" lon="34.6878201328"><ele>171.65</ele><time>2026-08-16T10:01:33Z</time></trkpt><trkpt lat="59.3190643564" lon="34.6881442610"><ele>172.55</ele><time>2026-08-16T10:01:46Z</time></trkpt><trkpt lat="59.3190508615" lon="34.6882561594"><ele>172.92</ele><time>2026-08-16T10:02:04Z</time></trkpt><trkpt lat="59.3190628476" lon="34.6884911042"><ele>173.62</ele><time>2026-08-16T10:02:24Z</time></trkpt><trkpt lat="59.3190040905" lon="34.6887100395"><ele>173.58</ele><time>2026-08-16T10:02:44Z</time></trkpt><trkpt lat="59.3189623486" lon="34.6888967883"><ele>171.72</ele><time>2026-08-16T10:02:58Z</time></trkpt><trkpt lat="59.3189387955" lon="34.6889689565"><ele>173.50</ele><time>2026-08-16T10:03:08Z</time></trkpt><trkpt lat="59.3189348560" lon="34.6889703814"><ele>169.85</ele><time>2026-08-16T10:03:11Z</time></trkpt><trkpt lat="59.3189305812" lon="34.6889690403"><ele>169.85</ele><time>2026-08-16T10:03:12Z</time></trkpt><trkpt lat="59.3189158291" lon="34.6889505163"><ele>173.63</ele><time>2026-08-16T10:03:23Z</time></trkpt><trkpt lat="59.3189192656" lon="34.6889565513"><ele>173.55</ele><time>2026-08-16T10:03:24Z</time></trkpt><trkpt lat="59.3189195171" lon="34.6889982931"><ele>172.84</ele><time>2026-08-16T10:03:43Z</time></trkpt><trkpt lat="59.3189336825" lon="34.6891211718"><ele>172.71</ele><time>2026-08-16T10:03:56Z</time></trkpt><trkpt lat="59.3189303298" lon="34.6892813500"><ele>173.43</ele><time>2026-08-16T10:04:14Z</time></trkpt><trkpt lat="59.3189348560" lon="34.6893688571"><ele>173.47</ele><time>2026-08-16T10:04:23Z</time></trkpt><trkpt lat="59.3189470936" lon="34.6896012872"><ele>173.29</ele><time>2026-08-16T10:04:35Z</time></trkpt><trkpt lat="59.3189631868" lon="34.6898589469"><ele>173.57</ele><time>2026-08-16T10:04:53Z</time></trkpt><trkpt lat="59.3189304974" lon="34.6899388265"><ele>173.25</ele><time>2026-08-16T10:05:09Z</time></trkpt><trkpt lat="59.3189232890" lon="34.6899443585"><ele>173.24</ele><time>2026-08-16T10:05:10Z</time></trkpt><trkpt lat="59.3188203592" lon="34.6902594343"><ele>173.55</ele><time>2026-08-16T10:05:24Z</time></trkpt><trkpt lat="59.3187918607" lon="34.6904343646"><ele>173.61</ele><time>2026-08-16T10:05:39Z</time></trkpt><trkpt lat="59.3187896814" lon="34.6904403996"><ele>173.52</ele><time>2026-08-16T10:05:40Z</time></trkpt><trkpt lat="59.3187356181" lon="34.6906070318"><ele>174.32</ele><time>2026-08-16T10:05:55Z</time></trkpt><trkpt lat="59.3187444191" lon="34.6906324290"><ele>175.06</ele><time>2026-08-16T10:05:57Z</time></trkpt><trkpt lat="59.3186380528" lon="34.6910255402"><ele>173.80</ele><time>2026-08-16T10:06:29Z</time></trkpt><trkpt lat="59.3186367955" lon="34.6910544578"><ele>174.43</ele><time>2026-08-16T10:06:31Z</time></trkpt><trkpt lat="59.3186182715" lon="34.6912182402"><ele>173.91</ele><time>2026-08-16T10:06:43Z</time></trkpt><trkpt lat="59.3186201993" lon="34.6914128680"><ele>173.40</ele><time>2026-08-16T10:07:03Z</time></trkpt><trkpt lat="59.3186052795" lon="34.6914244350"><ele>165.10</ele><time>2026-08-16T10:07:18Z</time></trkpt><trkpt lat="59.3186053634" lon="34.6914244350"><ele>165.11</ele><time>2026-08-16T10:07:19Z</time></trkpt><trkpt lat="59.3186100572" lon="34.6914601419"><ele>174.45</ele><time>2026-08-16T10:07:34Z</time></trkpt><trkpt lat="59.3186100572" lon="34.6914604772"><ele>174.23</ele><time>2026-08-16T10:07:35Z</time></trkpt><trkpt lat="59.3186051957" lon="34.6914372593"><ele>173.73</ele><time>2026-08-16T10:08:01Z</time></trkpt><trkpt lat="59.3185951374" lon="34.6915132832"><ele>173.25</ele><time>2026-08-16T10:08:19Z</time></trkpt><trkpt lat="59.3185929582" lon="34.6915218327"><ele>173.48</ele><time>2026-08-16T10:08:27Z</time></trkpt><trkpt lat="59.3185371347" lon="34.6917004511"><ele>173.75</ele><time>2026-08-16T10:08:42Z</time></trkpt><trkpt lat="59.3184482865" lon="34.6918787342"><ele>173.42</ele><time>2026-08-16T10:08:54Z</time></trkpt><trkpt lat="59.3183772918" lon="34.6919401735"><ele>173.43</ele><time>2026-08-16T10:09:06Z</time></trkpt><trkpt lat="59.3182461988" lon="34.6920586936"><ele>174.19</ele><time>2026-08-16T10:09:47Z</time></trkpt><trkpt lat="59.3182347994" lon="34.6920876950"><ele>172.38</ele><time>2026-08-16T10:09:51Z</time></trkpt><trkpt lat="59.3181511480" lon="34.6922658943"><ele>175.44</ele><time>2026-08-16T10:10:07Z</time></trkpt><trkpt lat="59.3181059696" lon="34.6923472825"><ele>175.13</ele><time>2026-08-16T10:10:22Z</time></trkpt><trkpt lat="59.3179835100" lon="34.6926673874"><ele>174.23</ele><time>2026-08-16T10:10:43Z</time></trkpt><trkpt lat="59.3178501539" lon="34.6929431520"><ele>174.35</ele><time>2026-08-16T10:10:59Z</time></trkpt><trkpt lat="59.3178647384" lon="34.6930838842"><ele>173.95</ele><time>2026-08-16T10:11:13Z</time></trkpt><trkpt lat="59.3178108428" lon="34.6930849738"><ele>173.98</ele><time>2026-08-16T10:11:25Z</time></trkpt><trkpt lat="59.3179036304" lon="34.6932941861"><ele>173.87</ele><time>2026-08-16T10:11:40Z</time></trkpt><trkpt lat="59.3180226535" lon="34.6934096888"><ele>174.51</ele><time>2026-08-16T10:11:53Z</time></trkpt><trkpt lat="59.3181091547" lon="34.6935109422"><ele>174.58</ele><time>2026-08-16T10:12:05Z</time></trkpt><trkpt lat="59.3181361444" lon="34.6935391892"><ele>174.46</ele><time>2026-08-16T10:12:25Z</time></trkpt><trkpt lat="59.3181716837" lon="34.6936354972"><ele>174.64</ele><time>2026-08-16T10:12:49Z</time></trkpt><trkpt lat="59.3182215560" lon="34.6937892213"><ele>174.72</ele><time>2026-08-16T10:13:07Z</time></trkpt><trkpt lat="59.3182218913" lon="34.6937384270"><ele>175.06</ele><time>2026-08-16T10:13:34Z</time></trkpt><trkpt lat="59.3182558380" lon="34.6936988644"><ele>174.61</ele><time>2026-08-16T10:14:04Z</time></trkpt><trkpt lat="59.3182378169" lon="34.6937288716"><ele>174.30</ele><time>2026-08-16T10:14:15Z</time></trkpt><trkpt lat="59.3182294350" lon="34.6937881317"><ele>174.97</ele><time>2026-08-16T10:14:28Z</time></trkpt><trkpt lat="59.3181709293" lon="34.6942167822"><ele>175.94</ele><time>2026-08-16T10:14:51Z</time></trkpt><trkpt lat="59.3181428500" lon="34.6945041139"><ele>176.75</ele><time>2026-08-16T10:15:04Z</time></trkpt><trkpt lat="59.3181010243" lon="34.6947459318"><ele>176.33</ele><time>2026-08-16T10:15:18Z</time></trkpt><trkpt lat="59.3180977553" lon="34.6947673894"><ele>172.44</ele><time>2026-08-16T10:15:20Z</time></trkpt><trkpt lat="59.3180973362" lon="34.6947728377"><ele>175.79</ele><time>2026-08-16T10:15:21Z</time></trkpt><trkpt lat="59.3180943187" lon="34.6947901882"><ele>173.70</ele><time>2026-08-16T10:15:29Z</time></trkpt><trkpt lat="59.3180940673" lon="34.6948490292"><ele>173.69</ele><time>2026-08-16T10:15:35Z</time></trkpt><trkpt lat="59.3181032035" lon="34.6948866639"><ele>175.18</ele><time>2026-08-16T10:15:37Z</time></trkpt><trkpt lat="59.3180789798" lon="34.6949804574"><ele>175.96</ele><time>2026-08-16T10:15:42Z</time></trkpt><trkpt lat="59.3180965818" lon="34.6951035876"><ele>174.90</ele><time>2026-08-16T10:15:48Z</time></trkpt><trkpt lat="59.3180947378" lon="34.6951156575"><ele>174.61</ele><time>2026-08-16T10:15:49Z</time></trkpt><trkpt lat="59.3180997670" lon="34.6951400489"><ele>174.76</ele><time>2026-08-16T10:15:53Z</time></trkpt><trkpt lat="59.3180236593" lon="34.6949903481"><ele>170.69</ele><time>2026-08-16T10:16:06Z</time></trkpt><trkpt lat="59.3180241622" lon="34.6949911863"><ele>177.47</ele><time>2026-08-16T10:16:07Z</time></trkpt><trkpt lat="59.3180247489" lon="34.6949925274"><ele>173.81</ele><time>2026-08-16T10:16:08Z</time></trkpt><trkpt lat="59.3180254195" lon="34.6949965507"><ele>175.83</ele><time>2026-08-16T10:16:12Z</time></trkpt><trkpt lat="59.3180255871" lon="34.6950152423"><ele>172.75</ele><time>2026-08-16T10:16:15Z</time></trkpt><trkpt lat="59.3180806562" lon="34.6952661965"><ele>174.94</ele><time>2026-08-16T10:16:30Z</time></trkpt><trkpt lat="59.3180985935" lon="34.6952722315"><ele>175.02</ele><time>2026-08-16T10:16:32Z</time></trkpt><trkpt lat="59.3181296904" lon="34.6952579822"><ele>174.37</ele><time>2026-08-16T10:16:34Z</time></trkpt><trkpt lat="59.3181278463" lon="34.6953318268"><ele>175.93</ele><time>2026-08-16T10:16:37Z</time></trkpt><trkpt lat="59.3180681672" lon="34.6955640893"><ele>175.15</ele><time>2026-08-16T10:16:52Z</time></trkpt><trkpt lat="59.3180354778" lon="34.6957464796"><ele>175.65</ele><time>2026-08-16T10:17:09Z</time></trkpt><trkpt lat="59.3180114217" lon="34.6959181409"><ele>175.61</ele><time>2026-08-16T10:17:25Z</time></trkpt><trkpt lat="59.3179224897" lon="34.6960679255"><ele>174.77</ele><time>2026-08-16T10:17:41Z</time></trkpt><trkpt lat="59.3178733718" lon="34.6960555203"><ele>170.49</ele><time>2026-08-16T10:17:59Z</time></trkpt><trkpt lat="59.3178751320" lon="34.6960558556"><ele>170.49</ele><time>2026-08-16T10:18:00Z</time></trkpt><trkpt lat="59.3179047201" lon="34.6960901376"><ele>175.33</ele><time>2026-08-16T10:18:09Z</time></trkpt><trkpt lat="59.3179042172" lon="34.6960912272"><ele>175.02</ele><time>2026-08-16T10:18:10Z</time></trkpt><trkpt lat="59.3179042172" lon="34.6960928198"><ele>171.21</ele><time>2026-08-16T10:18:13Z</time></trkpt><trkpt lat="59.3179040495" lon="34.6960937418"><ele>171.21</ele><time>2026-08-16T10:18:14Z</time></trkpt><trkpt lat="59.3178886268" lon="34.6960695181"><ele>175.06</ele><time>2026-08-16T10:18:31Z</time></trkpt><trkpt lat="59.3178873695" lon="34.6960705239"><ele>174.88</ele><time>2026-08-16T10:18:32Z</time></trkpt><trkpt lat="59.3178728689" lon="34.6961548459"><ele>175.27</ele><time>2026-08-16T10:18:58Z</time></trkpt><trkpt lat="59.3178860284" lon="34.6962520760"><ele>175.62</ele><time>2026-08-16T10:19:03Z</time></trkpt><trkpt lat="59.3178477231" lon="34.6964310296"><ele>174.42</ele><time>2026-08-16T10:19:15Z</time></trkpt><trkpt lat="59.3178173807" lon="34.6965613682"><ele>175.02</ele><time>2026-08-16T10:19:29Z</time></trkpt><trkpt lat="59.3177818414" lon="34.6966567542"><ele>174.65</ele><time>2026-08-16T10:19:40Z</time></trkpt><trkpt lat="59.3177783210" lon="34.6966623701"><ele>174.76</ele><time>2026-08-16T10:19:41Z</time></trkpt><trkpt lat="59.3176925741" lon="34.6968002524"><ele>174.33</ele><time>2026-08-16T10:19:54Z</time></trkpt><trkpt lat="59.3176543526" lon="34.6970179304"><ele>174.81</ele><time>2026-08-16T10:20:12Z</time></trkpt><trkpt lat="59.3176671769" lon="34.6971998177"><ele>175.03</ele><time>2026-08-16T10:20:26Z</time></trkpt><trkpt lat="59.3176230881" lon="34.6973019931"><ele>175.25</ele><time>2026-08-16T10:20:40Z</time></trkpt><trkpt lat="59.3175831903" lon="34.6975205932"><ele>174.79</ele><time>2026-08-16T10:20:54Z</time></trkpt><trkpt lat="59.3175594695" lon="34.6977184899"><ele>175.11</ele><time>2026-08-16T10:21:10Z</time></trkpt><trkpt lat="59.3175093457" lon="34.6978714596"><ele>175.05</ele><time>2026-08-16T10:21:23Z</time></trkpt><trkpt lat="59.3174926657" lon="34.6979059931"><ele>175.01</ele><time>2026-08-16T10:21:48Z</time></trkpt><trkpt lat="59.3174710404" lon="34.6978887264"><ele>175.29</ele><time>2026-08-16T10:22:29Z</time></trkpt><trkpt lat="59.3174669333" lon="34.6979587991"><ele>176.19</ele><time>2026-08-16T10:22:50Z</time></trkpt><trkpt lat="59.3174579646" lon="34.6980122756"><ele>176.26</ele><time>2026-08-16T10:22:57Z</time></trkpt><trkpt lat="59.3174907379" lon="34.6979666781"><ele>174.96</ele><time>2026-08-16T10:23:19Z</time></trkpt><trkpt lat="59.3174902350" lon="34.6981190611"><ele>175.42</ele><time>2026-08-16T10:23:41Z</time></trkpt><trkpt lat="59.3174920790" lon="34.6983717754"><ele>175.61</ele><time>2026-08-16T10:23:57Z</time></trkpt><trkpt lat="59.3174956832" lon="34.6985667385"><ele>176.08</ele><time>2026-08-16T10:24:13Z</time></trkpt><trkpt lat="59.3173876405" lon="34.6985986736"><ele>176.13</ele><time>2026-08-16T10:24:32Z</time></trkpt><trkpt lat="59.3173565436" lon="34.6985736955"><ele>176.69</ele><time>2026-08-16T10:24:36Z</time></trkpt><trkpt lat="59.3173861317" lon="34.6986779664"><ele>175.40</ele><time>2026-08-16T10:25:21Z</time></trkpt><trkpt lat="59.3173342478" lon="34.6986333746"><ele>175.43</ele><time>2026-08-16T10:25:58Z</time></trkpt><trkpt lat="59.3172553740" lon="34.6985347196"><ele>175.23</ele><time>2026-08-16T10:26:12Z</time></trkpt><trkpt lat="59.3172037415" lon="34.6986521501"><ele>175.31</ele><time>2026-08-16T10:26:30Z</time></trkpt><trkpt lat="59.3171667773" lon="34.6987500507"><ele>175.70</ele><time>2026-08-16T10:26:44Z</time></trkpt><trkpt lat="59.3171793502" lon="34.6987917926"><ele>176.09</ele><time>2026-08-16T10:26:52Z</time></trkpt><trkpt lat="59.3171947729" lon="34.6989993285"><ele>174.54</ele><time>2026-08-16T10:27:08Z</time></trkpt><trkpt lat="59.3171927612" lon="34.6990209538"><ele>174.43</ele><time>2026-08-16T10:27:09Z</time></trkpt><trkpt lat="59.3170861434" lon="34.6992789488"><ele>174.81</ele><time>2026-08-16T10:27:23Z</time></trkpt><trkpt lat="59.3170160707" lon="34.6994529571"><ele>174.07</ele><time>2026-08-16T10:27:38Z</time></trkpt><trkpt lat="59.3169785198" lon="34.6996872313"><ele>173.82</ele><time>2026-08-16T10:27:52Z</time></trkpt><trkpt lat="59.3169630971" lon="34.6998432186"><ele>174.54</ele><time>2026-08-16T10:28:08Z</time></trkpt><trkpt lat="59.3169631809" lon="34.6999701206"><ele>173.76</ele><time>2026-08-16T10:28:14Z</time></trkpt><trkpt lat="59.3169362750" lon="34.7001448832"><ele>175.36</ele><time>2026-08-16T10:28:27Z</time></trkpt><trkpt lat="59.3169068545" lon="34.7001854517"><ele>175.20</ele><time>2026-08-16T10:28:38Z</time></trkpt><trkpt lat="59.3168980535" lon="34.7003257647"><ele>175.21</ele><time>2026-08-16T10:28:52Z</time></trkpt><trkpt lat="59.3169373646" lon="34.7004686762"><ele>175.73</ele><time>2026-08-16T10:29:05Z</time></trkpt><trkpt lat="59.3170035817" lon="34.7004830930"><ele>175.41</ele><time>2026-08-16T10:29:23Z</time></trkpt><trkpt lat="59.3170171604" lon="34.7005587816"><ele>175.36</ele><time>2026-08-16T10:29:35Z</time></trkpt><trkpt lat="59.3170805275" lon="34.7006350569"><ele>175.27</ele><time>2026-08-16T10:29:50Z</time></trkpt><trkpt lat="59.3171279691" lon="34.7007289343"><ele>175.54</ele><time>2026-08-16T10:30:14Z</time></trkpt><trkpt lat="59.3171672802" lon="34.7007440217"><ele>175.69</ele><time>2026-08-16T10:30:29Z</time></trkpt><trkpt lat="59.3171430565" lon="34.7007129248"><ele>175.49</ele><time>2026-08-16T10:31:08Z</time></trkpt><trkpt lat="59.3171560485" lon="34.7008784674"><ele>175.87</ele><time>2026-08-16T10:31:37Z</time></trkpt><trkpt lat="59.3171017338" lon="34.7010094766"><ele>175.79</ele><time>2026-08-16T10:32:00Z</time></trkpt><trkpt lat="59.3170644343" lon="34.7011277452"><ele>175.60</ele><time>2026-08-16T10:32:15Z</time></trkpt><trkpt lat="59.3170678709" lon="34.7011662181"><ele>174.96</ele><time>2026-08-16T10:32:30Z</time></trkpt><trkpt lat="59.3170449883" lon="34.7012513783"><ele>174.26</ele><time>2026-08-16T10:32:45Z</time></trkpt><trkpt lat="59.3169952836" lon="34.7013579961"><ele>174.93</ele><time>2026-08-16T10:32:54Z</time></trkpt><trkpt lat="59.3169317488" lon="34.7015856486"><ele>173.04</ele><time>2026-08-16T10:33:09Z</time></trkpt><trkpt lat="59.3168564793" lon="34.7018538695"><ele>173.64</ele><time>2026-08-16T10:33:25Z</time></trkpt><trkpt lat="59.3168149889" lon="34.7019868903"><ele>175.26</ele><time>2026-08-16T10:33:44Z</time></trkpt><trkpt lat="59.3167907652" lon="34.7020154726"><ele>173.74</ele><time>2026-08-16T10:33:47Z</time></trkpt><trkpt lat="59.3167236261" lon="34.7021260299"><ele>172.84</ele><time>2026-08-16T10:34:02Z</time></trkpt><trkpt lat="59.3166890927" lon="34.7022604756"><ele>173.01</ele><time>2026-08-16T10:34:07Z</time></trkpt><trkpt lat="59.3166037649" lon="34.7024318855"><ele>173.49</ele><time>2026-08-16T10:34:20Z</time></trkpt><trkpt lat="59.3165757693" lon="34.7025196441"><ele>172.75</ele><time>2026-08-16T10:34:35Z</time></trkpt><trkpt lat="59.3165961374" lon="34.7026719432"><ele>172.32</ele><time>2026-08-16T10:34:53Z</time></trkpt><trkpt lat="59.3166047707" lon="34.7027668264"><ele>173.33</ele><time>2026-08-16T10:35:05Z</time></trkpt><trkpt lat="59.3165985681" lon="34.7028601170"><ele>173.81</ele><time>2026-08-16T10:35:23Z</time></trkpt><trkpt lat="59.3166167568" lon="34.7029280942"><ele>174.07</ele><time>2026-08-16T10:35:41Z</time></trkpt><trkpt lat="59.3167218659" lon="34.7030167747"><ele>173.82</ele><time>2026-08-16T10:35:53Z</time></trkpt><trkpt lat="59.3167487718" lon="34.7030626237"><ele>173.87</ele><time>2026-08-16T10:36:12Z</time></trkpt><trkpt lat="59.3167807907" lon="34.7029810678"><ele>172.52</ele><time>2026-08-16T10:36:43Z</time></trkpt><trkpt lat="59.3167797849" lon="34.7029822413"><ele>175.82</ele><time>2026-08-16T10:36:52Z</time></trkpt><trkpt lat="59.3167802878" lon="34.7029808164"><ele>175.59</ele><time>2026-08-16T10:36:53Z</time></trkpt><trkpt lat="59.3167799525" lon="34.7029815707"><ele>173.97</ele><time>2026-08-16T10:36:56Z</time></trkpt><trkpt lat="59.3168305792" lon="34.7031430900"><ele>173.66</ele><time>2026-08-16T10:37:25Z</time></trkpt><trkpt lat="59.3167796172" lon="34.7032955568"><ele>173.81</ele><time>2026-08-16T10:37:41Z</time></trkpt><trkpt lat="59.3167184293" lon="34.7034675535"><ele>173.05</ele><time>2026-08-16T10:37:55Z</time></trkpt><trkpt lat="59.3166886736" lon="34.7035630234"><ele>172.55</ele><time>2026-08-16T10:38:02Z</time></trkpt><trkpt lat="59.3166591693" lon="34.7037287336"><ele>172.28</ele><time>2026-08-16T10:38:15Z</time></trkpt><trkpt lat="59.3166049384" lon="34.7039222717"><ele>172.18</ele><time>2026-08-16T10:38:28Z</time></trkpt><trkpt lat="59.3164966442" lon="34.7040738165"><ele>172.09</ele><time>2026-08-16T10:38:46Z</time></trkpt><trkpt lat="59.3164104782" lon="34.7042303905"><ele>170.91</ele><time>2026-08-16T10:38:56Z</time></trkpt><trkpt lat="59.3164038565" lon="34.7042437177"><ele>172.97</ele><time>2026-08-16T10:38:58Z</time></trkpt><trkpt lat="59.3163739331" lon="34.7044039797"><ele>172.62</ele><time>2026-08-16T10:39:10Z</time></trkpt><trkpt lat="59.3163500447" lon="34.7044846974"><ele>173.87</ele><time>2026-08-16T10:39:22Z</time></trkpt><trkpt lat="59.3162997533" lon="34.7046418581"><ele>175.59</ele><time>2026-08-16T10:39:39Z</time></trkpt><trkpt lat="59.3162969872" lon="34.7046451271"><ele>174.95</ele><time>2026-08-16T10:39:40Z</time></trkpt><trkpt lat="59.3162737694" lon="34.7047272697"><ele>174.07</ele><time>2026-08-16T10:40:05Z</time></trkpt><trkpt lat="59.3162411638" lon="34.7048375756"><ele>174.47</ele><time>2026-08-16T10:40:18Z</time></trkpt><trkpt lat="59.3161757849" lon="34.7050301079"><ele>174.40</ele><time>2026-08-16T10:40:37Z</time></trkpt><trkpt lat="59.3161296844" lon="34.7051027790"><ele>174.56</ele><time>2026-08-16T10:41:05Z</time></trkpt><trkpt lat="59.3161268346" lon="34.7051017731"><ele>172.40</ele><time>2026-08-16T10:41:07Z</time></trkpt><trkpt lat="59.3161300197" lon="34.7051221412"><ele>174.70</ele><time>2026-08-16T10:41:26Z</time></trkpt><trkpt lat="59.3161269184" lon="34.7051417548"><ele>175.00</ele><time>2026-08-16T10:42:03Z</time></trkpt><trkpt lat="59.3161247391" lon="34.7052571736"><ele>175.17</ele><time>2026-08-16T10:42:18Z</time></trkpt><trkpt lat="59.3161224760" lon="34.7054392286"><ele>174.59</ele><time>2026-08-16T10:42:33Z</time></trkpt><trkpt lat="59.3161118310" lon="34.7055637836"><ele>174.47</ele><time>2026-08-16T10:42:46Z</time></trkpt><trkpt lat="59.3161120825" lon="34.7056756821"><ele>174.05</ele><time>2026-08-16T10:43:01Z</time></trkpt><trkpt lat="59.3160935584" lon="34.7057436593"><ele>175.08</ele><time>2026-08-16T10:43:17Z</time></trkpt><trkpt lat="59.3159895390" lon="34.7059954517"><ele>172.36</ele><time>2026-08-16T10:43:39Z</time></trkpt><trkpt lat="59.3159249984" lon="34.7060417198"><ele>172.16</ele><time>2026-08-16T10:43:53Z</time></trkpt><trkpt lat="59.3158781435" lon="34.7061452363"><ele>171.67</ele><time>2026-08-16T10:44:12Z</time></trkpt><trkpt lat="59.3158585299" lon="34.7062172368"><ele>171.55</ele><time>2026-08-16T10:44:28Z</time></trkpt><trkpt lat="59.3158318754" lon="34.7062644269"><ele>171.25</ele><time>2026-08-16T10:44:33Z</time></trkpt><trkpt lat="59.3158679176" lon="34.7064422909"><ele>170.74</ele><time>2026-08-16T10:44:47Z</time></trkpt><trkpt lat="59.3157357350" lon="34.7067641560"><ele>171.12</ele><time>2026-08-16T10:45:05Z</time></trkpt><trkpt lat="59.3157697655" lon="34.7067862842"><ele>170.92</ele><time>2026-08-16T10:45:19Z</time></trkpt><trkpt lat="59.3157685921" lon="34.7068029642"><ele>160.04</ele><time>2026-08-16T10:45:27Z</time></trkpt><trkpt lat="59.3157741241" lon="34.7068029642"><ele>160.04</ele><time>2026-08-16T10:45:28Z</time></trkpt><trkpt lat="59.3157854397" lon="34.7067846917"><ele>171.04</ele><time>2026-08-16T10:45:40Z</time></trkpt><trkpt lat="59.3157838471" lon="34.7067811713"><ele>170.88</ele><time>2026-08-16T10:45:41Z</time></trkpt><trkpt lat="59.3157520797" lon="34.7067889664"><ele>170.54</ele><time>2026-08-16T10:46:02Z</time></trkpt><trkpt lat="59.3157559354" lon="34.7067771479"><ele>170.55</ele><time>2026-08-16T10:46:14Z</time></trkpt><trkpt lat="59.3157959171" lon="34.7068026289"><ele>170.47</ele><time>2026-08-16T10:46:34Z</time></trkpt><trkpt lat="59.3158002757" lon="34.7068807483"><ele>170.51</ele><time>2026-08-16T10:46:56Z</time></trkpt><trkpt lat="59.3158311211" lon="34.7071310319"><ele>171.12</ele><time>2026-08-16T10:47:12Z</time></trkpt><trkpt lat="59.3157931510" lon="34.7073407471"><ele>171.35</ele><time>2026-08-16T10:47:24Z</time></trkpt><trkpt lat="59.3158694264" lon="34.7075223830"><ele>172.01</ele><time>2026-08-16T10:47:40Z</time></trkpt><trkpt lat="59.3159842584" lon="34.7076992411"><ele>173.12</ele><time>2026-08-16T10:47:53Z</time></trkpt><trkpt lat="59.3160214741" lon="34.7077988181"><ele>172.82</ele><time>2026-08-16T10:48:08Z</time></trkpt><trkpt lat="59.3160032853" lon="34.7078770213"><ele>173.04</ele><time>2026-08-16T10:48:29Z</time></trkpt><trkpt lat="59.3160069734" lon="34.7081172466"><ele>173.21</ele><time>2026-08-16T10:48:51Z</time></trkpt><trkpt lat="59.3159739487" lon="34.7081435658"><ele>173.09</ele><time>2026-08-16T10:49:16Z</time></trkpt><trkpt lat="59.3159792293" lon="34.7081737407"><ele>171.81</ele><time>2026-08-16T10:49:41Z</time></trkpt><trkpt lat="59.3159737810" lon="34.7081775963"><ele>171.52</ele><time>2026-08-16T10:50:39Z</time></trkpt><trkpt lat="59.3159687519" lon="34.7081777640"><ele>172.27</ele><time>2026-08-16T10:51:07Z</time></trkpt><trkpt lat="59.3158876989" lon="34.7083156463"><ele>172.75</ele><time>2026-08-16T10:51:20Z</time></trkpt><trkpt lat="59.3158642296" lon="34.7084423807"><ele>172.86</ele><time>2026-08-16T10:51:33Z</time></trkpt><trkpt lat="59.3158519920" lon="34.7085601464"><ele>172.54</ele><time>2026-08-16T10:51:50Z</time></trkpt><trkpt lat="59.3158240803" lon="34.7087517567"><ele>172.17</ele><time>2026-08-16T10:52:07Z</time></trkpt><trkpt lat="59.3157846015" lon="34.7089803312"><ele>173.21</ele><time>2026-08-16T10:52:22Z</time></trkpt><trkpt lat="59.3158027902" lon="34.7091196384"><ele>173.53</ele><time>2026-08-16T10:52:34Z</time></trkpt><trkpt lat="59.3158367369" lon="34.7093138471"><ele>173.91</ele><time>2026-08-16T10:52:50Z</time></trkpt><trkpt lat="59.3157428596" lon="34.7095868457"><ele>174.13</ele><time>2026-08-16T10:53:03Z</time></trkpt><trkpt lat="59.3156919815" lon="34.7097873408"><ele>173.92</ele><time>2026-08-16T10:53:17Z</time></trkpt><trkpt lat="59.3157130200" lon="34.7099520452"><ele>173.65</ele><time>2026-08-16T10:53:34Z</time></trkpt><trkpt lat="59.3157411832" lon="34.7101646103"><ele>173.58</ele><time>2026-08-16T10:53:46Z</time></trkpt><trkpt lat="59.3158119265" lon="34.7102930211"><ele>172.57</ele><time>2026-08-16T10:54:04Z</time></trkpt><trkpt lat="59.3158181291" lon="34.7105308995"><ele>171.42</ele><time>2026-08-16T10:54:20Z</time></trkpt><trkpt lat="59.3158146925" lon="34.7105666902"><ele>173.18</ele><time>2026-08-16T10:54:23Z</time></trkpt><trkpt lat="59.3157786503" lon="34.7106408700"><ele>173.65</ele><time>2026-08-16T10:54:38Z</time></trkpt><trkpt lat="59.3158220686" lon="34.7109331470"><ele>173.59</ele><time>2026-08-16T10:54:55Z</time></trkpt><trkpt lat="59.3157912232" lon="34.7111922316"><ele>173.27</ele><time>2026-08-16T10:55:08Z</time></trkpt><trkpt lat="59.3158109207" lon="34.7114380728"><ele>172.03</ele><time>2026-08-16T10:55:25Z</time></trkpt><trkpt lat="59.3157677539" lon="34.7116139252"><ele>171.46</ele><time>2026-08-16T10:55:40Z</time></trkpt><trkpt lat="59.3156925682" lon="34.7118061222"><ele>170.95</ele><time>2026-08-16T10:55:56Z</time></trkpt><trkpt lat="59.3156465515" lon="34.7120254766"><ele>170.16</ele><time>2026-08-16T10:56:12Z</time></trkpt><trkpt lat="59.3155977689" lon="34.7121314239"><ele>169.05</ele><time>2026-08-16T10:56:27Z</time></trkpt><trkpt lat="59.3155765627" lon="34.7122416459"><ele>170.19</ele><time>2026-08-16T10:56:45Z</time></trkpt><trkpt lat="59.3155614752" lon="34.7123508621"><ele>170.53</ele><time>2026-08-16T10:57:06Z</time></trkpt><trkpt lat="59.3155551888" lon="34.7124081943"><ele>170.37</ele><time>2026-08-16T10:57:26Z</time></trkpt><trkpt lat="59.3156753853" lon="34.7123099584"><ele>170.40</ele><time>2026-08-16T10:57:41Z</time></trkpt><trkpt lat="59.3157118466" lon="34.7122915182"><ele>166.16</ele><time>2026-08-16T10:57:44Z</time></trkpt><trkpt lat="59.3157204799" lon="34.7123027500"><ele>167.60</ele><time>2026-08-16T10:57:45Z</time></trkpt><trkpt lat="59.3157310411" lon="34.7123241238"><ele>169.70</ele><time>2026-08-16T10:57:47Z</time></trkpt><trkpt lat="59.3157566898" lon="34.7123666201"><ele>172.98</ele><time>2026-08-16T10:57:54Z</time></trkpt><trkpt lat="59.3157603778" lon="34.7123592440"><ele>172.82</ele><time>2026-08-16T10:57:55Z</time></trkpt><trkpt lat="59.3157921452" lon="34.7123377863"><ele>169.80</ele><time>2026-08-16T10:57:58Z</time></trkpt><trkpt lat="59.3158306181" lon="34.7122659534"><ele>170.45</ele><time>2026-08-16T10:58:27Z</time></trkpt><trkpt lat="59.3158295285" lon="34.7122923564"><ele>167.13</ele><time>2026-08-16T10:58:29Z</time></trkpt><trkpt lat="59.3158381619" lon="34.7123125568"><ele>170.18</ele><time>2026-08-16T10:58:31Z</time></trkpt><trkpt lat="59.3158472981" lon="34.7123203520"><ele>172.27</ele><time>2026-08-16T10:58:34Z</time></trkpt><trkpt lat="59.3158184644" lon="34.7123382054"><ele>170.33</ele><time>2026-08-16T10:58:50Z</time></trkpt><trkpt lat="59.3158070650" lon="34.7123618424"><ele>170.15</ele><time>2026-08-16T10:59:12Z</time></trkpt><trkpt lat="59.3159291893" lon="34.7124003991"><ele>170.31</ele><time>2026-08-16T10:59:25Z</time></trkpt><trkpt lat="59.3158471305" lon="34.7123286501"><ele>170.38</ele><time>2026-08-16T10:59:45Z</time></trkpt><trkpt lat="59.3158686720" lon="34.7123163287"><ele>170.24</ele><time>2026-08-16T11:00:33Z</time></trkpt><trkpt lat="59.3158624694" lon="34.7123315837"><ele>170.12</ele><time>2026-08-16T11:01:00Z</time></trkpt><trkpt lat="59.3158582784" lon="34.7123293206"><ele>168.69</ele><time>2026-08-16T11:01:03Z</time></trkpt><trkpt lat="59.3158411793" lon="34.7124254610"><ele>169.49</ele><time>2026-08-16T11:01:24Z</time></trkpt><trkpt lat="59.3158271816" lon="34.7124162409"><ele>168.53</ele><time>2026-08-16T11:01:34Z</time></trkpt><trkpt lat="59.3158243317" lon="34.7124147322"><ele>170.33</ele><time>2026-08-16T11:01:41Z</time></trkpt><trkpt lat="59.3158204760" lon="34.7124376986"><ele>168.22</ele><time>2026-08-16T11:01:48Z</time></trkpt><trkpt lat="59.3158338871" lon="34.7124946956"><ele>170.88</ele><time>2026-08-16T11:02:01Z</time></trkpt><trkpt lat="59.3158332165" lon="34.7124876548"><ele>169.21</ele><time>2026-08-16T11:02:04Z</time></trkpt><trkpt lat="59.3157185521" lon="34.7122125607"><ele>169.64</ele><time>2026-08-16T11:02:29Z</time></trkpt><trkpt lat="59.3157740403" lon="34.7125953622"><ele>169.41</ele><time>2026-08-16T11:02:58Z</time></trkpt><trkpt lat="59.3158561829" lon="34.7127658501"><ele>169.73</ele><time>2026-08-16T11:03:17Z</time></trkpt><trkpt lat="59.3158207275" lon="34.7125604935"><ele>169.88</ele><time>2026-08-16T11:03:50Z</time></trkpt><trkpt lat="59.3158014491" lon="34.7125657741"><ele>170.39</ele><time>2026-08-16T11:04:29Z</time></trkpt><trkpt lat="59.3158247508" lon="34.7125144769"><ele>170.52</ele><time>2026-08-16T11:04:53Z</time></trkpt><trkpt lat="59.3157954980" lon="34.7124992218"><ele>170.60</ele><time>2026-08-16T11:05:11Z</time></trkpt><trkpt lat="59.3157834280" lon="34.7125190869"><ele>169.48</ele><time>2026-08-16T11:05:23Z</time></trkpt><trkpt lat="59.3157819193" lon="34.7125158180"><ele>173.41</ele><time>2026-08-16T11:05:26Z</time></trkpt><trkpt lat="59.3157828413" lon="34.7125162371"><ele>171.70</ele><time>2026-08-16T11:05:27Z</time></trkpt><trkpt lat="59.3158117589" lon="34.7125328332"><ele>170.85</ele><time>2026-08-16T11:05:42Z</time></trkpt><trkpt lat="59.3157973420" lon="34.7125238646"><ele>170.70</ele><time>2026-08-16T11:06:01Z</time></trkpt><trkpt lat="59.3157781474" lon="34.7125066817"><ele>172.43</ele><time>2026-08-16T11:06:14Z</time></trkpt><trkpt lat="59.3157660775" lon="34.7124467511"><ele>164.36</ele><time>2026-08-16T11:06:25Z</time></trkpt><trkpt lat="59.3157729506" lon="34.7124346811"><ele>174.19</ele><time>2026-08-16T11:06:26Z</time></trkpt><trkpt lat="59.3157793209" lon="34.7124122176"><ele>174.23</ele><time>2026-08-16T11:06:27Z</time></trkpt><trkpt lat="59.3158074841" lon="34.7123389598"><ele>172.34</ele><time>2026-08-16T11:06:30Z</time></trkpt><trkpt lat="59.3158289418" lon="34.7121620178"><ele>172.09</ele><time>2026-08-16T11:07:07Z</time></trkpt><trkpt lat="59.3158124294" lon="34.7121752612"><ele>169.03</ele><time>2026-08-16T11:07:13Z</time></trkpt><trkpt lat="59.3158107530" lon="34.7121795360"><ele>172.58</ele><time>2026-08-16T11:07:14Z</time></trkpt><trkpt lat="59.3158058915" lon="34.7122000717"><ele>173.41</ele><time>2026-08-16T11:07:16Z</time></trkpt><trkpt lat="59.3157297838" lon="34.7123500239"><ele>172.13</ele><time>2026-08-16T11:07:39Z</time></trkpt><trkpt lat="59.3157296162" lon="34.7122891713"><ele>172.32</ele><time>2026-08-16T11:07:57Z</time></trkpt><trkpt lat="59.3158094957" lon="34.7123032529"><ele>172.38</ele><time>2026-08-16T11:08:25Z</time></trkpt><trkpt lat="59.3159213103" lon="34.7123383731"><ele>171.93</ele><time>2026-08-16T11:08:53Z</time></trkpt><trkpt lat="59.3159928918" lon="34.7122275643"><ele>171.89</ele><time>2026-08-16T11:09:11Z</time></trkpt><trkpt lat="59.3160237372" lon="34.7121199407"><ele>172.11</ele><time>2026-08-16T11:09:29Z</time></trkpt><trkpt lat="59.3160857633" lon="34.7120141611"><ele>172.01</ele><time>2026-08-16T11:09:43Z</time></trkpt><trkpt lat="59.3161398266" lon="34.7118158452"><ele>172.22</ele><time>2026-08-16T11:09:58Z</time></trkpt><trkpt lat="59.3161675707" lon="34.7116504703"><ele>171.83</ele><time>2026-08-16T11:10:13Z</time></trkpt><trkpt lat="59.3161518965" lon="34.7115155216"><ele>171.40</ele><time>2026-08-16T11:10:33Z</time></trkpt><trkpt lat="59.3161420897" lon="34.7114374861"><ele>171.60</ele><time>2026-08-16T11:10:47Z</time></trkpt><trkpt lat="59.3161671516" lon="34.7113095783"><ele>171.59</ele><time>2026-08-16T11:11:04Z</time></trkpt><trkpt lat="59.3162306026" lon="34.7112800740"><ele>171.62</ele><time>2026-08-16T11:11:18Z</time></trkpt><trkpt lat="59.3162764516" lon="34.7111657448"><ele>171.38</ele><time>2026-08-16T11:11:31Z</time></trkpt><trkpt lat="59.3163197860" lon="34.7110805847"><ele>171.59</ele><time>2026-08-16T11:11:45Z</time></trkpt><trkpt lat="59.3163668923" lon="34.7110218275"><ele>171.42</ele><time>2026-08-16T11:12:01Z</time></trkpt><trkpt lat="59.3163686525" lon="34.7109831870"><ele>171.68</ele><time>2026-08-16T11:12:22Z</time></trkpt><trkpt lat="59.3163555767" lon="34.7109084204"><ele>171.41</ele><time>2026-08-16T11:12:36Z</time></trkpt><trkpt lat="59.3163405731" lon="34.7107053269"><ele>171.60</ele><time>2026-08-16T11:12:54Z</time></trkpt><trkpt lat="59.3163913675" lon="34.7105532791"><ele>171.69</ele><time>2026-08-16T11:13:09Z</time></trkpt><trkpt lat="59.3164474424" lon="34.7104784288"><ele>171.35</ele><time>2026-08-16T11:13:27Z</time></trkpt><trkpt lat="59.3164995778" lon="34.7104148939"><ele>171.68</ele><time>2026-08-16T11:13:41Z</time></trkpt><trkpt lat="59.3165295850" lon="34.7102832980"><ele>172.15</ele><time>2026-08-16T11:14:01Z</time></trkpt><trkpt lat="59.3166493624" lon="34.7101186775"><ele>172.57</ele><time>2026-08-16T11:14:18Z</time></trkpt><trkpt lat="59.3167442456" lon="34.7098918632"><ele>172.79</ele><time>2026-08-16T11:14:32Z</time></trkpt><trkpt lat="59.3168562278" lon="34.7097773664"><ele>171.78</ele><time>2026-08-16T11:14:45Z</time></trkpt><trkpt lat="59.3169585709" lon="34.7095218021"><ele>170.85</ele><time>2026-08-16T11:15:04Z</time></trkpt><trkpt lat="59.3170700502" lon="34.7093916312"><ele>170.78</ele><time>2026-08-16T11:15:20Z</time></trkpt><trkpt lat="59.3171670288" lon="34.7092333809"><ele>170.95</ele><time>2026-08-16T11:15:33Z</time></trkpt><trkpt lat="59.3172061723" lon="34.7091193870"><ele>171.12</ele><time>2026-08-16T11:15:47Z</time></trkpt><trkpt lat="59.3172312342" lon="34.7089899704"><ele>170.70</ele><time>2026-08-16T11:16:03Z</time></trkpt><trkpt lat="59.3172552064" lon="34.7087619826"><ele>170.74</ele><time>2026-08-16T11:16:25Z</time></trkpt><trkpt lat="59.3173951842" lon="34.7084844578"><ele>170.80</ele><time>2026-08-16T11:16:39Z</time></trkpt><trkpt lat="59.3174432963" lon="34.7083551250"><ele>170.72</ele><time>2026-08-16T11:16:50Z</time></trkpt><trkpt lat="59.3175314739" lon="34.7081732377"><ele>171.29</ele><time>2026-08-16T11:17:07Z</time></trkpt><trkpt lat="59.3175531831" lon="34.7080076952"><ele>171.16</ele><time>2026-08-16T11:17:23Z</time></trkpt><trkpt lat="59.3175347429" lon="34.7079918534"><ele>171.10</ele><time>2026-08-16T11:17:59Z</time></trkpt><trkpt lat="59.3174778298" lon="34.7079387121"><ele>171.13</ele><time>2026-08-16T11:18:13Z</time></trkpt><trkpt lat="59.3174234312" lon="34.7077677213"><ele>171.71</ele><time>2026-08-16T11:18:25Z</time></trkpt><trkpt lat="59.3173697870" lon="34.7075546533"><ele>171.87</ele><time>2026-08-16T11:18:39Z</time></trkpt><trkpt lat="59.3172984570" lon="34.7075147554"><ele>171.78</ele><time>2026-08-16T11:18:52Z</time></trkpt><trkpt lat="59.3173285481" lon="34.7075030208"><ele>171.45</ele><time>2026-08-16T11:19:38Z</time></trkpt><trkpt lat="59.3172944337" lon="34.7074726783"><ele>171.27</ele><time>2026-08-16T11:20:16Z</time></trkpt><trkpt lat="59.3172750715" lon="34.7074450180"><ele>170.95</ele><time>2026-08-16T11:20:45Z</time></trkpt><trkpt lat="59.3173245247" lon="34.7074178606"><ele>170.80</ele><time>2026-08-16T11:21:01Z</time></trkpt><trkpt lat="59.3173467368" lon="34.7074013483"><ele>170.67</ele><time>2026-08-16T11:21:18Z</time></trkpt><trkpt lat="59.3173946813" lon="34.7073741909"><ele>170.58</ele><time>2026-08-16T11:21:36Z</time></trkpt><trkpt lat="59.3174564559" lon="34.7072733566"><ele>170.45</ele><time>2026-08-16T11:21:57Z</time></trkpt><trkpt lat="59.3176012952" lon="34.7072620410"><ele>169.95</ele><time>2026-08-16T11:22:15Z</time></trkpt><trkpt lat="59.3177325558" lon="34.7073901165"><ele>169.59</ele><time>2026-08-16T11:22:37Z</time></trkpt><trkpt lat="59.3178559374" lon="34.7073102370"><ele>169.08</ele><time>2026-08-16T11:22:52Z</time></trkpt><trkpt lat="59.3179734517" lon="34.7074710857"><ele>168.35</ele><time>2026-08-16T11:23:14Z</time></trkpt><trkpt lat="59.3180797342" lon="34.7075278312"><ele>167.99</ele><time>2026-08-16T11:23:28Z</time></trkpt><trkpt lat="59.3181388266" lon="34.7076606844"><ele>167.97</ele><time>2026-08-16T11:24:17Z</time></trkpt><trkpt lat="59.3181526568" lon="34.7076074593"><ele>167.46</ele><time>2026-08-16T11:24:37Z</time></trkpt><trkpt lat="59.3181646429" lon="34.7075917851"><ele>168.25</ele><time>2026-08-16T11:25:32Z</time></trkpt><trkpt lat="59.3181757908" lon="34.7076144163"><ele>168.37</ele><time>2026-08-16T11:26:09Z</time></trkpt><trkpt lat="59.3181430176" lon="34.7075272445"><ele>168.24</ele><time>2026-08-16T11:26:34Z</time></trkpt><trkpt lat="59.3181686662" lon="34.7075371351"><ele>168.22</ele><time>2026-08-16T11:27:23Z</time></trkpt><trkpt lat="59.3182440195" lon="34.7073081415"><ele>168.95</ele><time>2026-08-16T11:27:44Z</time></trkpt><trkpt lat="59.3183110747" lon="34.7073159367"><ele>168.72</ele><time>2026-08-16T11:28:12Z</time></trkpt><trkpt lat="59.3183026928" lon="34.7071287688"><ele>169.17</ele><time>2026-08-16T11:28:41Z</time></trkpt><trkpt lat="59.3182885274" lon="34.7070160322"><ele>169.73</ele><time>2026-08-16T11:28:54Z</time></trkpt><trkpt lat="59.3183781300" lon="34.7069084924"><ele>170.11</ele><time>2026-08-16T11:29:10Z</time></trkpt><trkpt lat="59.3183906190" lon="34.7067760583"><ele>170.67</ele><time>2026-08-16T11:29:22Z</time></trkpt><trkpt lat="59.3183977436" lon="34.7066548560"><ele>171.05</ele><time>2026-08-16T11:29:38Z</time></trkpt><trkpt lat="59.3184043653" lon="34.7064923309"><ele>171.02</ele><time>2026-08-16T11:29:52Z</time></trkpt><trkpt lat="59.3184107356" lon="34.7063038219"><ele>171.31</ele><time>2026-08-16T11:30:05Z</time></trkpt><trkpt lat="59.3184174411" lon="34.7061210964"><ele>171.43</ele><time>2026-08-16T11:30:17Z</time></trkpt><trkpt lat="59.3184790481" lon="34.7059216909"><ele>171.28</ele><time>2026-08-16T11:30:30Z</time></trkpt><trkpt lat="59.3184729293" lon="34.7057468444"><ele>171.56</ele><time>2026-08-16T11:30:42Z</time></trkpt><trkpt lat="59.3184501305" lon="34.7055187728"><ele>171.40</ele><time>2026-08-16T11:30:59Z</time></trkpt><trkpt lat="59.3184323609" lon="34.7054745164"><ele>171.54</ele><time>2026-08-16T11:31:17Z</time></trkpt><trkpt lat="59.3184206262" lon="34.7054583393"><ele>171.21</ele><time>2026-08-16T11:31:50Z</time></trkpt><trkpt lat="59.3184228893" lon="34.7054458503"><ele>171.14</ele><time>2026-08-16T11:32:14Z</time></trkpt><trkpt lat="59.3184212968" lon="34.7054623626"><ele>170.17</ele><time>2026-08-16T11:32:26Z</time></trkpt><trkpt lat="59.3184212968" lon="34.7054580878"><ele>162.60</ele><time>2026-08-16T11:32:27Z</time></trkpt><trkpt lat="59.3184220511" lon="34.7054577526"><ele>162.60</ele><time>2026-08-16T11:32:28Z</time></trkpt><trkpt lat="59.3184496276" lon="34.7054642905"><ele>171.37</ele><time>2026-08-16T11:32:49Z</time></trkpt><trkpt lat="59.3184459396" lon="34.7054627817"><ele>171.38</ele><time>2026-08-16T11:32:50Z</time></trkpt><trkpt lat="59.3184442632" lon="34.7054932918"><ele>170.62</ele><time>2026-08-16T11:33:11Z</time></trkpt><trkpt lat="59.3184421677" lon="34.7053807229"><ele>171.38</ele><time>2026-08-16T11:33:35Z</time></trkpt><trkpt lat="59.3184512202" lon="34.7052121628"><ele>171.20</ele><time>2026-08-16T11:33:50Z</time></trkpt><trkpt lat="59.3184088077" lon="34.7051283438"><ele>171.37</ele><time>2026-08-16T11:34:05Z</time></trkpt><trkpt lat="59.3184245657" lon="34.7050016932"><ele>170.99</ele><time>2026-08-16T11:34:21Z</time></trkpt><trkpt lat="59.3184463587" lon="34.7049030382"><ele>171.01</ele><time>2026-08-16T11:34:30Z</time></trkpt><trkpt lat="59.3185558263" lon="34.7048477177"><ele>170.74</ele><time>2026-08-16T11:34:43Z</time></trkpt><trkpt lat="59.3186049443" lon="34.7046456300"><ele>170.73</ele><time>2026-08-16T11:34:57Z</time></trkpt><trkpt lat="59.3186312634" lon="34.7044659220"><ele>170.60</ele><time>2026-08-16T11:35:10Z</time></trkpt><trkpt lat="59.3186993245" lon="34.7042640857"><ele>170.48</ele><time>2026-08-16T11:35:25Z</time></trkpt><trkpt lat="59.3187090475" lon="34.7041124571"><ele>170.44</ele><time>2026-08-16T11:35:38Z</time></trkpt><trkpt lat="59.3187313434" lon="34.7039679531"><ele>170.23</ele><time>2026-08-16T11:35:50Z</time></trkpt><trkpt lat="59.3188151624" lon="34.7037541308"><ele>170.63</ele><time>2026-08-16T11:36:05Z</time></trkpt><trkpt lat="59.3188510370" lon="34.7035667952"><ele>170.28</ele><time>2026-08-16T11:36:19Z</time></trkpt><trkpt lat="59.3188249692" lon="34.7033362091"><ele>169.83</ele><time>2026-08-16T11:36:33Z</time></trkpt><trkpt lat="59.3188457564" lon="34.7032033559"><ele>169.92</ele><time>2026-08-16T11:36:55Z</time></trkpt><trkpt lat="59.3188645318" lon="34.7032820620"><ele>169.83</ele><time>2026-08-16T11:37:45Z</time></trkpt><trkpt lat="59.3188250531" lon="34.7031682357"><ele>170.12</ele><time>2026-08-16T11:38:02Z</time></trkpt><trkpt lat="59.3188123964" lon="34.7030033637"><ele>170.45</ele><time>2026-08-16T11:38:13Z</time></trkpt><trkpt lat="59.3188608438" lon="34.7028312832"><ele>170.49</ele><time>2026-08-16T11:38:27Z</time></trkpt><trkpt lat="59.3188849837" lon="34.7026481386"><ele>170.82</ele><time>2026-08-16T11:38:39Z</time></trkpt><trkpt lat="59.3189399689" lon="34.7024711967"><ele>170.59</ele><time>2026-08-16T11:38:52Z</time></trkpt><trkpt lat="59.3189283181" lon="34.7022561170"><ele>170.89</ele><time>2026-08-16T11:39:08Z</time></trkpt><trkpt lat="59.3189503625" lon="34.7021150496"><ele>170.64</ele><time>2026-08-16T11:39:15Z</time></trkpt><trkpt lat="59.3190420605" lon="34.7019207571"><ele>171.29</ele><time>2026-08-16T11:39:30Z</time></trkpt><trkpt lat="59.3190443236" lon="34.7017749958"><ele>171.19</ele><time>2026-08-16T11:39:44Z</time></trkpt><trkpt lat="59.3190468382" lon="34.7015875764"><ele>171.21</ele><time>2026-08-16T11:39:57Z</time></trkpt><trkpt lat="59.3190201838" lon="34.7014868259"><ele>171.29</ele><time>2026-08-16T11:40:11Z</time></trkpt><trkpt lat="59.3190585729" lon="34.7014109697"><ele>171.16</ele><time>2026-08-16T11:40:25Z</time></trkpt><trkpt lat="59.3190998118" lon="34.7012590058"><ele>171.27</ele><time>2026-08-16T11:40:41Z</time></trkpt><trkpt lat="59.3191438168" lon="34.7011000849"><ele>172.37</ele><time>2026-08-16T11:41:03Z</time></trkpt><trkpt lat="59.3192241993" lon="34.7009428404"><ele>172.42</ele><time>2026-08-16T11:41:15Z</time></trkpt><trkpt lat="59.3192619178" lon="34.7009314410"><ele>172.55</ele><time>2026-08-16T11:41:36Z</time></trkpt><trkpt lat="59.3193369359" lon="34.7009417508"><ele>172.00</ele><time>2026-08-16T11:41:55Z</time></trkpt><trkpt lat="59.3193226866" lon="34.7009070497"><ele>172.50</ele><time>2026-08-16T11:42:22Z</time></trkpt><trkpt lat="59.3192596547" lon="34.7009513900"><ele>172.77</ele><time>2026-08-16T11:42:54Z</time></trkpt><trkpt lat="59.3193186633" lon="34.7008856758"><ele>172.35</ele><time>2026-08-16T11:43:43Z</time></trkpt><trkpt lat="59.3193814438" lon="34.7006921377"><ele>172.95</ele><time>2026-08-16T11:43:58Z</time></trkpt><trkpt lat="59.3194097746" lon="34.7004574444"><ele>172.43</ele><time>2026-08-16T11:44:13Z</time></trkpt><trkpt lat="59.3193901610" lon="34.7002987750"><ele>171.53</ele><time>2026-08-16T11:44:28Z</time></trkpt><trkpt lat="59.3193749897" lon="34.7000900656"><ele>170.39</ele><time>2026-08-16T11:44:45Z</time></trkpt><trkpt lat="59.3193230219" lon="34.6998775844"><ele>170.53</ele><time>2026-08-16T11:45:01Z</time></trkpt><trkpt lat="59.3192910869" lon="34.6996839624"><ele>169.66</ele><time>2026-08-16T11:45:14Z</time></trkpt><trkpt lat="59.3192666117" lon="34.6995208506"><ele>169.09</ele><time>2026-08-16T11:45:27Z</time></trkpt><trkpt lat="59.3193041626" lon="34.6993853990"><ele>168.53</ele><time>2026-08-16T11:45:42Z</time></trkpt><trkpt lat="59.3193297274" lon="34.6992442477"><ele>167.71</ele><time>2026-08-16T11:46:00Z</time></trkpt><trkpt lat="59.3193651829" lon="34.6990815550"><ele>167.84</ele><time>2026-08-16T11:46:14Z</time></trkpt><trkpt lat="59.3194001354" lon="34.6989971492"><ele>168.51</ele><time>2026-08-16T11:46:27Z</time></trkpt><trkpt lat="59.3194596469" lon="34.6988261584"><ele>169.31</ele><time>2026-08-16T11:46:44Z</time></trkpt><trkpt lat="59.3195235170" lon="34.6987120807"><ele>169.48</ele><time>2026-08-16T11:46:57Z</time></trkpt><trkpt lat="59.3195757363" lon="34.6985682473"><ele>167.58</ele><time>2026-08-16T11:47:13Z</time></trkpt><trkpt lat="59.3195746467" lon="34.6985391621"><ele>170.06</ele><time>2026-08-16T11:47:37Z</time></trkpt><trkpt lat="59.3195920810" lon="34.6985175367"><ele>170.72</ele><time>2026-08-16T11:48:16Z</time></trkpt><trkpt lat="59.3196124490" lon="34.6983730327"><ele>172.18</ele><time>2026-08-16T11:48:33Z</time></trkpt><trkpt lat="59.3196308892" lon="34.6983300336"><ele>172.15</ele><time>2026-08-16T11:48:35Z</time></trkpt><trkpt lat="59.3197242636" lon="34.6980948374"><ele>172.74</ele><time>2026-08-16T11:48:48Z</time></trkpt><trkpt lat="59.3197968509" lon="34.6979273669"><ele>171.91</ele><time>2026-08-16T11:49:00Z</time></trkpt><trkpt lat="59.3198245950" lon="34.6977322362"><ele>171.64</ele><time>2026-08-16T11:49:15Z</time></trkpt><trkpt lat="59.3197924923" lon="34.6975471638"><ele>170.98</ele><time>2026-08-16T11:49:30Z</time></trkpt><trkpt lat="59.3198072445" lon="34.6974103712"><ele>170.61</ele><time>2026-08-16T11:49:40Z</time></trkpt><trkpt lat="59.3198480643" lon="34.6971810423"><ele>170.29</ele><time>2026-08-16T11:49:54Z</time></trkpt><trkpt lat="59.3198679294" lon="34.6970064472"><ele>170.87</ele><time>2026-08-16T11:50:09Z</time></trkpt><trkpt lat="59.3198589608" lon="34.6968921181"><ele>171.69</ele><time>2026-08-16T11:50:27Z</time></trkpt><trkpt lat="59.3199091684" lon="34.6966927964"><ele>172.97</ele><time>2026-08-16T11:50:40Z</time></trkpt><trkpt lat="59.3199278601" lon="34.6965821553"><ele>173.61</ele><time>2026-08-16T11:50:53Z</time></trkpt><trkpt lat="59.3199658301" lon="34.6964318678"><ele>174.01</ele><time>2026-08-16T11:51:08Z</time></trkpt><trkpt lat="59.3199675903" lon="34.6964071412"><ele>169.95</ele><time>2026-08-16T11:51:30Z</time></trkpt><trkpt lat="59.3199679255" lon="34.6964062192"><ele>175.95</ele><time>2026-08-16T11:51:32Z</time></trkpt><trkpt lat="59.3199665844" lon="34.6964183729"><ele>174.37</ele><time>2026-08-16T11:51:36Z</time></trkpt><trkpt lat="59.3199551851" lon="34.6964313649"><ele>175.20</ele><time>2026-08-16T11:51:43Z</time></trkpt><trkpt lat="59.3199503236" lon="34.6964154392"><ele>174.22</ele><time>2026-08-16T11:51:45Z</time></trkpt><trkpt lat="59.3199937418" lon="34.6962808259"><ele>173.82</ele><time>2026-08-16T11:52:06Z</time></trkpt><trkpt lat="59.3200103380" lon="34.6961656585"><ele>174.08</ele><time>2026-08-16T11:52:17Z</time></trkpt><trkpt lat="59.3200094998" lon="34.6960968431"><ele>173.71</ele><time>2026-08-16T11:52:39Z</time></trkpt><trkpt lat="59.3200342264" lon="34.6959745511"><ele>173.49</ele><time>2026-08-16T11:52:55Z</time></trkpt><trkpt lat="59.3200974260" lon="34.6957775764"><ele>173.29</ele><time>2026-08-16T11:53:10Z</time></trkpt><trkpt lat="59.3201514054" lon="34.6956542786"><ele>172.91</ele><time>2026-08-16T11:53:21Z</time></trkpt><trkpt lat="59.3201793171" lon="34.6955036558"><ele>172.43</ele><time>2026-08-16T11:53:35Z</time></trkpt><trkpt lat="59.3202017806" lon="34.6953717247"><ele>172.42</ele><time>2026-08-16T11:53:49Z</time></trkpt><trkpt lat="59.3201755453" lon="34.6952462476"><ele>171.78</ele><time>2026-08-16T11:53:59Z</time></trkpt><trkpt lat="59.3201802392" lon="34.6951601654"><ele>170.82</ele><time>2026-08-16T11:54:14Z</time></trkpt><trkpt lat="59.3202195503" lon="34.6950632706"><ele>170.63</ele><time>2026-08-16T11:54:28Z</time></trkpt><trkpt lat="59.3202446122" lon="34.6948653739"><ele>169.65</ele><time>2026-08-16T11:54:39Z</time></trkpt><trkpt lat="59.3202353921" lon="34.6947166789"><ele>169.14</ele><time>2026-08-16T11:54:53Z</time></trkpt><trkpt lat="59.3202488869" lon="34.6945595182"><ele>169.25</ele><time>2026-08-16T11:55:05Z</time></trkpt><trkpt lat="59.3202862702" lon="34.6944764536"><ele>169.04</ele><time>2026-08-16T11:55:20Z</time></trkpt><trkpt lat="59.3203261681" lon="34.6943798941"><ele>169.18</ele><time>2026-08-16T11:55:34Z</time></trkpt><trkpt lat="59.3203872722" lon="34.6942698397"><ele>169.59</ele><time>2026-08-16T11:55:48Z</time></trkpt><trkpt lat="59.3203988392" lon="34.6940986812"><ele>169.47</ele><time>2026-08-16T11:56:00Z</time></trkpt><trkpt lat="59.3204102386" lon="34.6940110065"><ele>169.41</ele><time>2026-08-16T11:56:14Z</time></trkpt><trkpt lat="59.3204564229" lon="34.6938583720"><ele>168.97</ele><time>2026-08-16T11:56:33Z</time></trkpt><trkpt lat="59.3204321992" lon="34.6937455516"><ele>168.97</ele><time>2026-08-16T11:56:45Z</time></trkpt><trkpt lat="59.3204157706" lon="34.6935754828"><ele>168.91</ele><time>2026-08-16T11:57:03Z</time></trkpt><trkpt lat="59.3204197939" lon="34.6935259458"><ele>169.60</ele><time>2026-08-16T11:57:40Z</time></trkpt><trkpt lat="59.3204415869" lon="34.6935232636"><ele>168.50</ele><time>2026-08-16T11:57:59Z</time></trkpt><trkpt lat="59.3204190396" lon="34.6933608223"><ele>169.01</ele><time>2026-08-16T11:58:26Z</time></trkpt><trkpt lat="59.3204135913" lon="34.6932330821"><ele>169.06</ele><time>2026-08-16T11:58:39Z</time></trkpt><trkpt lat="59.3204348814" lon="34.6931188367"><ele>169.04</ele><time>2026-08-16T11:58:54Z</time></trkpt><trkpt lat="59.3204250745" lon="34.6928355284"><ele>168.65</ele><time>2026-08-16T11:59:09Z</time></trkpt><trkpt lat="59.3204487953" lon="34.6926316805"><ele>169.22</ele><time>2026-08-16T11:59:20Z</time></trkpt><trkpt lat="59.3204704206" lon="34.6924732625"><ele>169.53</ele><time>2026-08-16T11:59:33Z</time></trkpt><trkpt lat="59.3204635475" lon="34.6923639625"><ele>170.14</ele><time>2026-08-16T11:59:46Z</time></trkpt><trkpt lat="59.3205134198" lon="34.6917827614"><ele>169.49</ele><time>2026-08-16T12:00:24Z</time></trkpt><trkpt lat="59.3206045311" lon="34.6915905643"><ele>169.21</ele><time>2026-08-16T12:00:37Z</time></trkpt><trkpt lat="59.3206874281" lon="34.6914359182"><ele>169.14</ele><time>2026-08-16T12:00:52Z</time></trkpt><trkpt lat="59.3207115680" lon="34.6913425438"><ele>168.63</ele><time>2026-08-16T12:01:06Z</time></trkpt><trkpt lat="59.3207217939" lon="34.6912967786"><ele>167.92</ele><time>2026-08-16T12:01:39Z</time></trkpt><trkpt lat="59.3207384739" lon="34.6912196651"><ele>168.53</ele><time>2026-08-16T12:02:13Z</time></trkpt><trkpt lat="59.3207667209" lon="34.6910834592"><ele>168.09</ele><time>2026-08-16T12:02:28Z</time></trkpt><trkpt lat="59.3208069541" lon="34.6909111273"><ele>167.77</ele><time>2026-08-16T12:02:43Z</time></trkpt><trkpt lat="59.3208192755" lon="34.6908695530"><ele>167.69</ele><time>2026-08-16T12:02:46Z</time></trkpt><trkpt lat="59.3208918627" lon="34.6907412261"><ele>167.47</ele><time>2026-08-16T12:03:01Z</time></trkpt><trkpt lat="59.3208968919" lon="34.6907599177"><ele>167.86</ele><time>2026-08-16T12:03:25Z</time></trkpt><trkpt lat="59.3209845666" lon="34.6903903596"><ele>167.17</ele><time>2026-08-16T12:03:48Z</time></trkpt><trkpt lat="59.3209571578" lon="34.6901799738"><ele>166.18</ele><time>2026-08-16T12:04:03Z</time></trkpt><trkpt lat="59.3209486920" lon="34.6900487971"><ele>164.99</ele><time>2026-08-16T12:04:23Z</time></trkpt><trkpt lat="59.3209117278" lon="34.6898900438"><ele>165.38</ele><time>2026-08-16T12:04:38Z</time></trkpt><trkpt lat="59.3209346943" lon="34.6897863597"><ele>165.33</ele><time>2026-08-16T12:04:51Z</time></trkpt><trkpt lat="59.3209592532" lon="34.6896331385"><ele>165.52</ele><time>2026-08-16T12:05:05Z</time></trkpt><trkpt lat="59.3209806271" lon="34.6895350702"><ele>165.64</ele><time>2026-08-16T12:05:17Z</time></trkpt><trkpt lat="59.3210455868" lon="34.6893976908"><ele>165.60</ele><time>2026-08-16T12:05:28Z</time></trkpt><trkpt lat="59.3210418988" lon="34.6893004607"><ele>165.34</ele><time>2026-08-16T12:05:36Z</time></trkpt><trkpt lat="59.3210599199" lon="34.6891749837"><ele>165.14</ele><time>2026-08-16T12:05:51Z</time></trkpt><trkpt lat="59.3210007437" lon="34.6889604907"><ele>165.46</ele><time>2026-08-16T12:06:05Z</time></trkpt><trkpt lat="59.3209711555" lon="34.6889039967"><ele>165.59</ele><time>2026-08-16T12:06:14Z</time></trkpt><trkpt lat="59.3209782802" lon="34.6887331735"><ele>165.43</ele><time>2026-08-16T12:06:28Z</time></trkpt><trkpt lat="59.3210034259" lon="34.6885935310"><ele>166.04</ele><time>2026-08-16T12:06:41Z</time></trkpt><trkpt lat="59.3210270628" lon="34.6885262243"><ele>165.70</ele><time>2026-08-16T12:06:58Z</time></trkpt><trkpt lat="59.3210751750" lon="34.6886211913"><ele>165.96</ele><time>2026-08-16T12:07:28Z</time></trkpt><trkpt lat="59.3210671283" lon="34.6884747595"><ele>166.22</ele><time>2026-08-16T12:07:56Z</time></trkpt><trkpt lat="59.3211486842" lon="34.6883352846"><ele>166.73</ele><time>2026-08-16T12:08:11Z</time></trkpt><trkpt lat="59.3212129734" lon="34.6881749388"><ele>166.93</ele><time>2026-08-16T12:08:25Z</time></trkpt><trkpt lat="59.3212385383" lon="34.6880920418"><ele>166.64</ele><time>2026-08-16T12:08:35Z</time></trkpt><trkpt lat="59.3212608341" lon="34.6880647168"><ele>166.65</ele><time>2026-08-16T12:08:38Z</time></trkpt><trkpt lat="59.3212918472" lon="34.6879668999"><ele>166.40</ele><time>2026-08-16T12:08:50Z</time></trkpt><trkpt lat="59.3213284761" lon="34.6877976693"><ele>166.90</ele><time>2026-08-16T12:09:02Z</time></trkpt><trkpt lat="59.3213807791" lon="34.6876788978"><ele>167.09</ele><time>2026-08-16T12:09:13Z</time></trkpt><trkpt lat="59.3213980459" lon="34.6874546818"><ele>167.02</ele><time>2026-08-16T12:09:25Z</time></trkpt><trkpt lat="59.3213977944" lon="34.6873534285"><ele>166.53</ele><time>2026-08-16T12:09:36Z</time></trkpt><trkpt lat="59.3214151450" lon="34.6871587168"><ele>166.04</ele><time>2026-08-16T12:09:48Z</time></trkpt><trkpt lat="59.3214125466" lon="34.6870090999"><ele>165.92</ele><time>2026-08-16T12:09:59Z</time></trkpt><trkpt lat="59.3214396201" lon="34.6869264543"><ele>166.22</ele><time>2026-08-16T12:10:04Z</time></trkpt><trkpt lat="59.3214787636" lon="34.6867040824"><ele>165.75</ele><time>2026-08-16T12:10:17Z</time></trkpt><trkpt lat="59.3215157278" lon="34.6865741629"><ele>165.42</ele><time>2026-08-16T12:10:32Z</time></trkpt><trkpt lat="59.3215664383" lon="34.6864702273"><ele>165.54</ele><time>2026-08-16T12:10:44Z</time></trkpt><trkpt lat="59.3215530273" lon="34.6864944510"><ele>165.86</ele><time>2026-08-16T12:11:17Z</time></trkpt><trkpt lat="59.3215568829" lon="34.6864340175"><ele>165.38</ele><time>2026-08-16T12:11:46Z</time></trkpt><trkpt lat="59.3216078449" lon="34.6864292398"><ele>165.16</ele><time>2026-08-16T12:12:04Z</time></trkpt><trkpt lat="59.3216281291" lon="34.6863832232"><ele>164.91</ele><time>2026-08-16T12:12:16Z</time></trkpt><trkpt lat="59.3216398638" lon="34.6863622684"><ele>165.14</ele><time>2026-08-16T12:12:19Z</time></trkpt><trkpt lat="59.3216434680" lon="34.6861419920"><ele>165.52</ele><time>2026-08-16T12:12:31Z</time></trkpt><trkpt lat="59.3217007164" lon="34.6860295907"><ele>165.64</ele><time>2026-08-16T12:12:43Z</time></trkpt><trkpt lat="59.3216809351" lon="34.6858677361"><ele>165.80</ele><time>2026-08-16T12:12:58Z</time></trkpt><trkpt lat="59.3216807675" lon="34.6857158560"><ele>165.93</ele><time>2026-08-16T12:13:18Z</time></trkpt><trkpt lat="59.3216927536" lon="34.6856269240"><ele>165.82</ele><time>2026-08-16T12:13:59Z</time></trkpt><trkpt lat="59.3216895685" lon="34.6852426976"><ele>165.91</ele><time>2026-08-16T12:14:14Z</time></trkpt><trkpt lat="59.3216855451" lon="34.6848111972"><ele>165.57</ele><time>2026-08-16T12:14:27Z</time></trkpt><trkpt lat="59.3216747325" lon="34.6846232750"><ele>165.18</ele><time>2026-08-16T12:14:40Z</time></trkpt><trkpt lat="59.3217598926" lon="34.6845250390"><ele>164.96</ele><time>2026-08-16T12:14:52Z</time></trkpt><trkpt lat="59.3217845354" lon="34.6843711473"><ele>165.09</ele><time>2026-08-16T12:15:07Z</time></trkpt><trkpt lat="59.3218049873" lon="34.6842023358"><ele>164.93</ele><time>2026-08-16T12:15:21Z</time></trkpt><trkpt lat="59.3217999581" lon="34.6841605939"><ele>163.52</ele><time>2026-08-16T12:15:26Z</time></trkpt><trkpt lat="59.3217957672" lon="34.6841685567"><ele>165.25</ele><time>2026-08-16T12:15:47Z</time></trkpt><trkpt lat="59.3218407780" lon="34.6840531379"><ele>164.70</ele><time>2026-08-16T12:16:07Z</time></trkpt><trkpt lat="59.3218926620" lon="34.6839706600"><ele>164.78</ele><time>2026-08-16T12:16:18Z</time></trkpt><trkpt lat="59.3219288718" lon="34.6837852523"><ele>164.72</ele><time>2026-08-16T12:16:32Z</time></trkpt><trkpt lat="59.3219752237" lon="34.6836584341"><ele>164.60</ele><time>2026-08-16T12:16:47Z</time></trkpt><trkpt lat="59.3219868746" lon="34.6834559273"><ele>164.76</ele><time>2026-08-16T12:17:00Z</time></trkpt><trkpt lat="59.3220329750" lon="34.6833231580"><ele>164.58</ele><time>2026-08-16T12:17:17Z</time></trkpt><trkpt lat="59.3221001979" lon="34.6830153745"><ele>165.30</ele><time>2026-08-16T12:17:33Z</time></trkpt><trkpt lat="59.3221155368" lon="34.6829347406"><ele>165.22</ele><time>2026-08-16T12:17:54Z</time></trkpt><trkpt lat="59.3220912293" lon="34.6823825408"><ele>165.44</ele><time>2026-08-16T12:18:23Z</time></trkpt><trkpt lat="59.3220762257" lon="34.6820521262"><ele>165.65</ele><time>2026-08-16T12:18:39Z</time></trkpt><trkpt lat="59.3220596295" lon="34.6819607634"><ele>165.86</ele><time>2026-08-16T12:18:55Z</time></trkpt><trkpt lat="59.3220695201" lon="34.6819553152"><ele>166.32</ele><time>2026-08-16T12:19:01Z</time></trkpt><trkpt lat="59.3221023772" lon="34.6818709932"><ele>166.51</ele><time>2026-08-16T12:19:06Z</time></trkpt><trkpt lat="59.3221737910" lon="34.6817375533"><ele>166.47</ele><time>2026-08-16T12:19:21Z</time></trkpt><trkpt lat="59.3222112581" lon="34.6817673929"><ele>166.37</ele><time>2026-08-16T12:19:37Z</time></trkpt><trkpt lat="59.3222104199" lon="34.6817726735"><ele>163.13</ele><time>2026-08-16T12:19:41Z</time></trkpt><trkpt lat="59.3222125992" lon="34.6817764454"><ele>163.12</ele><time>2026-08-16T12:19:42Z</time></trkpt><trkpt lat="59.3222117610" lon="34.6818111464"><ele>166.52</ele><time>2026-08-16T12:19:53Z</time></trkpt><trkpt lat="59.3222156167" lon="34.6818060335"><ele>166.67</ele><time>2026-08-16T12:19:54Z</time></trkpt><trkpt lat="59.3222455401" lon="34.6817333624"><ele>166.36</ele><time>2026-08-16T12:20:25Z</time></trkpt><trkpt lat="59.3222512398" lon="34.6816122439"><ele>166.57</ele><time>2026-08-16T12:20:44Z</time></trkpt><trkpt lat="59.3222035468" lon="34.6814830787"><ele>166.19</ele><time>2026-08-16T12:20:59Z</time></trkpt><trkpt lat="59.3221786525" lon="34.6813961584"><ele>166.35</ele><time>2026-08-16T12:21:15Z</time></trkpt><trkpt lat="59.3221705221" lon="34.6813769639"><ele>165.98</ele><time>2026-08-16T12:21:51Z</time></trkpt><trkpt lat="59.3221571948" lon="34.6813664865"><ele>165.50</ele><time>2026-08-16T12:22:39Z</time></trkpt><trkpt lat="59.3221610505" lon="34.6813594457"><ele>165.39</ele><time>2026-08-16T12:23:27Z</time></trkpt><trkpt lat="59.3221537583" lon="34.6812985931"><ele>165.17</ele><time>2026-08-16T12:24:16Z</time></trkpt><trkpt lat="59.3222174607" lon="34.6812522411"><ele>165.35</ele><time>2026-08-16T12:24:38Z</time></trkpt><trkpt lat="59.3222158682" lon="34.6813009400"><ele>166.11</ele><time>2026-08-16T12:24:51Z</time></trkpt><trkpt lat="59.3221645709" lon="34.6813843399"><ele>165.39</ele><time>2026-08-16T12:25:31Z</time></trkpt><trkpt lat="59.3221593741" lon="34.6813730244"><ele>165.51</ele><time>2026-08-16T12:26:15Z</time></trkpt><trkpt lat="59.3221353181" lon="34.6813942306"><ele>165.19</ele><time>2026-08-16T12:27:14Z</time></trkpt><trkpt lat="59.3221464660" lon="34.6814027801"><ele>164.92</ele><time>2026-08-16T12:28:02Z</time></trkpt><trkpt lat="59.3221466336" lon="34.6813963261"><ele>165.00</ele><time>2026-08-16T12:28:54Z</time></trkpt><trkpt lat="59.3221514951" lon="34.6813726891"><ele>165.12</ele><time>2026-08-16T12:29:37Z</time></trkpt><trkpt lat="59.3221653253" lon="34.6813668218"><ele>164.28</ele><time>2026-08-16T12:30:08Z</time></trkpt><trkpt lat="59.3221813347" lon="34.6813847590"><ele>165.28</ele><time>2026-08-16T12:30:30Z</time></trkpt><trkpt lat="59.3221987691" lon="34.6814167779"><ele>164.62</ele><time>2026-08-16T12:30:50Z</time></trkpt><trkpt lat="59.3221641518" lon="34.6813990921"><ele>165.42</ele><time>2026-08-16T12:31:31Z</time></trkpt><trkpt lat="59.3221636489" lon="34.6813741978"><ele>165.35</ele><time>2026-08-16T12:32:06Z</time></trkpt><trkpt lat="59.3221619725" lon="34.6813739464"><ele>165.48</ele><time>2026-08-16T12:32:12Z</time></trkpt><trkpt lat="59.3221619725" lon="34.6813897882"><ele>166.15</ele><time>2026-08-16T12:32:20Z</time></trkpt><trkpt lat="59.3221702706" lon="34.6813877765"><ele>165.52</ele><time>2026-08-16T12:32:41Z</time></trkpt><trkpt lat="59.3221642356" lon="34.6814067196"><ele>166.03</ele><time>2026-08-16T12:33:17Z</time></trkpt><trkpt lat="59.3222143594" lon="34.6814849228"><ele>165.92</ele><time>2026-08-16T12:33:41Z</time></trkpt><trkpt lat="59.3222711887" lon="34.6816070471"><ele>165.81</ele><time>2026-08-16T12:33:54Z</time></trkpt><trkpt lat="59.3222716916" lon="34.6817308478"><ele>165.09</ele><time>2026-08-16T12:34:11Z</time></trkpt><trkpt lat="59.3222406786" lon="34.6818623599"><ele>164.76</ele><time>2026-08-16T12:34:36Z</time></trkpt><trkpt lat="59.3222268485" lon="34.6819749288"><ele>164.58</ele><time>2026-08-16T12:34:59Z</time></trkpt><trkpt lat="59.3223033752" lon="34.6820462588"><ele>164.60</ele><time>2026-08-16T12:35:57Z</time></trkpt><trkpt lat="59.3222734518" lon="34.6820112225"><ele>164.41</ele><time>2026-08-16T12:36:20Z</time></trkpt><trkpt lat="59.3222603761" lon="34.6819709055"><ele>165.11</ele><time>2026-08-16T12:36:52Z</time></trkpt><trkpt lat="59.3223119248" lon="34.6822336782"><ele>164.95</ele><time>2026-08-16T12:37:11Z</time></trkpt><trkpt lat="59.3223456200" lon="34.6824456565"><ele>164.87</ele><time>2026-08-16T12:37:32Z</time></trkpt><trkpt lat="59.3223471288" lon="34.6824616659"><ele>164.67</ele><time>2026-08-16T12:37:34Z</time></trkpt><trkpt lat="59.3224246614" lon="34.6826319862"><ele>164.68</ele><time>2026-08-16T12:37:46Z</time></trkpt><trkpt lat="59.3225106597" lon="34.6827197447"><ele>164.76</ele><time>2026-08-16T12:38:00Z</time></trkpt><trkpt lat="59.3225127552" lon="34.6828326490"><ele>164.58</ele><time>2026-08-16T12:38:13Z</time></trkpt><trkpt lat="59.3225363921" lon="34.6829238441"><ele>164.84</ele><time>2026-08-16T12:38:25Z</time></trkpt><trkpt lat="59.3226029444" lon="34.6829599701"><ele>164.83</ele><time>2026-08-16T12:38:32Z</time></trkpt><trkpt lat="59.3226710893" lon="34.6830376703"><ele>165.34</ele><time>2026-08-16T12:38:47Z</time></trkpt><trkpt lat="59.3227501307" lon="34.6831110958"><ele>165.44</ele><time>2026-08-16T12:39:02Z</time></trkpt><trkpt lat="59.3228588440" lon="34.6832304541"><ele>166.01</ele><time>2026-08-16T12:39:14Z</time></trkpt><trkpt lat="59.3229745980" lon="34.6833171230"><ele>166.34</ele><time>2026-08-16T12:39:30Z</time></trkpt><trkpt lat="59.3230451737" lon="34.6834363975"><ele>166.57</ele><time>2026-08-16T12:39:46Z</time></trkpt><trkpt lat="59.3231552280" lon="34.6834510658"><ele>167.18</ele><time>2026-08-16T12:40:02Z</time></trkpt><trkpt lat="59.3232405558" lon="34.6834676620"><ele>167.15</ele><time>2026-08-16T12:40:15Z</time></trkpt><trkpt lat="59.3232889194" lon="34.6834983397"><ele>166.68</ele><time>2026-08-16T12:40:33Z</time></trkpt><trkpt lat="59.3232875783" lon="34.6835177857"><ele>166.67</ele><time>2026-08-16T12:41:01Z</time></trkpt><trkpt lat="59.3233280629" lon="34.6835399978"><ele>167.55</ele><time>2026-08-16T12:41:13Z</time></trkpt><trkpt lat="59.3233762588" lon="34.6835956536"><ele>167.09</ele><time>2026-08-16T12:41:26Z</time></trkpt><trkpt lat="59.3234066851" lon="34.6838360466"><ele>166.71</ele><time>2026-08-16T12:41:36Z</time></trkpt><trkpt lat="59.3234285619" lon="34.6839442570"><ele>166.75</ele><time>2026-08-16T12:41:52Z</time></trkpt><trkpt lat="59.3234333396" lon="34.6839090530"><ele>166.31</ele><time>2026-08-16T12:42:31Z</time></trkpt><trkpt lat="59.3234338425" lon="34.6839849930"><ele>166.78</ele><time>2026-08-16T12:43:01Z</time></trkpt><trkpt lat="59.3234874867" lon="34.6840726677"><ele>166.53</ele><time>2026-08-16T12:43:22Z</time></trkpt><trkpt lat="59.3235586490" lon="34.6842549741"><ele>166.73</ele><time>2026-08-16T12:43:36Z</time></trkpt><trkpt lat="59.3236540351" lon="34.6843816247"><ele>166.69</ele><time>2026-08-16T12:43:52Z</time></trkpt><trkpt lat="59.3237362616" lon="34.6843945328"><ele>167.13</ele><time>2026-08-16T12:44:07Z</time></trkpt><trkpt lat="59.3237867206" lon="34.6843689680"><ele>166.85</ele><time>2026-08-16T12:44:29Z</time></trkpt><trkpt lat="59.3238123693" lon="34.6845858917"><ele>166.93</ele><time>2026-08-16T12:44:57Z</time></trkpt><trkpt lat="59.3238320667" lon="34.6846617479"><ele>166.90</ele><time>2026-08-16T12:45:14Z</time></trkpt><trkpt lat="59.3238507584" lon="34.6846981253"><ele>166.63</ele><time>2026-08-16T12:45:49Z</time></trkpt><trkpt lat="59.3238705397" lon="34.6846624184"><ele>167.23</ele><time>2026-08-16T12:46:20Z</time></trkpt><trkpt lat="59.3238099385" lon="34.6847162303"><ele>166.20</ele><time>2026-08-16T12:46:54Z</time></trkpt><trkpt lat="59.3238141295" lon="34.6846385300"><ele>166.89</ele><time>2026-08-16T12:47:13Z</time></trkpt><trkpt lat="59.3238408677" lon="34.6847261209"><ele>166.82</ele><time>2026-08-16T12:47:45Z</time></trkpt><trkpt lat="59.3238093518" lon="34.6848336607"><ele>167.36</ele><time>2026-08-16T12:48:00Z</time></trkpt><trkpt lat="59.3238303065" lon="34.6849819366"><ele>166.94</ele><time>2026-08-16T12:48:21Z</time></trkpt><trkpt lat="59.3238569610" lon="34.6851456352"><ele>167.02</ele><time>2026-08-16T12:48:37Z</time></trkpt><trkpt lat="59.3237817753" lon="34.6854028758"><ele>167.39</ele><time>2026-08-16T12:49:03Z</time></trkpt><trkpt lat="59.3237836193" lon="34.6855023690"><ele>166.93</ele><time>2026-08-16T12:49:46Z</time></trkpt><trkpt lat="59.3237523548" lon="34.6854962502"><ele>167.16</ele><time>2026-08-16T12:50:31Z</time></trkpt><trkpt lat="59.3238137942" lon="34.6853159554"><ele>167.21</ele><time>2026-08-16T12:51:08Z</time></trkpt><trkpt lat="59.3237801827" lon="34.6854591183"><ele>167.08</ele><time>2026-08-16T12:51:23Z</time></trkpt><trkpt lat="59.3237013090" lon="34.6855507325"><ele>166.94</ele><time>2026-08-16T12:51:36Z</time></trkpt><trkpt lat="59.3236784264" lon="34.6857186221"><ele>166.98</ele><time>2026-08-16T12:51:52Z</time></trkpt><trkpt lat="59.3237058353" lon="34.6858289279"><ele>167.16</ele><time>2026-08-16T12:52:08Z</time></trkpt><trkpt lat="59.3237334955" lon="34.6859212965"><ele>167.27</ele><time>2026-08-16T12:52:18Z</time></trkpt><trkpt lat="59.3237611558" lon="34.6860228851"><ele>167.47</ele><time>2026-08-16T12:52:29Z</time></trkpt><trkpt lat="59.3237488344" lon="34.6861287486"><ele>167.80</ele><time>2026-08-16T12:52:42Z</time></trkpt><trkpt lat="59.3236987945" lon="34.6862265654"><ele>167.14</ele><time>2026-08-16T12:52:57Z</time></trkpt><trkpt lat="59.3236590642" lon="34.6863900963"><ele>167.12</ele><time>2026-08-16T12:53:11Z</time></trkpt><trkpt lat="59.3236355949" lon="34.6864977200"><ele>167.03</ele><time>2026-08-16T12:53:30Z</time></trkpt><trkpt lat="59.3236297276" lon="34.6866919287"><ele>166.74</ele><time>2026-08-16T12:53:46Z</time></trkpt><trkpt lat="59.3236238603" lon="34.6867444832"><ele>166.41</ele><time>2026-08-16T12:53:51Z</time></trkpt><trkpt lat="59.3236145563" lon="34.6869638376"><ele>166.54</ele><time>2026-08-16T12:54:04Z</time></trkpt><trkpt lat="59.3235888239" lon="34.6871199924"><ele>166.46</ele><time>2026-08-16T12:54:18Z</time></trkpt><trkpt lat="59.3235819507" lon="34.6872473974"><ele>166.51</ele><time>2026-08-16T12:54:53Z</time></trkpt><trkpt lat="59.3236338347" lon="34.6871907357"><ele>166.42</ele><time>2026-08-16T12:55:24Z</time></trkpt><trkpt lat="59.3236387800" lon="34.6871630754"><ele>167.56</ele><time>2026-08-16T12:55:29Z</time></trkpt><trkpt lat="59.3236666918" lon="34.6871639974"><ele>167.06</ele><time>2026-08-16T12:56:07Z</time></trkpt><trkpt lat="59.3236864731" lon="34.6870810166"><ele>166.49</ele><time>2026-08-16T12:56:45Z</time></trkpt><trkpt lat="59.3236923404" lon="34.6871002950"><ele>166.56</ele><time>2026-08-16T12:57:12Z</time></trkpt><trkpt lat="59.3236610759" lon="34.6871968545"><ele>166.73</ele><time>2026-08-16T12:57:43Z</time></trkpt><trkpt lat="59.3236096948" lon="34.6871485747"><ele>166.99</ele><time>2026-08-16T12:58:20Z</time></trkpt><trkpt lat="59.3236130476" lon="34.6872071642"><ele>166.08</ele><time>2026-08-16T12:59:01Z</time></trkpt><trkpt lat="59.3236375228" lon="34.6871987823"><ele>167.12</ele><time>2026-08-16T12:59:46Z</time></trkpt><trkpt lat="59.3236708827" lon="34.6871798392"><ele>167.34</ele><time>2026-08-16T13:00:24Z</time></trkpt><trkpt lat="59.3236968666" lon="34.6871660929"><ele>167.30</ele><time>2026-08-16T13:00:32Z</time></trkpt><trkpt lat="59.3237447273" lon="34.6871690266"><ele>167.49</ele><time>2026-08-16T13:00:44Z</time></trkpt><trkpt lat="59.3237994611" lon="34.6871220879"><ele>167.19</ele><time>2026-08-16T13:00:55Z</time></trkpt><trkpt lat="59.3238803465" lon="34.6870517638"><ele>167.81</ele><time>2026-08-16T13:01:09Z</time></trkpt><trkpt lat="59.3239415344" lon="34.6869980358"><ele>167.66</ele><time>2026-08-16T13:01:21Z</time></trkpt><trkpt lat="59.3239798397" lon="34.6869054995"><ele>168.04</ele><time>2026-08-16T13:01:30Z</time></trkpt><trkpt lat="59.3240402732" lon="34.6869992092"><ele>167.76</ele><time>2026-08-16T13:01:47Z</time></trkpt><trkpt lat="59.3240827695" lon="34.6868577227"><ele>168.05</ele><time>2026-08-16T13:02:01Z</time></trkpt><trkpt lat="59.3241121899" lon="34.6868101973"><ele>166.60</ele><time>2026-08-16T13:02:06Z</time></trkpt><trkpt lat="59.3241711147" lon="34.6868291404"><ele>168.35</ele><time>2026-08-16T13:02:15Z</time></trkpt><trkpt lat="59.3241546862" lon="34.6868206747"><ele>167.77</ele><time>2026-08-16T13:02:28Z</time></trkpt><trkpt lat="59.3241804186" lon="34.6866974607"><ele>167.94</ele><time>2026-08-16T13:02:38Z</time></trkpt><trkpt lat="59.3241698574" lon="34.6865459997"><ele>168.38</ele><time>2026-08-16T13:02:51Z</time></trkpt><trkpt lat="59.3241503276" lon="34.6864404716"><ele>168.20</ele><time>2026-08-16T13:03:07Z</time></trkpt><trkpt lat="59.3241564464" lon="34.6863512881"><ele>168.25</ele><time>2026-08-16T13:03:25Z</time></trkpt><trkpt lat="59.3240459729" lon="34.6863703988"><ele>167.94</ele><time>2026-08-16T13:04:06Z</time></trkpt><trkpt lat="59.3240517564" lon="34.6863510367"><ele>168.53</ele><time>2026-08-16T13:04:40Z</time></trkpt><trkpt lat="59.3240530975" lon="34.6863642801"><ele>166.53</ele><time>2026-08-16T13:04:42Z</time></trkpt><trkpt lat="59.3240523431" lon="34.6864213608"><ele>168.08</ele><time>2026-08-16T13:04:58Z</time></trkpt><trkpt lat="59.3240285385" lon="34.6863455884"><ele>168.45</ele><time>2026-08-16T13:05:21Z</time></trkpt><trkpt lat="59.3239466473" lon="34.6862289123"><ele>168.67</ele><time>2026-08-16T13:05:37Z</time></trkpt><trkpt lat="59.3238831963" lon="34.6861051954"><ele>168.65</ele><time>2026-08-16T13:05:50Z</time></trkpt><trkpt lat="59.3238210864" lon="34.6860577539"><ele>168.52</ele><time>2026-08-16T13:06:06Z</time></trkpt><trkpt lat="59.3238027301" lon="34.6859813947"><ele>168.28</ele><time>2026-08-16T13:06:17Z</time></trkpt><trkpt lat="59.3237433862" lon="34.6859120764"><ele>168.30</ele><time>2026-08-16T13:06:32Z</time></trkpt><trkpt lat="59.3236858863" lon="34.6858785488"><ele>168.11</ele><time>2026-08-16T13:06:41Z</time></trkpt><trkpt lat="59.3236144725" lon="34.6859191172"><ele>167.78</ele><time>2026-08-16T13:06:52Z</time></trkpt><trkpt lat="59.3235631753" lon="34.6858689096"><ele>167.64</ele><time>2026-08-16T13:07:04Z</time></trkpt><trkpt lat="59.3235589843" lon="34.6859011799"><ele>167.75</ele><time>2026-08-16T13:07:08Z</time></trkpt><trkpt lat="59.3235198408" lon="34.6857623756"><ele>167.56</ele><time>2026-08-16T13:07:20Z</time></trkpt><trkpt lat="59.3235060945" lon="34.6857445221"><ele>167.43</ele><time>2026-08-16T13:07:43Z</time></trkpt><trkpt lat="59.3235160690" lon="34.6857125871"><ele>167.56</ele><time>2026-08-16T13:08:06Z</time></trkpt><trkpt lat="59.3234948628" lon="34.6856795624"><ele>167.52</ele><time>2026-08-16T13:08:37Z</time></trkpt><trkpt lat="59.3234481756" lon="34.6854902990"><ele>168.03</ele><time>2026-08-16T13:08:53Z</time></trkpt><trkpt lat="59.3232852314" lon="34.6853511594"><ele>167.83</ele><time>2026-08-16T13:09:25Z</time></trkpt><trkpt lat="59.3233062699" lon="34.6853460465"><ele>167.91</ele><time>2026-08-16T13:09:54Z</time></trkpt><trkpt lat="59.3233472575" lon="34.6854283568"><ele>167.66</ele><time>2026-08-16T13:10:32Z</time></trkpt><trkpt lat="59.3233668711" lon="34.6854603756"><ele>167.40</ele><time>2026-08-16T13:10:52Z</time></trkpt><trkpt lat="59.3233305775" lon="34.6854364872"><ele>167.66</ele><time>2026-08-16T13:11:32Z</time></trkpt><trkpt lat="59.3234088644" lon="34.6854430251"><ele>167.61</ele><time>2026-08-16T13:11:55Z</time></trkpt><trkpt lat="59.3234877381" lon="34.6853808314"><ele>168.43</ele><time>2026-08-16T13:12:04Z</time></trkpt><trkpt lat="59.3235404603" lon="34.6852742136"><ele>168.41</ele><time>2026-08-16T13:12:18Z</time></trkpt><trkpt lat="59.3235585652" lon="34.6851263568"><ele>168.61</ele><time>2026-08-16T13:12:35Z</time></trkpt><trkpt lat="59.3235724792" lon="34.6850911528"><ele>168.93</ele><time>2026-08-16T13:12:37Z</time></trkpt><trkpt lat="59.3236058392" lon="34.6850744728"><ele>168.68</ele><time>2026-08-16T13:12:41Z</time></trkpt><trkpt lat="59.3236335833" lon="34.6849194914"><ele>169.13</ele><time>2026-08-16T13:12:54Z</time></trkpt><trkpt lat="59.3235896621" lon="34.6848936751"><ele>168.91</ele><time>2026-08-16T13:13:47Z</time></trkpt><trkpt lat="59.3236273807" lon="34.6848792583"><ele>169.14</ele><time>2026-08-16T13:14:25Z</time></trkpt><trkpt lat="59.3236953579" lon="34.6848508436"><ele>169.07</ele><time>2026-08-16T13:14:38Z</time></trkpt><trkpt lat="59.3237527739" lon="34.6847324912"><ele>169.00</ele><time>2026-08-16T13:14:54Z</time></trkpt><trkpt lat="59.3238175660" lon="34.6847030707"><ele>168.84</ele><time>2026-08-16T13:15:07Z</time></trkpt><trkpt lat="59.3239220884" lon="34.6846970357"><ele>168.79</ele><time>2026-08-16T13:15:18Z</time></trkpt><trkpt lat="59.3239935860" lon="34.6846115403"><ele>168.33</ele><time>2026-08-16T13:15:32Z</time></trkpt><trkpt lat="59.3241024669" lon="34.6846060921"><ele>168.26</ele><time>2026-08-16T13:15:47Z</time></trkpt><trkpt lat="59.3241101783" lon="34.6846074332"><ele>168.08</ele><time>2026-08-16T13:15:48Z</time></trkpt><trkpt lat="59.3241457175" lon="34.6846279688"><ele>168.14</ele><time>2026-08-16T13:15:52Z</time></trkpt><trkpt lat="59.3241725396" lon="34.6846254542"><ele>168.16</ele><time>2026-08-16T13:15:55Z</time></trkpt><trkpt lat="59.3242693506" lon="34.6846531983"><ele>167.90</ele><time>2026-08-16T13:16:09Z</time></trkpt><trkpt lat="59.3242692668" lon="34.6846738178"><ele>167.95</ele><time>2026-08-16T13:16:50Z</time></trkpt><trkpt lat="59.3243122660" lon="34.6846393682"><ele>167.53</ele><time>2026-08-16T13:17:21Z</time></trkpt><trkpt lat="59.3243210670" lon="34.6846413799"><ele>167.64</ele><time>2026-08-16T13:17:22Z</time></trkpt><trkpt lat="59.3244204763" lon="34.6845968720"><ele>167.51</ele><time>2026-08-16T13:17:35Z</time></trkpt><trkpt lat="59.3244312890" lon="34.6845157351"><ele>167.49</ele><time>2026-08-16T13:17:49Z</time></trkpt><trkpt lat="59.3244124297" lon="34.6845177468"><ele>167.92</ele><time>2026-08-16T13:18:32Z</time></trkpt><trkpt lat="59.3244299479" lon="34.6844518650"><ele>167.98</ele><time>2026-08-16T13:18:58Z</time></trkpt><trkpt lat="59.3244808260" lon="34.6844286472"><ele>167.87</ele><time>2026-08-16T13:19:34Z</time></trkpt><trkpt lat="59.3244843464" lon="34.6844425611"><ele>167.52</ele><time>2026-08-16T13:19:53Z</time></trkpt><trkpt lat="59.3244895432" lon="34.6844125539"><ele>167.31</ele><time>2026-08-16T13:20:12Z</time></trkpt><trkpt lat="59.3244395871" lon="34.6844270546"><ele>167.76</ele><time>2026-08-16T13:20:31Z</time></trkpt><trkpt lat="59.3244001921" lon="34.6843630169"><ele>167.50</ele><time>2026-08-16T13:20:58Z</time></trkpt><trkpt lat="59.3243713584" lon="34.6843796968"><ele>167.55</ele><time>2026-08-16T13:21:22Z</time></trkpt><trkpt lat="59.3243457936" lon="34.6843570657"><ele>167.59</ele><time>2026-08-16T13:21:55Z</time></trkpt><trkpt lat="59.3244649842" lon="34.6843273938"><ele>167.70</ele><time>2026-08-16T13:22:15Z</time></trkpt><trkpt lat="59.3245752901" lon="34.6843039244"><ele>167.76</ele><time>2026-08-16T13:22:22Z</time></trkpt><trkpt lat="59.3245957419" lon="34.6842895076"><ele>167.47</ele><time>2026-08-16T13:22:24Z</time></trkpt><trkpt lat="59.3247081432" lon="34.6842520405"><ele>167.77</ele><time>2026-08-16T13:22:37Z</time></trkpt><trkpt lat="59.3247598596" lon="34.6841132361"><ele>167.63</ele><time>2026-08-16T13:22:48Z</time></trkpt><trkpt lat="59.3248330336" lon="34.6839447599"><ele>167.56</ele><time>2026-08-16T13:23:01Z</time></trkpt><trkpt lat="59.3248787988" lon="34.6837941371"><ele>167.35</ele><time>2026-08-16T13:23:12Z</time></trkpt><trkpt lat="59.3249131646" lon="34.6836627927"><ele>166.97</ele><time>2026-08-16T13:23:24Z</time></trkpt><trkpt lat="59.3249861710" lon="34.6835377347"><ele>166.85</ele><time>2026-08-16T13:23:38Z</time></trkpt><trkpt lat="59.3250217941" lon="34.6835241560"><ele>167.05</ele><time>2026-08-16T13:24:08Z</time></trkpt><trkpt lat="59.3250700738" lon="34.6835505590"><ele>166.79</ele><time>2026-08-16T13:24:40Z</time></trkpt><trkpt lat="59.3251706567" lon="34.6836141776"><ele>167.18</ele><time>2026-08-16T13:24:52Z</time></trkpt><trkpt lat="59.3252153322" lon="34.6836103220"><ele>167.03</ele><time>2026-08-16T13:24:59Z</time></trkpt><trkpt lat="59.3252694793" lon="34.6835913789"><ele>166.87</ele><time>2026-08-16T13:25:09Z</time></trkpt><trkpt lat="59.3252850696" lon="34.6836050414"><ele>166.76</ele><time>2026-08-16T13:25:11Z</time></trkpt><trkpt lat="59.3254109658" lon="34.6835951507"><ele>167.01</ele><time>2026-08-16T13:25:26Z</time></trkpt><trkpt lat="59.3255219422" lon="34.6836561710"><ele>166.96</ele><time>2026-08-16T13:25:39Z</time></trkpt><trkpt lat="59.3255907577" lon="34.6837007627"><ele>166.84</ele><time>2026-08-16T13:25:50Z</time></trkpt><trkpt lat="59.3256353494" lon="34.6836580988"><ele>166.62</ele><time>2026-08-16T13:25:59Z</time></trkpt><trkpt lat="59.3257236946" lon="34.6837452706"><ele>166.94</ele><time>2026-08-16T13:26:10Z</time></trkpt><trkpt lat="59.3257563841" lon="34.6838063747"><ele>166.76</ele><time>2026-08-16T13:26:14Z</time></trkpt><trkpt lat="59.3258447293" lon="34.6839001682"><ele>166.99</ele><time>2026-08-16T13:26:28Z</time></trkpt><trkpt lat="59.3258934282" lon="34.6837971546"><ele>167.27</ele><time>2026-08-16T13:26:46Z</time></trkpt><trkpt lat="59.3259981181" lon="34.6836922970"><ele>167.80</ele><time>2026-08-16T13:26:56Z</time></trkpt><trkpt lat="59.3260576297" lon="34.6835905407"><ele>166.56</ele><time>2026-08-16T13:27:11Z</time></trkpt><trkpt lat="59.3260560371" lon="34.6836337913"><ele>167.12</ele><time>2026-08-16T13:27:26Z</time></trkpt><trkpt lat="59.3260063324" lon="34.6836479567"><ele>167.28</ele><time>2026-08-16T13:27:52Z</time></trkpt><trkpt lat="59.3260035664" lon="34.6836014371"><ele>166.75</ele><time>2026-08-16T13:28:25Z</time></trkpt><trkpt lat="59.3260022253" lon="34.6835907921"><ele>166.65</ele><time>2026-08-16T13:28:26Z</time></trkpt><trkpt lat="59.3260150496" lon="34.6833579428"><ele>166.57</ele><time>2026-08-16T13:28:46Z</time></trkpt><trkpt lat="59.3259995431" lon="34.6833217330"><ele>166.69</ele><time>2026-08-16T13:28:51Z</time></trkpt><trkpt lat="59.3259983696" lon="34.6831764746"><ele>166.29</ele><time>2026-08-16T13:29:00Z</time></trkpt><trkpt lat="59.3260485772" lon="34.6829879656"><ele>166.47</ele><time>2026-08-16T13:29:11Z</time></trkpt><trkpt lat="59.3261066638" lon="34.6828432940"><ele>166.77</ele><time>2026-08-16T13:29:25Z</time></trkpt><trkpt lat="59.3261235952" lon="34.6827791724"><ele>167.11</ele><time>2026-08-16T13:29:43Z</time></trkpt><trkpt lat="59.3260958511" lon="34.6827621572"><ele>166.78</ele><time>2026-08-16T13:29:50Z</time></trkpt><trkpt lat="59.3260641675" lon="34.6826050803"><ele>167.59</ele><time>2026-08-16T13:30:02Z</time></trkpt><trkpt lat="59.3260413688" lon="34.6824306529"><ele>167.54</ele><time>2026-08-16T13:30:13Z</time></trkpt><trkpt lat="59.3260454759" lon="34.6823594905"><ele>167.57</ele><time>2026-08-16T13:30:21Z</time></trkpt><trkpt lat="59.3260466494" lon="34.6822819579"><ele>167.59</ele><time>2026-08-16T13:30:25Z</time></trkpt><trkpt lat="59.3260232639" lon="34.6821244620"><ele>167.74</ele><time>2026-08-16T13:30:39Z</time></trkpt><trkpt lat="59.3260092661" lon="34.6821183432"><ele>166.97</ele><time>2026-08-16T13:31:31Z</time></trkpt><trkpt lat="59.3259627465" lon="34.6820538864"><ele>167.53</ele><time>2026-08-16T13:32:14Z</time></trkpt><trkpt lat="59.3259481620" lon="34.6820225380"><ele>167.39</ele><time>2026-08-16T13:32:20Z</time></trkpt><trkpt lat="59.3259397801" lon="34.6819255594"><ele>167.02</ele><time>2026-08-16T13:32:37Z</time></trkpt><trkpt lat="59.3259105273" lon="34.6817153413"><ele>166.87</ele><time>2026-08-16T13:32:55Z</time></trkpt><trkpt lat="59.3259317335" lon="34.6815619525"><ele>166.87</ele><time>2026-08-16T13:33:04Z</time></trkpt><trkpt lat="59.3259346671" lon="34.6815230604"><ele>166.89</ele><time>2026-08-16T13:33:07Z</time></trkpt><trkpt lat="59.3258839566" lon="34.6814534906"><ele>166.86</ele><time>2026-08-16T13:33:11Z</time></trkpt><trkpt lat="59.3258883990" lon="34.6812655684"><ele>167.21</ele><time>2026-08-16T13:33:23Z</time></trkpt><trkpt lat="59.3258639239" lon="34.6810083278"><ele>167.18</ele><time>2026-08-16T13:33:37Z</time></trkpt><trkpt lat="59.3258354254" lon="34.6807959303"><ele>167.60</ele><time>2026-08-16T13:33:49Z</time></trkpt><trkpt lat="59.3258410413" lon="34.6807666775"><ele>167.47</ele><time>2026-08-16T13:33:52Z</time></trkpt><trkpt lat="59.3257984612" lon="34.6806166414"><ele>168.19</ele><time>2026-08-16T13:34:04Z</time></trkpt><trkpt lat="59.3256888259" lon="34.6805611532"><ele>168.07</ele><time>2026-08-16T13:34:38Z</time></trkpt><trkpt lat="59.3256342597" lon="34.6805118676"><ele>165.82</ele><time>2026-08-16T13:35:07Z</time></trkpt><trkpt lat="59.3256214354" lon="34.6805027314"><ele>168.35</ele><time>2026-08-16T13:35:23Z</time></trkpt><trkpt lat="59.3255443219" lon="34.6805185732"><ele>167.69</ele><time>2026-08-16T13:35:50Z</time></trkpt><trkpt lat="59.3254636880" lon="34.6805548668"><ele>167.83</ele><time>2026-08-16T13:36:02Z</time></trkpt><trkpt lat="59.3253803719" lon="34.6806293819"><ele>167.60</ele><time>2026-08-16T13:36:13Z</time></trkpt><trkpt lat="59.3253180943" lon="34.6806303877"><ele>167.62</ele><time>2026-08-16T13:36:20Z</time></trkpt><trkpt lat="59.3252794538" lon="34.6806626581"><ele>167.58</ele><time>2026-08-16T13:36:23Z</time></trkpt><trkpt lat="59.3251466844" lon="34.6807073336"><ele>167.46</ele><time>2026-08-16T13:36:36Z</time></trkpt><trkpt lat="59.3249750230" lon="34.6806479897"><ele>167.48</ele><time>2026-08-16T13:36:41Z</time></trkpt><trkpt lat="59.3248948082" lon="34.6806924976"><ele>167.43</ele><time>2026-08-16T13:36:48Z</time></trkpt><trkpt lat="59.3248764519" lon="34.6807342395"><ele>166.95</ele><time>2026-08-16T13:36:51Z</time></trkpt><trkpt lat="59.3248618674" lon="34.6807559486"><ele>167.18</ele><time>2026-08-16T13:36:53Z</time></trkpt><trkpt lat="59.3247976620" lon="34.6808861196"><ele>166.92</ele><time>2026-08-16T13:37:05Z</time></trkpt><trkpt lat="59.3247463647" lon="34.6809919830"><ele>167.06</ele><time>2026-08-16T13:37:14Z</time></trkpt><trkpt lat="59.3247191235" lon="34.6810183860"><ele>166.81</ele><time>2026-08-16T13:37:17Z</time></trkpt><trkpt lat="59.3246681616" lon="34.6811906341"><ele>166.82</ele><time>2026-08-16T13:37:30Z</time></trkpt><trkpt lat="59.3246228993" lon="34.6812821645"><ele>167.12</ele><time>2026-08-16T13:37:40Z</time></trkpt><trkpt lat="59.3246177863" lon="34.6814511437"><ele>166.53</ele><time>2026-08-16T13:37:50Z</time></trkpt><trkpt lat="59.3246091530" lon="34.6816399880"><ele>166.47</ele><time>2026-08-16T13:38:02Z</time></trkpt><trkpt lat="59.3245854322" lon="34.6818431653"><ele>166.46</ele><time>2026-08-16T13:38:18Z</time></trkpt><trkpt lat="59.3245563470" lon="34.6820126474"><ele>167.03</ele><time>2026-08-16T13:38:32Z</time></trkpt><trkpt lat="59.3245760445" lon="34.6822123881"><ele>166.69</ele><time>2026-08-16T13:38:44Z</time></trkpt><trkpt lat="59.3246278446" lon="34.6824172419"><ele>166.59</ele><time>2026-08-16T13:38:59Z</time></trkpt><trkpt lat="59.3246845901" lon="34.6825489216"><ele>166.77</ele><time>2026-08-16T13:39:28Z</time></trkpt><trkpt lat="59.3246459495" lon="34.6826862171"><ele>166.21</ele><time>2026-08-16T13:39:49Z</time></trkpt><trkpt lat="59.3247751985" lon="34.6832714416"><ele>165.70</ele><time>2026-08-16T13:40:10Z</time></trkpt><trkpt lat="59.3247854244" lon="34.6834323741"><ele>165.12</ele><time>2026-08-16T13:40:27Z</time></trkpt><trkpt lat="59.3248020206" lon="34.6834258363"><ele>160.32</ele><time>2026-08-16T13:40:29Z</time></trkpt><trkpt lat="59.3248093966" lon="34.6834266745"><ele>160.31</ele><time>2026-08-16T13:40:30Z</time></trkpt><trkpt lat="59.3248261604" lon="34.6834386606"><ele>166.15</ele><time>2026-08-16T13:40:42Z</time></trkpt><trkpt lat="59.3248269986" lon="34.6834376547"><ele>165.70</ele><time>2026-08-16T13:40:43Z</time></trkpt><trkpt lat="59.3248391524" lon="34.6834742837"><ele>164.44</ele><time>2026-08-16T13:41:09Z</time></trkpt><trkpt lat="59.3248284236" lon="34.6834109165"><ele>164.46</ele><time>2026-08-16T13:41:27Z</time></trkpt><trkpt lat="59.3248341233" lon="34.6833965834"><ele>163.44</ele><time>2026-08-16T13:41:43Z</time></trkpt><trkpt lat="59.3248889409" lon="34.6834258363"><ele>165.15</ele><time>2026-08-16T13:41:57Z</time></trkpt><trkpt lat="59.3248745240" lon="34.6834989265"><ele>163.51</ele><time>2026-08-16T13:42:23Z</time></trkpt><trkpt lat="59.3248038646" lon="34.6835273411"><ele>164.42</ele><time>2026-08-16T13:42:55Z</time></trkpt><trkpt lat="59.3248375598" lon="34.6835494693"><ele>164.78</ele><time>2026-08-16T13:43:25Z</time></trkpt><trkpt lat="59.3248997536" lon="34.6834334638"><ele>164.57</ele><time>2026-08-16T13:43:51Z</time></trkpt><trkpt lat="59.3248568382" lon="34.6834027860"><ele>164.76</ele><time>2026-08-16T13:44:14Z</time></trkpt><trkpt lat="59.3248257414" lon="34.6834127605"><ele>164.74</ele><time>2026-08-16T13:44:53Z</time></trkpt><trkpt lat="59.3247673195" lon="34.6833937336"><ele>165.14</ele><time>2026-08-16T13:45:31Z</time></trkpt><trkpt lat="59.3247598596" lon="34.6834297758"><ele>165.00</ele><time>2026-08-16T13:46:12Z</time></trkpt><trkpt lat="59.3247759528" lon="34.6833681688"><ele>165.42</ele><time>2026-08-16T13:46:37Z</time></trkpt><trkpt lat="59.3247837480" lon="34.6833832562"><ele>166.35</ele><time>2026-08-16T13:46:47Z</time></trkpt><trkpt lat="59.3247994222" lon="34.6833367366"><ele>165.52</ele><time>2026-08-16T13:47:05Z</time></trkpt><trkpt lat="59.3248109892" lon="34.6833600383"><ele>163.72</ele><time>2026-08-16T13:47:14Z</time></trkpt><trkpt lat="59.3248110730" lon="34.6833575238"><ele>167.21</ele><time>2026-08-16T13:47:15Z</time></trkpt><trkpt lat="59.3248291779" lon="34.6833436936"><ele>166.07</ele><time>2026-08-16T13:47:22Z</time></trkpt><trkpt lat="59.3249016814" lon="34.6835441887"><ele>166.69</ele><time>2026-08-16T13:47:40Z</time></trkpt><trkpt lat="59.3248690758" lon="34.6836488787"><ele>165.33</ele><time>2026-08-16T13:47:46Z</time></trkpt><trkpt lat="59.3248637952" lon="34.6836667322"><ele>168.99</ele><time>2026-08-16T13:47:47Z</time></trkpt><trkpt lat="59.3248641305" lon="34.6836833283"><ele>168.42</ele><time>2026-08-16T13:47:48Z</time></trkpt><trkpt lat="59.3248737697" lon="34.6837228909"><ele>162.98</ele><time>2026-08-16T13:47:56Z</time></trkpt><trkpt lat="59.3248737697" lon="34.6837227233"><ele>163.07</ele><time>2026-08-16T13:47:57Z</time></trkpt><trkpt lat="59.3248738535" lon="34.6837228909"><ele>172.45</ele><time>2026-08-16T13:47:58Z</time></trkpt><trkpt lat="59.3248738535" lon="34.6837230586"><ele>170.08</ele><time>2026-08-16T13:47:59Z</time></trkpt><trkpt lat="59.3248738535" lon="34.6837232262"><ele>168.09</ele><time>2026-08-16T13:48:01Z</time></trkpt><trkpt lat="59.3248336203" lon="34.6838024352"><ele>161.45</ele><time>2026-08-16T13:48:25Z</time></trkpt><trkpt lat="59.3248352967" lon="34.6838022675"><ele>161.45</ele><time>2026-08-16T13:48:26Z</time></trkpt><trkpt lat="59.3248257414" lon="34.6838165168"><ele>167.43</ele><time>2026-08-16T13:48:44Z</time></trkpt><trkpt lat="59.3248311896" lon="34.6838202886"><ele>167.33</ele><time>2026-08-16T13:48:45Z</time></trkpt><trkpt lat="59.3248009309" lon="34.6838465240"><ele>166.83</ele><time>2026-08-16T13:49:13Z</time></trkpt><trkpt lat="59.3247595243" lon="34.6839765273"><ele>167.20</ele><time>2026-08-16T13:49:26Z</time></trkpt><trkpt lat="59.3247099873" lon="34.6840661298"><ele>166.92</ele><time>2026-08-16T13:49:44Z</time></trkpt><trkpt lat="59.3246438541" lon="34.6842893399"><ele>167.57</ele><time>2026-08-16T13:50:01Z</time></trkpt><trkpt lat="59.3246073928" lon="34.6843400504"><ele>167.60</ele><time>2026-08-16T13:50:18Z</time></trkpt><trkpt lat="59.3245711830" lon="34.6845711395"><ele>168.32</ele><time>2026-08-16T13:50:57Z</time></trkpt><trkpt lat="59.3245487195" lon="34.6846543718"><ele>168.94</ele><time>2026-08-16T13:51:34Z</time></trkpt><trkpt lat="59.3244050536" lon="34.6850637440"><ele>169.08</ele><time>2026-08-16T13:51:47Z</time></trkpt><trkpt lat="59.3243072368" lon="34.6852086671"><ele>169.55</ele><time>2026-08-16T13:52:02Z</time></trkpt><trkpt lat="59.3242259324" lon="34.6853439510"><ele>169.93</ele><time>2026-08-16T13:52:15Z</time></trkpt><trkpt lat="59.3241023831" lon="34.6853556857"><ele>169.81</ele><time>2026-08-16T13:52:34Z</time></trkpt><trkpt lat="59.3240514211" lon="34.6854997706"><ele>169.14</ele><time>2026-08-16T13:53:13Z</time></trkpt><trkpt lat="59.3239412829" lon="34.6857257467"><ele>168.87</ele><time>2026-08-16T13:53:37Z</time></trkpt><trkpt lat="59.3238578830" lon="34.6858591866"><ele>168.70</ele><time>2026-08-16T13:53:48Z</time></trkpt><trkpt lat="59.3237984553" lon="34.6859158482"><ele>168.32</ele><time>2026-08-16T13:54:06Z</time></trkpt><trkpt lat="59.3236698769" lon="34.6860079654"><ele>168.06</ele><time>2026-08-16T13:54:23Z</time></trkpt><trkpt lat="59.3234799430" lon="34.6860624477"><ele>167.98</ele><time>2026-08-16T13:54:35Z</time></trkpt><trkpt lat="59.3234382849" lon="34.6861311793"><ele>167.63</ele><time>2026-08-16T13:54:47Z</time></trkpt><trkpt lat="59.3233669549" lon="34.6862122323"><ele>167.67</ele><time>2026-08-16T13:55:00Z</time></trkpt><trkpt lat="59.3233080301" lon="34.6861870866"><ele>167.03</ele><time>2026-08-16T13:55:12Z</time></trkpt><trkpt lat="59.3232825492" lon="34.6864085365"><ele>167.82</ele><time>2026-08-16T13:56:01Z</time></trkpt><trkpt lat="59.3232869916" lon="34.6864842251"><ele>167.70</ele><time>2026-08-16T13:56:05Z</time></trkpt><trkpt lat="59.3232848961" lon="34.6865844727"><ele>167.90</ele><time>2026-08-16T13:56:16Z</time></trkpt><trkpt lat="59.3233079463" lon="34.6867287252"><ele>167.82</ele><time>2026-08-16T13:56:34Z</time></trkpt><trkpt lat="59.3233091198" lon="34.6870468184"><ele>167.27</ele><time>2026-08-16T13:57:03Z</time></trkpt><trkpt lat="59.3233667873" lon="34.6869866364"><ele>167.37</ele><time>2026-08-16T13:58:13Z</time></trkpt><trkpt lat="59.3233958725" lon="34.6871295478"><ele>167.41</ele><time>2026-08-16T13:58:24Z</time></trkpt><trkpt lat="59.3234154861" lon="34.6872885525"><ele>167.82</ele><time>2026-08-16T13:58:35Z</time></trkpt><trkpt lat="59.3233784381" lon="34.6873927396"><ele>167.49</ele><time>2026-08-16T13:58:47Z</time></trkpt><trkpt lat="59.3233172502" lon="34.6875647362"><ele>168.10</ele><time>2026-08-16T13:59:01Z</time></trkpt><trkpt lat="59.3232737482" lon="34.6876590326"><ele>168.24</ele><time>2026-08-16T13:59:11Z</time></trkpt><trkpt lat="59.3233097903" lon="34.6878443565"><ele>168.49</ele><time>2026-08-16T13:59:25Z</time></trkpt><trkpt lat="59.3232860696" lon="34.6881049499"><ele>167.72</ele><time>2026-08-16T13:59:57Z</time></trkpt><trkpt lat="59.3231990654" lon="34.6883634478"><ele>167.82</ele><time>2026-08-16T14:00:26Z</time></trkpt><trkpt lat="59.3231320940" lon="34.6885170881"><ele>168.52</ele><time>2026-08-16T14:00:48Z</time></trkpt><trkpt lat="59.3231314234" lon="34.6886608377"><ele>168.98</ele><time>2026-08-16T14:01:30Z</time></trkpt><trkpt lat="59.3231209461" lon="34.6888830420"><ele>167.92</ele><time>2026-08-16T14:02:18Z</time></trkpt><trkpt lat="59.3231293280" lon="34.6894256864"><ele>167.47</ele><time>2026-08-16T14:03:10Z</time></trkpt><trkpt lat="59.3231672980" lon="34.6898570191"><ele>167.06</ele><time>2026-08-16T14:03:25Z</time></trkpt><trkpt lat="59.3232033402" lon="34.6898819972"><ele>167.15</ele><time>2026-08-16T14:03:53Z</time></trkpt><trkpt lat="59.3232682999" lon="34.6899924707"><ele>167.74</ele><time>2026-08-16T14:04:14Z</time></trkpt><trkpt lat="59.3232737482" lon="34.6899750363"><ele>164.68</ele><time>2026-08-16T14:04:16Z</time></trkpt><trkpt lat="59.3232739996" lon="34.6899747849"><ele>164.68</ele><time>2026-08-16T14:04:17Z</time></trkpt><trkpt lat="59.3233352713" lon="34.6899046283"><ele>168.42</ele><time>2026-08-16T14:04:35Z</time></trkpt><trkpt lat="59.3233389594" lon="34.6899015270"><ele>168.41</ele><time>2026-08-16T14:04:36Z</time></trkpt><trkpt lat="59.3233197648" lon="34.6899892855"><ele>168.18</ele><time>2026-08-16T14:04:57Z</time></trkpt><trkpt lat="59.3233049288" lon="34.6899977513"><ele>167.83</ele><time>2026-08-16T14:05:23Z</time></trkpt><trkpt lat="59.3232317548" lon="34.6903514676"><ele>168.16</ele><time>2026-08-16T14:05:42Z</time></trkpt><trkpt lat="59.3232101295" lon="34.6906267293"><ele>168.46</ele><time>2026-08-16T14:06:04Z</time></trkpt><trkpt lat="59.3231984787" lon="34.6907690540"><ele>168.51</ele><time>2026-08-16T14:06:12Z</time></trkpt><trkpt lat="59.3231846485" lon="34.6909233648"><ele>168.98</ele><time>2026-08-16T14:06:32Z</time></trkpt><trkpt lat="59.3231371231" lon="34.6912299749"><ele>168.62</ele><time>2026-08-16T14:07:07Z</time></trkpt><trkpt lat="59.3231090438" lon="34.6913416218"><ele>168.60</ele><time>2026-08-16T14:07:46Z</time></trkpt><trkpt lat="59.3230986502" lon="34.6913729701"><ele>168.69</ele><time>2026-08-16T14:07:47Z</time></trkpt><trkpt lat="59.3230242189" lon="34.6916280314"><ele>168.79</ele><time>2026-08-16T14:08:03Z</time></trkpt><trkpt lat="59.3229034357" lon="34.6918602940"><ele>169.08</ele><time>2026-08-16T14:08:22Z</time></trkpt><trkpt lat="59.3228222989" lon="34.6921513975"><ele>168.83</ele><time>2026-08-16T14:08:48Z</time></trkpt><trkpt lat="59.3226493802" lon="34.6922059637"><ele>168.82</ele><time>2026-08-16T14:09:11Z</time></trkpt><trkpt lat="59.3226210494" lon="34.6922533214"><ele>169.54</ele><time>2026-08-16T14:09:31Z</time></trkpt><trkpt lat="59.3226044532" lon="34.6923777927"><ele>169.15</ele><time>2026-08-16T14:09:49Z</time></trkpt><trkpt lat="59.3226558343" lon="34.6924118232"><ele>169.47</ele><time>2026-08-16T14:10:17Z</time></trkpt><trkpt lat="59.3226650544" lon="34.6924387291"><ele>167.78</ele><time>2026-08-16T14:10:35Z</time></trkpt><trkpt lat="59.3226662278" lon="34.6924319398"><ele>171.20</ele><time>2026-08-16T14:10:36Z</time></trkpt><trkpt lat="59.3226668984" lon="34.6924224682"><ele>170.27</ele><time>2026-08-16T14:10:37Z</time></trkpt><trkpt lat="59.3224879447" lon="34.6921603661"><ele>170.89</ele><time>2026-08-16T14:11:44Z</time></trkpt><trkpt lat="59.3225308601" lon="34.6923041996"><ele>168.12</ele><time>2026-08-16T14:12:04Z</time></trkpt><trkpt lat="59.3225641362" lon="34.6923896950"><ele>171.68</ele><time>2026-08-16T14:12:21Z</time></trkpt><trkpt lat="59.3225575145" lon="34.6924014296"><ele>171.72</ele><time>2026-08-16T14:12:22Z</time></trkpt><trkpt lat="59.3225710932" lon="34.6924079675"><ele>171.35</ele><time>2026-08-16T14:12:23Z</time></trkpt><trkpt lat="59.3225793913" lon="34.6924770344"><ele>171.40</ele><time>2026-08-16T14:12:34Z</time></trkpt><trkpt lat="59.3225719314" lon="34.6925643738"><ele>171.58</ele><time>2026-08-16T14:12:41Z</time></trkpt><trkpt lat="59.3225978315" lon="34.6926911920"><ele>171.36</ele><time>2026-08-16T14:12:49Z</time></trkpt><trkpt lat="59.3225843366" lon="34.6927824710"><ele>171.33</ele><time>2026-08-16T14:12:57Z</time></trkpt><trkpt lat="59.3225824926" lon="34.6928426530"><ele>171.70</ele><time>2026-08-16T14:13:02Z</time></trkpt><trkpt lat="59.3225674890" lon="34.6929337643"><ele>171.63</ele><time>2026-08-16T14:13:11Z</time></trkpt><trkpt lat="59.3225682434" lon="34.6929951198"><ele>171.58</ele><time>2026-08-16T14:13:17Z</time></trkpt><trkpt lat="59.3226041179" lon="34.6931110416"><ele>171.91</ele><time>2026-08-16T14:13:26Z</time></trkpt><trkpt lat="59.3226161879" lon="34.6931320801"><ele>171.91</ele><time>2026-08-16T14:13:30Z</time></trkpt><trkpt lat="59.3226703350" lon="34.6933589783"><ele>172.15</ele><time>2026-08-16T14:13:42Z</time></trkpt><trkpt lat="59.3226666469" lon="34.6935290471"><ele>172.80</ele><time>2026-08-16T14:13:56Z</time></trkpt><trkpt lat="59.3227158487" lon="34.6936894767"><ele>173.22</ele><time>2026-08-16T14:14:08Z</time></trkpt><trkpt lat="59.3227955606" lon="34.6937299613"><ele>172.92</ele><time>2026-08-16T14:14:23Z</time></trkpt><trkpt lat="59.3227960635" lon="34.6939192247"><ele>173.09</ele><time>2026-08-16T14:14:40Z</time></trkpt><trkpt lat="59.3228384759" lon="34.6941329632"><ele>173.68</ele><time>2026-08-16T14:14:54Z</time></trkpt><trkpt lat="59.3228636216" lon="34.6942814905"><ele>173.45</ele><time>2026-08-16T14:15:08Z</time></trkpt><trkpt lat="59.3228505459" lon="34.6944572590"><ele>173.41</ele><time>2026-08-16T14:15:23Z</time></trkpt><trkpt lat="59.3228260707" lon="34.6946829837"><ele>172.96</ele><time>2026-08-16T14:15:37Z</time></trkpt><trkpt lat="59.3227559980" lon="34.6947923675"><ele>172.42</ele><time>2026-08-16T14:15:53Z</time></trkpt><trkpt lat="59.3226835784" lon="34.6950540505"><ele>172.96</ele><time>2026-08-16T14:16:10Z</time></trkpt><trkpt lat="59.3226121645" lon="34.6952169109"><ele>172.95</ele><time>2026-08-16T14:16:27Z</time></trkpt><trkpt lat="59.3226127513" lon="34.6952962875"><ele>171.61</ele><time>2026-08-16T14:16:44Z</time></trkpt><trkpt lat="59.3226292636" lon="34.6953087766"><ele>173.12</ele><time>2026-08-16T14:16:50Z</time></trkpt><trkpt lat="59.3226222228" lon="34.6953379456"><ele>172.67</ele><time>2026-08-16T14:17:16Z</time></trkpt><trkpt lat="59.3226289283" lon="34.6953933500"><ele>172.72</ele><time>2026-08-16T14:17:49Z</time></trkpt><trkpt lat="59.3226081412" lon="34.6954060905"><ele>173.05</ele><time>2026-08-16T14:18:08Z</time></trkpt><trkpt lat="59.3225455284" lon="34.6955070924"><ele>173.97</ele><time>2026-08-16T14:18:24Z</time></trkpt><trkpt lat="59.3224664871" lon="34.6956685279"><ele>174.74</ele><time>2026-08-16T14:18:39Z</time></trkpt><trkpt lat="59.3224289361" lon="34.6958469786"><ele>175.76</ele><time>2026-08-16T14:18:57Z</time></trkpt><trkpt lat="59.3224235717" lon="34.6960139461"><ele>176.06</ele><time>2026-08-16T14:19:12Z</time></trkpt><trkpt lat="59.3224042933" lon="34.6961967554"><ele>176.19</ele><time>2026-08-16T14:19:26Z</time></trkpt><trkpt lat="59.3224052992" lon="34.6963372361"><ele>176.09</ele><time>2026-08-16T14:19:39Z</time></trkpt><trkpt lat="59.3224194646" lon="34.6965210512"><ele>176.13</ele><time>2026-08-16T14:19:54Z</time></trkpt><trkpt lat="59.3224352226" lon="34.6967962291"><ele>176.29</ele><time>2026-08-16T14:20:10Z</time></trkpt><trkpt lat="59.3223599531" lon="34.6969812177"><ele>176.17</ele><time>2026-08-16T14:20:25Z</time></trkpt><trkpt lat="59.3223128468" lon="34.6971310861"><ele>176.79</ele><time>2026-08-16T14:20:35Z</time></trkpt><trkpt lat="59.3223177921" lon="34.6970731672"><ele>176.45</ele><time>2026-08-16T14:20:54Z</time></trkpt><trkpt lat="59.3223488890" lon="34.6970978938"><ele>173.44</ele><time>2026-08-16T14:21:42Z</time></trkpt><trkpt lat="59.3223548401" lon="34.6971002407"><ele>173.45</ele><time>2026-08-16T14:21:43Z</time></trkpt><trkpt lat="59.3223876972" lon="34.6970997378"><ele>176.88</ele><time>2026-08-16T14:22:15Z</time></trkpt><trkpt lat="59.3223878648" lon="34.6970985644"><ele>176.91</ele><time>2026-08-16T14:22:16Z</time></trkpt><trkpt lat="59.3224124238" lon="34.6971309185"><ele>176.55</ele><time>2026-08-16T14:22:36Z</time></trkpt><trkpt lat="59.3223466258" lon="34.6970553976"><ele>176.55</ele><time>2026-08-16T14:23:12Z</time></trkpt><trkpt lat="59.3223712686" lon="34.6971333493"><ele>175.98</ele><time>2026-08-16T14:23:48Z</time></trkpt><trkpt lat="59.3223699275" lon="34.6971330140"><ele>176.78</ele><time>2026-08-16T14:24:11Z</time></trkpt><trkpt lat="59.3223323766" lon="34.6972434875"><ele>177.11</ele><time>2026-08-16T14:24:22Z</time></trkpt><trkpt lat="59.3222753797" lon="34.6973671205"><ele>177.45</ele><time>2026-08-16T14:24:35Z</time></trkpt><trkpt lat="59.3222106714" lon="34.6975077689"><ele>177.23</ele><time>2026-08-16T14:24:47Z</time></trkpt><trkpt lat="59.3221583683" lon="34.6976125427"><ele>177.47</ele><time>2026-08-16T14:25:03Z</time></trkpt><trkpt lat="59.3220806681" lon="34.6976625826"><ele>177.53</ele><time>2026-08-16T14:25:17Z</time></trkpt><trkpt lat="59.3219901435" lon="34.6978185698"><ele>177.72</ele><time>2026-08-16T14:25:31Z</time></trkpt><trkpt lat="59.3219356611" lon="34.6980007924"><ele>178.13</ele><time>2026-08-16T14:25:44Z</time></trkpt><trkpt lat="59.3219016306" lon="34.6981307957"><ele>178.60</ele><time>2026-08-16T14:25:57Z</time></trkpt><trkpt lat="59.3218448851" lon="34.6983715240"><ele>178.80</ele><time>2026-08-16T14:26:13Z</time></trkpt><trkpt lat="59.3218285404" lon="34.6985054668"><ele>178.75</ele><time>2026-08-16T14:26:25Z</time></trkpt><trkpt lat="59.3218329828" lon="34.6986839175"><ele>178.65</ele><time>2026-08-16T14:26:42Z</time></trkpt><trkpt lat="59.3217727169" lon="34.6988058742"><ele>178.42</ele><time>2026-08-16T14:26:55Z</time></trkpt><trkpt lat="59.3217644189" lon="34.6989634540"><ele>177.84</ele><time>2026-08-16T14:27:06Z</time></trkpt><trkpt lat="59.3216697872" lon="34.6991657931"><ele>177.08</ele><time>2026-08-16T14:27:21Z</time></trkpt><trkpt lat="59.3216765765" lon="34.6991890948"><ele>176.63</ele><time>2026-08-16T14:27:45Z</time></trkpt><trkpt lat="59.3216789234" lon="34.6992085408"><ele>176.12</ele><time>2026-08-16T14:28:11Z</time></trkpt><trkpt lat="59.3216354214" lon="34.6992509533"><ele>176.81</ele><time>2026-08-16T14:28:29Z</time></trkpt><trkpt lat="59.3215965293" lon="34.6993846446"><ele>177.03</ele><time>2026-08-16T14:28:43Z</time></trkpt><trkpt lat="59.3215489201" lon="34.6994824614"><ele>175.82</ele><time>2026-08-16T14:28:57Z</time></trkpt><trkpt lat="59.3215579726" lon="34.6994157415"><ele>175.76</ele><time>2026-08-16T14:29:17Z</time></trkpt><trkpt lat="59.3215163983" lon="34.6996266302"><ele>175.11</ele><time>2026-08-16T14:29:33Z</time></trkpt><trkpt lat="59.3214983772" lon="34.6998626646"><ele>174.03</ele><time>2026-08-16T14:29:47Z</time></trkpt><trkpt lat="59.3214961980" lon="34.6999815200"><ele>174.19</ele><time>2026-08-16T14:29:54Z</time></trkpt><trkpt lat="59.3215000536" lon="34.7002099268"><ele>174.29</ele><time>2026-08-16T14:30:09Z</time></trkpt><trkpt lat="59.3214974552" lon="34.7003889643"><ele>174.33</ele><time>2026-08-16T14:30:22Z</time></trkpt><trkpt lat="59.3214508519" lon="34.7005476337"><ele>174.37</ele><time>2026-08-16T14:30:36Z</time></trkpt><trkpt lat="59.3214204255" lon="34.7006144375"><ele>174.31</ele><time>2026-08-16T14:30:54Z</time></trkpt><trkpt lat="59.3214138877" lon="34.7007678263"><ele>174.52</ele><time>2026-08-16T14:31:07Z</time></trkpt><trkpt lat="59.3213319965" lon="34.7009583469"><ele>174.78</ele><time>2026-08-16T14:31:21Z</time></trkpt><trkpt lat="59.3213319965" lon="34.7011264879"><ele>176.16</ele><time>2026-08-16T14:31:35Z</time></trkpt><trkpt lat="59.3213092815" lon="34.7013246361"><ele>176.53</ele><time>2026-08-16T14:31:49Z</time></trkpt><trkpt lat="59.3213089462" lon="34.7014821321"><ele>175.39</ele><time>2026-08-16T14:32:03Z</time></trkpt><trkpt lat="59.3213129696" lon="34.7015981376"><ele>175.79</ele><time>2026-08-16T14:32:10Z</time></trkpt><trkpt lat="59.3213064317" lon="34.7018260416"><ele>176.17</ele><time>2026-08-16T14:32:23Z</time></trkpt><trkpt lat="59.3212820403" lon="34.7019729763"><ele>175.53</ele><time>2026-08-16T14:32:39Z</time></trkpt><trkpt lat="59.3212748319" lon="34.7020409536"><ele>176.72</ele><time>2026-08-16T14:33:01Z</time></trkpt><trkpt lat="59.3212306593" lon="34.7020557895"><ele>176.33</ele><time>2026-08-16T14:33:35Z</time></trkpt><trkpt lat="59.3212174997" lon="34.7022637445"><ele>175.34</ele><time>2026-08-16T14:33:48Z</time></trkpt><trkpt lat="59.3211985566" lon="34.7023031395"><ele>175.32</ele><time>2026-08-16T14:33:57Z</time></trkpt><trkpt lat="59.3211601675" lon="34.7024458833"><ele>174.01</ele><time>2026-08-16T14:34:07Z</time></trkpt><trkpt lat="59.3211449962" lon="34.7024795786"><ele>175.79</ele><time>2026-08-16T14:34:37Z</time></trkpt><trkpt lat="59.3210760970" lon="34.7025772277"><ele>176.17</ele><time>2026-08-16T14:34:45Z</time></trkpt><trkpt lat="59.3210418988" lon="34.7026394214"><ele>176.18</ele><time>2026-08-16T14:34:50Z</time></trkpt><trkpt lat="59.3209719937" lon="34.7028059699"><ele>176.10</ele><time>2026-08-16T14:35:05Z</time></trkpt><trkpt lat="59.3209693953" lon="34.7028199676"><ele>176.07</ele><time>2026-08-16T14:35:06Z</time></trkpt><trkpt lat="59.3208933715" lon="34.7029379848"><ele>176.00</ele><time>2026-08-16T14:35:23Z</time></trkpt><trkpt lat="59.3208467681" lon="34.7030064650"><ele>174.96</ele><time>2026-08-16T14:35:36Z</time></trkpt><trkpt lat="59.3207938783" lon="34.7031734325"><ele>173.61</ele><time>2026-08-16T14:35:49Z</time></trkpt><trkpt lat="59.3208278250" lon="34.7033027653"><ele>173.40</ele><time>2026-08-16T14:36:04Z</time></trkpt><trkpt lat="59.3208189402" lon="34.7034378815"><ele>173.57</ele><time>2026-08-16T14:36:19Z</time></trkpt><trkpt lat="59.3207996618" lon="34.7035491932"><ele>173.07</ele><time>2026-08-16T14:36:33Z</time></trkpt><trkpt lat="59.3207856640" lon="34.7037873231"><ele>173.15</ele><time>2026-08-16T14:36:50Z</time></trkpt><trkpt lat="59.3208015896" lon="34.7038320825"><ele>172.96</ele><time>2026-08-16T14:37:09Z</time></trkpt><trkpt lat="59.3207999971" lon="34.7039708868"><ele>172.95</ele><time>2026-08-16T14:37:24Z</time></trkpt><trkpt lat="59.3208387215" lon="34.7041033208"><ele>172.58</ele><time>2026-08-16T14:37:38Z</time></trkpt><trkpt lat="59.3207952194" lon="34.7043424565"><ele>171.99</ele><time>2026-08-16T14:37:52Z</time></trkpt><trkpt lat="59.3207553215" lon="34.7044882178"><ele>170.80</ele><time>2026-08-16T14:38:02Z</time></trkpt><trkpt lat="59.3207496218" lon="34.7045964282"><ele>169.87</ele><time>2026-08-16T14:38:17Z</time></trkpt><trkpt lat="59.3206928764" lon="34.7047168761"><ele>168.26</ele><time>2026-08-16T14:38:29Z</time></trkpt><trkpt lat="59.3206934631" lon="34.7047080752"><ele>170.28</ele><time>2026-08-16T14:38:31Z</time></trkpt><trkpt lat="59.3206667248" lon="34.7047943249"><ele>169.34</ele><time>2026-08-16T14:38:43Z</time></trkpt><trkpt lat="59.3206241447" lon="34.7049128450"><ele>169.40</ele><time>2026-08-16T14:38:56Z</time></trkpt><trkpt lat="59.3206302635" lon="34.7049726918"><ele>169.31</ele><time>2026-08-16T14:39:10Z</time></trkpt><trkpt lat="59.3205849174" lon="34.7050641384"><ele>169.58</ele><time>2026-08-16T14:39:21Z</time></trkpt><trkpt lat="59.3205803912" lon="34.7051906213"><ele>169.21</ele><time>2026-08-16T14:39:38Z</time></trkpt><trkpt lat="59.3206088897" lon="34.7051314451"><ele>170.43</ele><time>2026-08-16T14:40:04Z</time></trkpt><trkpt lat="59.3206055369" lon="34.7051106580"><ele>168.13</ele><time>2026-08-16T14:40:23Z</time></trkpt><trkpt lat="59.3205938861" lon="34.7050897870"><ele>169.39</ele><time>2026-08-16T14:40:56Z</time></trkpt><trkpt lat="59.3205557484" lon="34.7051923815"><ele>169.31</ele><time>2026-08-16T14:41:13Z</time></trkpt><trkpt lat="59.3205671478" lon="34.7053328622"><ele>169.55</ele><time>2026-08-16T14:41:20Z</time></trkpt><trkpt lat="59.3205235619" lon="34.7054102272"><ele>169.36</ele><time>2026-08-16T14:41:33Z</time></trkpt><trkpt lat="59.3204744440" lon="34.7055893485"><ele>169.09</ele><time>2026-08-16T14:41:49Z</time></trkpt><trkpt lat="59.3204969075" lon="34.7057624348"><ele>169.31</ele><time>2026-08-16T14:42:02Z</time></trkpt><trkpt lat="59.3204996735" lon="34.7059542965"><ele>168.94</ele><time>2026-08-16T14:42:17Z</time></trkpt><trkpt lat="59.3205106538" lon="34.7061195038"><ele>169.80</ele><time>2026-08-16T14:42:31Z</time></trkpt><trkpt lat="59.3204586860" lon="34.7063097730"><ele>169.97</ele><time>2026-08-16T14:42:44Z</time></trkpt><trkpt lat="59.3204645533" lon="34.7063454799"><ele>169.73</ele><time>2026-08-16T14:42:48Z</time></trkpt><trkpt lat="59.3204635475" lon="34.7064390220"><ele>169.64</ele><time>2026-08-16T14:43:00Z</time></trkpt><trkpt lat="59.3204578478" lon="34.7064361721"><ele>168.77</ele><time>2026-08-16T14:43:32Z</time></trkpt><trkpt lat="59.3204888608" lon="34.7064583842"><ele>170.06</ele><time>2026-08-16T14:43:43Z</time></trkpt><trkpt lat="59.3204373959" lon="34.7066083364"><ele>169.77</ele><time>2026-08-16T14:43:59Z</time></trkpt><trkpt lat="59.3203961570" lon="34.7066994477"><ele>169.20</ele><time>2026-08-16T14:44:14Z</time></trkpt><trkpt lat="59.3203822430" lon="34.7067332268"><ele>169.65</ele><time>2026-08-16T14:44:30Z</time></trkpt><trkpt lat="59.3203669880" lon="34.7067972645"><ele>169.21</ele><time>2026-08-16T14:44:43Z</time></trkpt><trkpt lat="59.3203291856" lon="34.7069211490"><ele>169.15</ele><time>2026-08-16T14:44:59Z</time></trkpt><trkpt lat="59.3203189597" lon="34.7069268487"><ele>164.80</ele><time>2026-08-16T14:45:02Z</time></trkpt><trkpt lat="59.3203137629" lon="34.7069279384"><ele>164.80</ele><time>2026-08-16T14:45:03Z</time></trkpt><trkpt lat="59.3203020282" lon="34.7069370747"><ele>169.09</ele><time>2026-08-16T14:45:19Z</time></trkpt><trkpt lat="59.3203013577" lon="34.7069405951"><ele>169.07</ele><time>2026-08-16T14:45:20Z</time></trkpt><trkpt lat="59.3203222286" lon="34.7069682553"><ele>168.70</ele><time>2026-08-16T14:45:41Z</time></trkpt><trkpt lat="59.3203051295" lon="34.7070076503"><ele>169.07</ele><time>2026-08-16T14:46:13Z</time></trkpt><trkpt lat="59.3203540798" lon="34.7071044613"><ele>168.76</ele><time>2026-08-16T14:46:28Z</time></trkpt><trkpt lat="59.3203902896" lon="34.7072892822"><ele>169.27</ele><time>2026-08-16T14:46:42Z</time></trkpt><trkpt lat="59.3203964923" lon="34.7074834909"><ele>169.40</ele><time>2026-08-16T14:47:00Z</time></trkpt><trkpt lat="59.3203768786" lon="34.7076391429"><ele>169.02</ele><time>2026-08-16T14:47:11Z</time></trkpt><trkpt lat="59.3203485478" lon="34.7076828964"><ele>168.89</ele><time>2026-08-16T14:47:26Z</time></trkpt><trkpt lat="59.3203415908" lon="34.7078526299"><ele>168.96</ele><time>2026-08-16T14:47:44Z</time></trkpt><trkpt lat="59.3203128409" lon="34.7080037557"><ele>169.32</ele><time>2026-08-16T14:48:01Z</time></trkpt><trkpt lat="59.3203311972" lon="34.7080866527"><ele>169.54</ele><time>2026-08-16T14:48:13Z</time></trkpt><trkpt lat="59.3203576840" lon="34.7081934381"><ele>170.07</ele><time>2026-08-16T14:48:36Z</time></trkpt><trkpt lat="59.3203884456" lon="34.7082070168"><ele>170.04</ele><time>2026-08-16T14:48:51Z</time></trkpt><trkpt lat="59.3203815725" lon="34.7083281353"><ele>170.38</ele><time>2026-08-16T14:49:02Z</time></trkpt><trkpt lat="59.3203477934" lon="34.7084547859"><ele>170.14</ele><time>2026-08-16T14:49:18Z</time></trkpt><trkpt lat="59.3203803990" lon="34.7083976213"><ele>169.47</ele><time>2026-08-16T14:49:38Z</time></trkpt><trkpt lat="59.3203633837" lon="34.7084320709"><ele>169.35</ele><time>2026-08-16T14:50:01Z</time></trkpt><trkpt lat="59.3203536607" lon="34.7085317317"><ele>170.41</ele><time>2026-08-16T14:50:41Z</time></trkpt><trkpt lat="59.3204733543" lon="34.7084593959"><ele>170.04</ele><time>2026-08-16T14:51:05Z</time></trkpt><trkpt lat="59.3204582669" lon="34.7083899938"><ele>169.68</ele><time>2026-08-16T14:51:18Z</time></trkpt><trkpt lat="59.3204446882" lon="34.7085288819"><ele>170.10</ele><time>2026-08-16T14:51:32Z</time></trkpt><trkpt lat="59.3204893637" lon="34.7086810973"><ele>170.66</ele><time>2026-08-16T14:51:45Z</time></trkpt><trkpt lat="59.3205901980" lon="34.7087214980"><ele>169.56</ele><time>2026-08-16T14:52:07Z</time></trkpt><trkpt lat="59.3206937984" lon="34.7087632399"><ele>169.21</ele><time>2026-08-16T14:52:24Z</time></trkpt><trkpt lat="59.3207657989" lon="34.7087296285"><ele>168.75</ele><time>2026-08-16T14:52:38Z</time></trkpt><trkpt lat="59.3208807148" lon="34.7087206598"><ele>168.77</ele><time>2026-08-16T14:52:51Z</time></trkpt><trkpt lat="59.3209457584" lon="34.7087535169"><ele>169.26</ele><time>2026-08-16T14:53:06Z</time></trkpt><trkpt lat="59.3209777772" lon="34.7087357473"><ele>169.06</ele><time>2026-08-16T14:53:25Z</time></trkpt><trkpt lat="59.3210541364" lon="34.7088913992"><ele>169.37</ele><time>2026-08-16T14:53:45Z</time></trkpt><trkpt lat="59.3210794497" lon="34.7088801675"><ele>169.20</ele><time>2026-08-16T14:54:03Z</time></trkpt><trkpt lat="59.3211810384" lon="34.7087524273"><ele>170.73</ele><time>2026-08-16T14:54:20Z</time></trkpt><trkpt lat="59.3212832976" lon="34.7088114358"><ele>170.52</ele><time>2026-08-16T14:54:37Z</time></trkpt><trkpt lat="59.3213152327" lon="34.7088306304"><ele>170.93</ele><time>2026-08-16T14:54:41Z</time></trkpt><trkpt lat="59.3213531189" lon="34.7089528386"><ele>170.71</ele><time>2026-08-16T14:54:53Z</time></trkpt><trkpt lat="59.3214616645" lon="34.7089891322"><ele>170.32</ele><time>2026-08-16T14:55:08Z</time></trkpt><trkpt lat="59.3215367664" lon="34.7089745477"><ele>170.86</ele><time>2026-08-16T14:55:24Z</time></trkpt><trkpt lat="59.3215921707" lon="34.7090489790"><ele>171.59</ele><time>2026-08-16T14:55:40Z</time></trkpt><trkpt lat="59.3216357566" lon="34.7089936584"><ele>171.25</ele><time>2026-08-16T14:56:01Z</time></trkpt><trkpt lat="59.3216161430" lon="34.7090037167"><ele>171.39</ele><time>2026-08-16T14:56:23Z</time></trkpt><trkpt lat="59.3216655962" lon="34.7090383340"><ele>171.56</ele><time>2026-08-16T14:56:47Z</time></trkpt><trkpt lat="59.3217210844" lon="34.7089989390"><ele>171.64</ele><time>2026-08-16T14:57:02Z</time></trkpt><trkpt lat="59.3218028080" lon="34.7088883817"><ele>171.94</ele><time>2026-08-16T14:57:16Z</time></trkpt><trkpt lat="59.3218704499" lon="34.7089686804"><ele>171.80</ele><time>2026-08-16T14:57:26Z</time></trkpt><trkpt lat="59.3219362479" lon="34.7091324627"><ele>171.78</ele><time>2026-08-16T14:57:41Z</time></trkpt><trkpt lat="59.3219779897" lon="34.7091929801"><ele>170.97</ele><time>2026-08-16T14:57:51Z</time></trkpt><trkpt lat="59.3220751360" lon="34.7093256656"><ele>170.88</ele><time>2026-08-16T14:58:09Z</time></trkpt><trkpt lat="59.3221032992" lon="34.7092676628"><ele>171.39</ele><time>2026-08-16T14:58:25Z</time></trkpt><trkpt lat="59.3221859448" lon="34.7092174552"><ele>171.25</ele><time>2026-08-16T14:58:45Z</time></trkpt><trkpt lat="59.3222254235" lon="34.7092709318"><ele>171.67</ele><time>2026-08-16T14:59:01Z</time></trkpt><trkpt lat="59.3223298620" lon="34.7093349695"><ele>171.64</ele><time>2026-08-16T14:59:20Z</time></trkpt><trkpt lat="59.3223925587" lon="34.7094323672"><ele>171.68</ele><time>2026-08-16T14:59:38Z</time></trkpt><trkpt lat="59.3224756233" lon="34.7094471194"><ele>172.57</ele><time>2026-08-16T14:59:56Z</time></trkpt><trkpt lat="59.3225158565" lon="34.7093965765"><ele>165.22</ele><time>2026-08-16T15:00:35Z</time></trkpt><trkpt lat="59.3225172814" lon="34.7093956545"><ele>165.22</ele><time>2026-08-16T15:00:36Z</time></trkpt><trkpt lat="59.3225331232" lon="34.7093822435"><ele>172.94</ele><time>2026-08-16T15:00:46Z</time></trkpt><trkpt lat="59.3225359730" lon="34.7093790583"><ele>172.57</ele><time>2026-08-16T15:00:47Z</time></trkpt><trkpt lat="59.3225409184" lon="34.7094121668"><ele>173.29</ele><time>2026-08-16T15:01:06Z</time></trkpt><trkpt lat="59.3226075545" lon="34.7092791460"><ele>173.80</ele><time>2026-08-16T15:01:23Z</time></trkpt><trkpt lat="59.3226260785" lon="34.7091920581"><ele>173.77</ele><time>2026-08-16T15:01:39Z</time></trkpt><trkpt lat="59.3226601928" lon="34.7091495618"><ele>173.96</ele><time>2026-08-16T15:02:11Z</time></trkpt><trkpt lat="59.3226859253" lon="34.7090045549"><ele>173.86</ele><time>2026-08-16T15:02:28Z</time></trkpt><trkpt lat="59.3226912897" lon="34.7090345621"><ele>173.60</ele><time>2026-08-16T15:02:50Z</time></trkpt><trkpt lat="59.3227237277" lon="34.7092326265"><ele>173.84</ele><time>2026-08-16T15:03:21Z</time></trkpt><trkpt lat="59.3226769567" lon="34.7090455424"><ele>173.69</ele><time>2026-08-16T15:03:55Z</time></trkpt><trkpt lat="59.3227206264" lon="34.7090452909"><ele>173.38</ele><time>2026-08-16T15:04:02Z</time></trkpt><trkpt lat="59.3227247335" lon="34.7089589573"><ele>173.69</ele><time>2026-08-16T15:04:19Z</time></trkpt><trkpt lat="59.3228115700" lon="34.7089648247"><ele>173.62</ele><time>2026-08-16T15:04:46Z</time></trkpt><trkpt lat="59.3228164315" lon="34.7090873681"><ele>173.99</ele><time>2026-08-16T15:05:13Z</time></trkpt><trkpt lat="59.3228289206" lon="34.7090354841"><ele>173.85</ele><time>2026-08-16T15:05:31Z</time></trkpt><trkpt lat="59.3228509650" lon="34.7088918183"><ele>174.12</ele><time>2026-08-16T15:05:48Z</time></trkpt><trkpt lat="59.3228641246" lon="34.7090288624"><ele>173.77</ele><time>2026-08-16T15:06:31Z</time></trkpt><trkpt lat="59.3229125720" lon="34.7089440376"><ele>173.96</ele><time>2026-08-16T15:06:50Z</time></trkpt><trkpt lat="59.3229421601" lon="34.7087542713"><ele>174.15</ele><time>2026-08-16T15:07:04Z</time></trkpt><trkpt lat="59.3229390588" lon="34.7085565422"><ele>174.21</ele><time>2026-08-16T15:07:17Z</time></trkpt><trkpt lat="59.3230069522" lon="34.7083717212"><ele>175.21</ele><time>2026-08-16T15:07:36Z</time></trkpt><trkpt lat="59.3231321778" lon="34.7082536202"><ele>175.66</ele><time>2026-08-16T15:07:49Z</time></trkpt><trkpt lat="59.3232189305" lon="34.7080971301"><ele>176.06</ele><time>2026-08-16T15:08:02Z</time></trkpt><trkpt lat="59.3232673779" lon="34.7078516241"><ele>177.31</ele><time>2026-08-16T15:08:29Z</time></trkpt><trkpt lat="59.3233225308" lon="34.7076783702"><ele>178.00</ele><time>2026-08-16T15:08:46Z</time></trkpt><trkpt lat="59.3233481795" lon="34.7075108998"><ele>178.41</ele><time>2026-08-16T15:08:59Z</time></trkpt><trkpt lat="59.3233612552" lon="34.7074142564"><ele>178.76</ele><time>2026-08-16T15:09:22Z</time></trkpt><trkpt lat="59.3234161567" lon="34.7072475404"><ele>179.90</ele><time>2026-08-16T15:09:43Z</time></trkpt><trkpt lat="59.3234742433" lon="34.7072207183"><ele>179.37</ele><time>2026-08-16T15:10:08Z</time></trkpt><trkpt lat="59.3234477565" lon="34.7071316186"><ele>179.01</ele><time>2026-08-16T15:10:27Z</time></trkpt><trkpt lat="59.3234794401" lon="34.7071566805"><ele>178.81</ele><time>2026-08-16T15:10:58Z</time></trkpt><trkpt lat="59.3235407956" lon="34.7071922198"><ele>178.82</ele><time>2026-08-16T15:11:24Z</time></trkpt><trkpt lat="59.3235028256" lon="34.7072092351"><ele>178.96</ele><time>2026-08-16T15:11:37Z</time></trkpt><trkpt lat="59.3234496843" lon="34.7072101571"><ele>177.78</ele><time>2026-08-16T15:12:08Z</time></trkpt><trkpt lat="59.3234218564" lon="34.7071953211"><ele>179.01</ele><time>2026-08-16T15:12:24Z</time></trkpt><trkpt lat="59.3234223593" lon="34.7071865201"><ele>179.25</ele><time>2026-08-16T15:12:55Z</time></trkpt><trkpt lat="59.3234281428" lon="34.7072710935"><ele>179.55</ele><time>2026-08-16T15:13:24Z</time></trkpt><trkpt lat="59.3234243710" lon="34.7072664835"><ele>179.36</ele><time>2026-08-16T15:14:03Z</time></trkpt><trkpt lat="59.3234018236" lon="34.7071217280"><ele>179.39</ele><time>2026-08-16T15:14:31Z</time></trkpt><trkpt lat="59.3233615905" lon="34.7070616297"><ele>179.72</ele><time>2026-08-16T15:14:45Z</time></trkpt><trkpt lat="59.3233314995" lon="34.7069339734"><ele>179.44</ele><time>2026-08-16T15:15:01Z</time></trkpt><trkpt lat="59.3232650310" lon="34.7068137769"><ele>179.21</ele><time>2026-08-16T15:15:18Z</time></trkpt><trkpt lat="59.3232384603" lon="34.7066331469"><ele>178.39</ele><time>2026-08-16T15:15:34Z</time></trkpt><trkpt lat="59.3232324254" lon="34.7065046523"><ele>177.20</ele><time>2026-08-16T15:15:43Z</time></trkpt><trkpt lat="59.3231961317" lon="34.7064069193"><ele>176.12</ele><time>2026-08-16T15:15:55Z</time></trkpt><trkpt lat="59.3231166713" lon="34.7063122876"><ele>174.41</ele><time>2026-08-16T15:16:12Z</time></trkpt><trkpt lat="59.3230584171" lon="34.7062034905"><ele>174.04</ele><time>2026-08-16T15:16:27Z</time></trkpt><trkpt lat="59.3230280746" lon="34.7061016504"><ele>174.22</ele><time>2026-08-16T15:16:53Z</time></trkpt><trkpt lat="59.3230192736" lon="34.7061026562"><ele>173.91</ele><time>2026-08-16T15:17:30Z</time></trkpt><trkpt lat="59.3230119813" lon="34.7060703859"><ele>174.01</ele><time>2026-08-16T15:18:15Z</time></trkpt><trkpt lat="59.3230413180" lon="34.7059964575"><ele>173.90</ele><time>2026-08-16T15:18:37Z</time></trkpt><trkpt lat="59.3230271526" lon="34.7057546396"><ele>174.56</ele><time>2026-08-16T15:18:52Z</time></trkpt><trkpt lat="59.3230719958" lon="34.7056704853"><ele>175.09</ele><time>2026-08-16T15:19:10Z</time></trkpt><trkpt lat="59.3231428228" lon="34.7054530587"><ele>174.32</ele><time>2026-08-16T15:19:23Z</time></trkpt><trkpt lat="59.3231854867" lon="34.7052502166"><ele>173.85</ele><time>2026-08-16T15:19:39Z</time></trkpt><trkpt lat="59.3232119735" lon="34.7050857637"><ele>174.36</ele><time>2026-08-16T15:19:55Z</time></trkpt><trkpt lat="59.3232684676" lon="34.7050389927"><ele>173.67</ele><time>2026-08-16T15:20:09Z</time></trkpt><trkpt lat="59.3232802860" lon="34.7050100751"><ele>173.83</ele><time>2026-08-16T15:20:13Z</time></trkpt><trkpt lat="59.3233280629" lon="34.7048587818"><ele>174.46</ele><time>2026-08-16T15:20:25Z</time></trkpt><trkpt lat="59.3233563937" lon="34.7047665808"><ele>175.49</ele><time>2026-08-16T15:20:39Z</time></trkpt><trkpt lat="59.3234095350" lon="34.7047802433"><ele>175.73</ele><time>2026-08-16T15:20:56Z</time></trkpt><trkpt lat="59.3234296516" lon="34.7047276888"><ele>175.68</ele><time>2026-08-16T15:21:00Z</time></trkpt><trkpt lat="59.3235272169" lon="34.7045078315"><ele>175.50</ele><time>2026-08-16T15:21:10Z</time></trkpt><trkpt lat="59.3236123770" lon="34.7043812647"><ele>175.59</ele><time>2026-08-16T15:21:23Z</time></trkpt><trkpt lat="59.3236765824" lon="34.7043748945"><ele>175.58</ele><time>2026-08-16T15:21:43Z</time></trkpt><trkpt lat="59.3236628361" lon="34.7043654229"><ele>175.39</ele><time>2026-08-16T15:21:58Z</time></trkpt><trkpt lat="59.3236731458" lon="34.7043849528"><ele>175.42</ele><time>2026-08-16T15:22:13Z</time></trkpt><trkpt lat="59.3236647639" lon="34.7042496689"><ele>175.43</ele><time>2026-08-16T15:22:35Z</time></trkpt><trkpt lat="59.3236635905" lon="34.7041135468"><ele>175.32</ele><time>2026-08-16T15:22:47Z</time></trkpt><trkpt lat="59.3236377742" lon="34.7038447391"><ele>175.63</ele><time>2026-08-16T15:23:10Z</time></trkpt><trkpt lat="59.3235815316" lon="34.7037424799"><ele>175.63</ele><time>2026-08-16T15:23:26Z</time></trkpt><trkpt lat="59.3235765863" lon="34.7037125565"><ele>175.72</ele><time>2026-08-16T15:23:28Z</time></trkpt><trkpt lat="59.3235739879" lon="34.7036011610"><ele>175.37</ele><time>2026-08-16T15:23:34Z</time></trkpt><trkpt lat="59.3235558830" lon="34.7034505382"><ele>175.12</ele><time>2026-08-16T15:23:47Z</time></trkpt><trkpt lat="59.3234916776" lon="34.7033811361"><ele>175.47</ele><time>2026-08-16T15:23:58Z</time></trkpt><trkpt lat="59.3235255405" lon="34.7032767814"><ele>175.14</ele><time>2026-08-16T15:24:12Z</time></trkpt><trkpt lat="59.3235729821" lon="34.7032781225"><ele>175.19</ele><time>2026-08-16T15:24:27Z</time></trkpt><trkpt lat="59.3235814478" lon="34.7031943873"><ele>175.80</ele><time>2026-08-16T15:24:59Z</time></trkpt><trkpt lat="59.3235793523" lon="34.7031806409"><ele>175.76</ele><time>2026-08-16T15:25:00Z</time></trkpt><trkpt lat="59.3235613313" lon="34.7029757872"><ele>176.28</ele><time>2026-08-16T15:25:16Z</time></trkpt><trkpt lat="59.3235572241" lon="34.7027930617"><ele>177.72</ele><time>2026-08-16T15:25:31Z</time></trkpt><trkpt lat="59.3235543743" lon="34.7026185505"><ele>178.77</ele><time>2026-08-16T15:25:45Z</time></trkpt><trkpt lat="59.3235542905" lon="34.7024201509"><ele>178.89</ele><time>2026-08-16T15:25:59Z</time></trkpt><trkpt lat="59.3235401250" lon="34.7023378406"><ele>179.92</ele><time>2026-08-16T15:26:11Z</time></trkpt><trkpt lat="59.3235223554" lon="34.7023160476"><ele>176.53</ele><time>2026-08-16T15:26:22Z</time></trkpt><trkpt lat="59.3235235289" lon="34.7023167182"><ele>176.85</ele><time>2026-08-16T15:26:23Z</time></trkpt><trkpt lat="59.3235234451" lon="34.7023140360"><ele>180.33</ele><time>2026-08-16T15:26:26Z</time></trkpt><trkpt lat="59.3235365208" lon="34.7022556979"><ele>178.02</ele><time>2026-08-16T15:26:46Z</time></trkpt><trkpt lat="59.3235357665" lon="34.7022125311"><ele>178.45</ele><time>2026-08-16T15:27:18Z</time></trkpt><trkpt lat="59.3235684559" lon="34.7020729724"><ele>176.93</ele><time>2026-08-16T15:27:33Z</time></trkpt><trkpt lat="59.3235774245" lon="34.7019435558"><ele>176.02</ele><time>2026-08-16T15:27:46Z</time></trkpt><trkpt lat="59.3236302305" lon="34.7017666977"><ele>175.43</ele><time>2026-08-16T15:27:59Z</time></trkpt><trkpt lat="59.3236857187" lon="34.7016490996"><ele>175.21</ele><time>2026-08-16T15:28:11Z</time></trkpt><trkpt lat="59.3236952741" lon="34.7014782764"><ele>174.50</ele><time>2026-08-16T15:28:23Z</time></trkpt><trkpt lat="59.3237469904" lon="34.7012393922"><ele>174.22</ele><time>2026-08-16T15:28:40Z</time></trkpt><trkpt lat="59.3237378541" lon="34.7010630369"><ele>173.54</ele><time>2026-08-16T15:28:53Z</time></trkpt><trkpt lat="59.3237345852" lon="34.7008668166"><ele>173.23</ele><time>2026-08-16T15:29:10Z</time></trkpt><trkpt lat="59.3237389438" lon="34.7007187922"><ele>173.15</ele><time>2026-08-16T15:29:24Z</time></trkpt><trkpt lat="59.3237176538" lon="34.7004338913"><ele>172.99</ele><time>2026-08-16T15:29:39Z</time></trkpt><trkpt lat="59.3237231858" lon="34.7003296204"><ele>172.62</ele><time>2026-08-16T15:29:52Z</time></trkpt><trkpt lat="59.3237201683" lon="34.7001946718"><ele>172.80</ele><time>2026-08-16T15:30:12Z</time></trkpt><trkpt lat="59.3237134628" lon="34.7000151314"><ele>172.79</ele><time>2026-08-16T15:30:36Z</time></trkpt><trkpt lat="59.3237100262" lon="34.7000610642"><ele>172.58</ele><time>2026-08-16T15:31:00Z</time></trkpt><trkpt lat="59.3236858863" lon="34.7001242638"><ele>172.66</ele><time>2026-08-16T15:31:18Z</time></trkpt><trkpt lat="59.3237265386" lon="34.7000239324"><ele>172.74</ele><time>2026-08-16T15:31:38Z</time></trkpt><trkpt lat="59.3238038197" lon="34.6998128761"><ele>172.81</ele><time>2026-08-16T15:31:50Z</time></trkpt><trkpt lat="59.3238549493" lon="34.6995907556"><ele>172.81</ele><time>2026-08-16T15:32:04Z</time></trkpt><trkpt lat="59.3238999601" lon="34.6994216926"><ele>173.45</ele><time>2026-08-16T15:32:16Z</time></trkpt><trkpt lat="59.3239100184" lon="34.6992946230"><ele>173.40</ele><time>2026-08-16T15:32:30Z</time></trkpt><trkpt lat="59.3239301350" lon="34.6991282422"><ele>173.51</ele><time>2026-08-16T15:32:43Z</time></trkpt><trkpt lat="59.3239621539" lon="34.6989551559"><ele>173.19</ele><time>2026-08-16T15:32:55Z</time></trkpt><trkpt lat="59.3239758164" lon="34.6989432536"><ele>173.39</ele><time>2026-08-16T15:32:59Z</time></trkpt><trkpt lat="59.3240318913" lon="34.6987620369"><ele>172.81</ele><time>2026-08-16T15:33:15Z</time></trkpt><trkpt lat="59.3240851164" lon="34.6986392420"><ele>172.11</ele><time>2026-08-16T15:33:29Z</time></trkpt><trkpt lat="59.3241282832" lon="34.6984544210"><ele>171.21</ele><time>2026-08-16T15:33:45Z</time></trkpt><trkpt lat="59.3241379224" lon="34.6983024571"><ele>171.39</ele><time>2026-08-16T15:33:59Z</time></trkpt><trkpt lat="59.3241563626" lon="34.6982089989"><ele>171.55</ele><time>2026-08-16T15:34:11Z</time></trkpt><trkpt lat="59.3241369165" lon="34.6980525926"><ele>171.44</ele><time>2026-08-16T15:34:30Z</time></trkpt><trkpt lat="59.3241800833" lon="34.6979347430"><ele>171.59</ele><time>2026-08-16T15:34:43Z</time></trkpt><trkpt lat="59.3241611402" lon="34.6980028879"><ele>171.55</ele><time>2026-08-16T15:35:17Z</time></trkpt><trkpt lat="59.3242049776" lon="34.6980240941"><ele>170.88</ele><time>2026-08-16T15:35:51Z</time></trkpt><trkpt lat="59.3241670914" lon="34.6980272792"><ele>171.10</ele><time>2026-08-16T15:36:18Z</time></trkpt><trkpt lat="59.3241114356" lon="34.6979050711"><ele>171.12</ele><time>2026-08-16T15:36:29Z</time></trkpt><trkpt lat="59.3241466396" lon="34.6976990439"><ele>171.55</ele><time>2026-08-16T15:36:42Z</time></trkpt><trkpt lat="59.3241417781" lon="34.6974521969"><ele>171.73</ele><time>2026-08-16T15:36:57Z</time></trkpt><trkpt lat="59.3241070770" lon="34.6973096207"><ele>171.19</ele><time>2026-08-16T15:37:13Z</time></trkpt><trkpt lat="59.3241076637" lon="34.6972083673"><ele>171.63</ele><time>2026-08-16T15:37:38Z</time></trkpt><trkpt lat="59.3242137786" lon="34.6967201214"><ele>171.45</ele><time>2026-08-16T15:38:06Z</time></trkpt><trkpt lat="59.3242956698" lon="34.6964982525"><ele>170.78</ele><time>2026-08-16T15:38:19Z</time></trkpt><trkpt lat="59.3243392557" lon="34.6964372322"><ele>170.43</ele><time>2026-08-16T15:38:29Z</time></trkpt><trkpt lat="59.3243998569" lon="34.6962128486"><ele>169.68</ele><time>2026-08-16T15:38:42Z</time></trkpt><trkpt lat="59.3244047184" lon="34.6960584540"><ele>168.48</ele><time>2026-08-16T15:38:56Z</time></trkpt><trkpt lat="59.3244802393" lon="34.6958979405"><ele>168.62</ele><time>2026-08-16T15:39:10Z</time></trkpt><trkpt lat="59.3244755454" lon="34.6958240960"><ele>168.54</ele><time>2026-08-16T15:39:26Z</time></trkpt><trkpt lat="59.3244425207" lon="34.6958216652"><ele>167.78</ele><time>2026-08-16T15:40:05Z</time></trkpt><trkpt lat="59.3244407605" lon="34.6957835276"><ele>168.94</ele><time>2026-08-16T15:40:35Z</time></trkpt><trkpt lat="59.3243995216" lon="34.6958025545"><ele>169.06</ele><time>2026-08-16T15:40:47Z</time></trkpt><trkpt lat="59.3243908882" lon="34.6956940927"><ele>169.38</ele><time>2026-08-16T15:41:02Z</time></trkpt><trkpt lat="59.3244157825" lon="34.6954754926"><ele>169.70</ele><time>2026-08-16T15:41:15Z</time></trkpt><trkpt lat="59.3244136870" lon="34.6952915937"><ele>168.95</ele><time>2026-08-16T15:41:28Z</time></trkpt><trkpt lat="59.3243964203" lon="34.6952755842"><ele>169.06</ele><time>2026-08-16T15:41:51Z</time></trkpt><trkpt lat="59.3244377431" lon="34.6949757636"><ele>168.56</ele><time>2026-08-16T15:42:05Z</time></trkpt><trkpt lat="59.3244275171" lon="34.6947380528"><ele>168.41</ele><time>2026-08-16T15:42:19Z</time></trkpt><trkpt lat="59.3244043831" lon="34.6945906989"><ele>168.61</ele><time>2026-08-16T15:42:32Z</time></trkpt><trkpt lat="59.3244374078" lon="34.6944318619"><ele>168.96</ele><time>2026-08-16T15:42:47Z</time></trkpt><trkpt lat="59.3244408444" lon="34.6943275910"><ele>168.55</ele><time>2026-08-16T15:43:00Z</time></trkpt><trkpt lat="59.3244776409" lon="34.6940800734"><ele>169.06</ele><time>2026-08-16T15:43:16Z</time></trkpt><trkpt lat="59.3245014455" lon="34.6938756388"><ele>168.84</ele><time>2026-08-16T15:43:30Z</time></trkpt><trkpt lat="59.3245393317" lon="34.6937137842"><ele>169.26</ele><time>2026-08-16T15:43:45Z</time></trkpt><trkpt lat="59.3245799839" lon="34.6934961900"><ele>169.53</ele><time>2026-08-16T15:44:02Z</time></trkpt><trkpt lat="59.3246060517" lon="34.6933414601"><ele>169.12</ele><time>2026-08-16T15:44:15Z</time></trkpt><trkpt lat="59.3246779684" lon="34.6931890771"><ele>169.25</ele><time>2026-08-16T15:44:34Z</time></trkpt><trkpt lat="59.3246824946" lon="34.6930930205"><ele>169.22</ele><time>2026-08-16T15:44:48Z</time></trkpt><trkpt lat="59.3246770464" lon="34.6930946968"><ele>169.43</ele><time>2026-08-16T15:45:24Z</time></trkpt><trkpt lat="59.3246991746" lon="34.6929472592"><ele>168.58</ele><time>2026-08-16T15:45:41Z</time></trkpt><trkpt lat="59.3246976659" lon="34.6929501928"><ele>170.29</ele><time>2026-08-16T15:45:44Z</time></trkpt><trkpt lat="59.3247305229" lon="34.6929234546"><ele>168.87</ele><time>2026-08-16T15:45:55Z</time></trkpt><trkpt lat="59.3248150963" lon="34.6928300802"><ele>169.25</ele><time>2026-08-16T15:46:08Z</time></trkpt><trkpt lat="59.3248760328" lon="34.6927078720"><ele>169.20</ele><time>2026-08-16T15:46:23Z</time></trkpt><trkpt lat="59.3249128293" lon="34.6925290860"><ele>169.47</ele><time>2026-08-16T15:46:44Z</time></trkpt><trkpt lat="59.3248855881" lon="34.6922888607"><ele>169.26</ele><time>2026-08-16T15:47:03Z</time></trkpt><trkpt lat="59.3248830736" lon="34.6920929756"><ele>169.34</ele><time>2026-08-16T15:47:19Z</time></trkpt><trkpt lat="59.3249121588" lon="34.6918596234"><ele>169.06</ele><time>2026-08-16T15:47:33Z</time></trkpt><trkpt lat="59.3249098957" lon="34.6918120980"><ele>169.29</ele><time>2026-08-16T15:47:39Z</time></trkpt><trkpt lat="59.3249039445" lon="34.6916193981"><ele>169.45</ele><time>2026-08-16T15:47:55Z</time></trkpt><trkpt lat="59.3248737697" lon="34.6914229263"><ele>169.54</ele><time>2026-08-16T15:48:13Z</time></trkpt><trkpt lat="59.3248837441" lon="34.6912343334"><ele>169.62</ele><time>2026-08-16T15:48:33Z</time></trkpt><trkpt lat="59.3249166850" lon="34.6910873987"><ele>169.94</ele><time>2026-08-16T15:48:48Z</time></trkpt><trkpt lat="59.3249336164" lon="34.6909551322"><ele>169.87</ele><time>2026-08-16T15:49:14Z</time></trkpt><trkpt lat="59.3249068782" lon="34.6908838861"><ele>170.17</ele><time>2026-08-16T15:49:50Z</time></trkpt><trkpt lat="59.3248708360" lon="34.6908269729"><ele>169.96</ele><time>2026-08-16T15:50:01Z</time></trkpt><trkpt lat="59.3248380627" lon="34.6906924434"><ele>169.87</ele><time>2026-08-16T15:50:12Z</time></trkpt><trkpt lat="59.3248375598" lon="34.6905336902"><ele>169.89</ele><time>2026-08-16T15:50:24Z</time></trkpt><trkpt lat="59.3248370569" lon="34.6903443430"><ele>169.72</ele><time>2026-08-16T15:50:38Z</time></trkpt><trkpt lat="59.3247859273" lon="34.6902232245"><ele>169.62</ele><time>2026-08-16T15:50:52Z</time></trkpt><trkpt lat="59.3248230591" lon="34.6900396608"><ele>169.02</ele><time>2026-08-16T15:51:05Z</time></trkpt><trkpt lat="59.3248557486" lon="34.6898690891"><ele>168.41</ele><time>2026-08-16T15:51:19Z</time></trkpt><trkpt lat="59.3249152601" lon="34.6897177957"><ele>168.81</ele><time>2026-08-16T15:51:32Z</time></trkpt><trkpt lat="59.3249949720" lon="34.6896768920"><ele>168.87</ele><time>2026-08-16T15:51:51Z</time></trkpt><trkpt lat="59.3250698224" lon="34.6895812545"><ele>168.97</ele><time>2026-08-16T15:52:10Z</time></trkpt><trkpt lat="59.3250995781" lon="34.6894901432"><ele>169.16</ele><time>2026-08-16T15:52:24Z</time></trkpt><trkpt lat="59.3251137435" lon="34.6893125307"><ele>169.63</ele><time>2026-08-16T15:52:36Z</time></trkpt><trkpt lat="59.3250953872" lon="34.6891298890"><ele>169.70</ele><time>2026-08-16T15:52:48Z</time></trkpt><trkpt lat="59.3250962254" lon="34.6891097724"><ele>163.84</ele><time>2026-08-16T15:52:54Z</time></trkpt><trkpt lat="59.3250985723" lon="34.6891069226"><ele>167.32</ele><time>2026-08-16T15:52:55Z</time></trkpt><trkpt lat="59.3251054455" lon="34.6890833694"><ele>169.59</ele><time>2026-08-16T15:53:09Z</time></trkpt><trkpt lat="59.3251031823" lon="34.6890842915"><ele>169.65</ele><time>2026-08-16T15:53:36Z</time></trkpt><trkpt lat="59.3251172639" lon="34.6891203336"><ele>169.86</ele><time>2026-08-16T15:54:06Z</time></trkpt><trkpt lat="59.3251128215" lon="34.6890936792"><ele>169.78</ele><time>2026-08-16T15:54:27Z</time></trkpt><trkpt lat="59.3251252268" lon="34.6890788432"><ele>169.80</ele><time>2026-08-16T15:55:01Z</time></trkpt><trkpt lat="59.3251575809" lon="34.6890483331"><ele>169.70</ele><time>2026-08-16T15:55:42Z</time></trkpt><trkpt lat="59.3251338601" lon="34.6890863869"><ele>168.80</ele><time>2026-08-16T15:56:32Z</time></trkpt><trkpt lat="59.3251094688" lon="34.6890869737"><ele>169.14</ele><time>2026-08-16T15:57:01Z</time></trkpt><trkpt lat="59.3251657952" lon="34.6892539412"><ele>168.99</ele><time>2026-08-16T15:57:21Z</time></trkpt><trkpt lat="59.3252425734" lon="34.6892153844"><ele>169.35</ele><time>2026-08-16T15:57:35Z</time></trkpt><trkpt lat="59.3253341876" lon="34.6892865468"><ele>169.78</ele><time>2026-08-16T15:57:51Z</time></trkpt><trkpt lat="59.3254311662" lon="34.6892877202"><ele>169.52</ele><time>2026-08-16T15:58:11Z</time></trkpt><trkpt lat="59.3254702259" lon="34.6893167216"><ele>169.55</ele><time>2026-08-16T15:58:25Z</time></trkpt><trkpt lat="59.3255103752" lon="34.6893907338"><ele>169.14</ele><time>2026-08-16T15:58:39Z</time></trkpt><trkpt lat="59.3255330902" lon="34.6894783247"><ele>169.34</ele><time>2026-08-16T15:58:53Z</time></trkpt><trkpt lat="59.3255349342" lon="34.6896471363"><ele>169.38</ele><time>2026-08-16T15:59:06Z</time></trkpt><trkpt lat="59.3255710602" lon="34.6897660755"><ele>169.58</ele><time>2026-08-16T15:59:23Z</time></trkpt><trkpt lat="59.3256150652" lon="34.6898716874"><ele>169.61</ele><time>2026-08-16T15:59:37Z</time></trkpt><trkpt lat="59.3256071024" lon="34.6900467854"><ele>169.27</ele><time>2026-08-16T15:59:52Z</time></trkpt><trkpt lat="59.3256205972" lon="34.6900954004"><ele>169.47</ele><time>2026-08-16T15:59:55Z</time></trkpt><trkpt lat="59.3256276380" lon="34.6902165189"><ele>169.26</ele><time>2026-08-16T16:00:08Z</time></trkpt><trkpt lat="59.3256936874" lon="34.6903031878"><ele>169.32</ele><time>2026-08-16T16:00:22Z</time></trkpt><trkpt lat="59.3257476669" lon="34.6904545650"><ele>168.89</ele><time>2026-08-16T16:00:34Z</time></trkpt><trkpt lat="59.3257863913" lon="34.6905894298"><ele>168.73</ele><time>2026-08-16T16:00:45Z</time></trkpt><trkpt lat="59.3258288875" lon="34.6907117218"><ele>169.01</ele><time>2026-08-16T16:00:58Z</time></trkpt><trkpt lat="59.3258837890" lon="34.6908141486"><ele>168.98</ele><time>2026-08-16T16:01:10Z</time></trkpt><trkpt lat="59.3259117845" lon="34.6909421403"><ele>169.46</ele><time>2026-08-16T16:01:21Z</time></trkpt><trkpt lat="59.3258703779" lon="34.6910702996"><ele>169.58</ele><time>2026-08-16T16:01:35Z</time></trkpt><trkpt lat="59.3258888181" lon="34.6910648514"><ele>169.31</ele><time>2026-08-16T16:02:17Z</time></trkpt><trkpt lat="59.3258954398" lon="34.6911344212"><ele>168.96</ele><time>2026-08-16T16:02:39Z</time></trkpt><trkpt lat="59.3260080926" lon="34.6912523545"><ele>168.73</ele><time>2026-08-16T16:02:52Z</time></trkpt><trkpt lat="59.3260409497" lon="34.6913508419"><ele>169.06</ele><time>2026-08-16T16:03:04Z</time></trkpt><trkpt lat="59.3260476552" lon="34.6913742274"><ele>168.86</ele><time>2026-08-16T16:03:06Z</time></trkpt><trkpt lat="59.3261429574" lon="34.6914710384"><ele>169.17</ele><time>2026-08-16T16:03:23Z</time></trkpt><trkpt lat="59.3261660915" lon="34.6914420370"><ele>169.02</ele><time>2026-08-16T16:03:26Z</time></trkpt><trkpt lat="59.3262541853" lon="34.6914105210"><ele>169.21</ele><time>2026-08-16T16:03:38Z</time></trkpt><trkpt lat="59.3263495713" lon="34.6913582180"><ele>169.53</ele><time>2026-08-16T16:03:53Z</time></trkpt><trkpt lat="59.3264422752" lon="34.6912572999"><ele>169.55</ele><time>2026-08-16T16:04:08Z</time></trkpt><trkpt lat="59.3265302852" lon="34.6913073398"><ele>169.51</ele><time>2026-08-16T16:04:23Z</time></trkpt><trkpt lat="59.3265900481" lon="34.6914237645"><ele>169.70</ele><time>2026-08-16T16:04:40Z</time></trkpt><trkpt lat="59.3265816662" lon="34.6915332321"><ele>169.65</ele><time>2026-08-16T16:05:10Z</time></trkpt><trkpt lat="59.3265666626" lon="34.6916286182"><ele>169.99</ele><time>2026-08-16T16:05:20Z</time></trkpt><trkpt lat="59.3265732843" lon="34.6918105893"><ele>170.20</ele><time>2026-08-16T16:05:36Z</time></trkpt><trkpt lat="59.3265818339" lon="34.6918504871"><ele>169.74</ele><time>2026-08-16T16:06:06Z</time></trkpt><trkpt lat="59.3266047165" lon="34.6918771416"><ele>169.35</ele><time>2026-08-16T16:06:28Z</time></trkpt><trkpt lat="59.3265510723" lon="34.6918965876"><ele>170.04</ele><time>2026-08-16T16:06:59Z</time></trkpt><trkpt lat="59.3265282735" lon="34.6920516528"><ele>170.46</ele><time>2026-08-16T16:07:37Z</time></trkpt><trkpt lat="59.3265109230" lon="34.6921742801"><ele>170.46</ele><time>2026-08-16T16:07:50Z</time></trkpt><trkpt lat="59.3264834303" lon="34.6922923811"><ele>170.30</ele><time>2026-08-16T16:08:00Z</time></trkpt><trkpt lat="59.3264635652" lon="34.6924458537"><ele>170.33</ele><time>2026-08-16T16:08:14Z</time></trkpt><trkpt lat="59.3264541775" lon="34.6925340313"><ele>170.53</ele><time>2026-08-16T16:08:27Z</time></trkpt><trkpt lat="59.3264208175" lon="34.6926331893"><ele>170.45</ele><time>2026-08-16T16:08:39Z</time></trkpt><trkpt lat="59.3264152016" lon="34.6927859075"><ele>170.20</ele><time>2026-08-16T16:08:52Z</time></trkpt><trkpt lat="59.3263833504" lon="34.6929452475"><ele>169.79</ele><time>2026-08-16T16:09:04Z</time></trkpt><trkpt lat="59.3263808358" lon="34.6931216028"><ele>170.15</ele><time>2026-08-16T16:09:16Z</time></trkpt><trkpt lat="59.3263551872" lon="34.6932865586"><ele>170.14</ele><time>2026-08-16T16:09:30Z</time></trkpt><trkpt lat="59.3263254315" lon="34.6934230998"><ele>169.93</ele><time>2026-08-16T16:09:44Z</time></trkpt><trkpt lat="59.3263289519" lon="34.6935737226"><ele>170.16</ele><time>2026-08-16T16:09:55Z</time></trkpt><trkpt lat="59.3263129424" lon="34.6937031392"><ele>170.42</ele><time>2026-08-16T16:10:09Z</time></trkpt><trkpt lat="59.3263410218" lon="34.6938456316"><ele>170.27</ele><time>2026-08-16T16:10:23Z</time></trkpt><trkpt lat="59.3263282813" lon="34.6939774789"><ele>170.07</ele><time>2026-08-16T16:10:34Z</time></trkpt><trkpt lat="59.3263167981" lon="34.6941748727"><ele>170.53</ele><time>2026-08-16T16:10:49Z</time></trkpt><trkpt lat="59.3263550196" lon="34.6942115854"><ele>170.89</ele><time>2026-08-16T16:11:19Z</time></trkpt><trkpt lat="59.3263658322" lon="34.6942535788"><ele>169.61</ele><time>2026-08-16T16:11:30Z</time></trkpt><trkpt lat="59.3263704423" lon="34.6942335460"><ele>170.03</ele><time>2026-08-16T16:11:57Z</time></trkpt><trkpt lat="59.3263852783" lon="34.6943909582"><ele>170.38</ele><time>2026-08-16T16:12:07Z</time></trkpt><trkpt lat="59.3263896368" lon="34.6944039501"><ele>170.25</ele><time>2026-08-16T16:12:20Z</time></trkpt><trkpt lat="59.3263932411" lon="34.6946081333"><ele>170.32</ele><time>2026-08-16T16:12:38Z</time></trkpt><trkpt lat="59.3263312988" lon="34.6947305929"><ele>170.24</ele><time>2026-08-16T16:12:52Z</time></trkpt><trkpt lat="59.3263283651" lon="34.6948534716"><ele>170.05</ele><time>2026-08-16T16:13:00Z</time></trkpt><trkpt lat="59.3263265211" lon="34.6949285734"><ele>170.22</ele><time>2026-08-16T16:13:14Z</time></trkpt><trkpt lat="59.3263129424" lon="34.6949731652"><ele>170.02</ele><time>2026-08-16T16:13:30Z</time></trkpt><trkpt lat="59.3262938317" lon="34.6948995721"><ele>169.62</ele><time>2026-08-16T16:13:52Z</time></trkpt><trkpt lat="59.3262716196" lon="34.6949252207"><ele>169.34</ele><time>2026-08-16T16:14:12Z</time></trkpt><trkpt lat="59.3262466416" lon="34.6948938724"><ele>169.13</ele><time>2026-08-16T16:14:36Z</time></trkpt><trkpt lat="59.3262584601" lon="34.6948882565"><ele>169.70</ele><time>2026-08-16T16:15:30Z</time></trkpt><trkpt lat="59.3262475636" lon="34.6948440839"><ele>169.41</ele><time>2026-08-16T16:16:04Z</time></trkpt><trkpt lat="59.3262160476" lon="34.6949893422"><ele>169.58</ele><time>2026-08-16T16:16:35Z</time></trkpt><trkpt lat="59.3262409419" lon="34.6949841455"><ele>169.56</ele><time>2026-08-16T16:17:44Z</time></trkpt><trkpt lat="59.3262772355" lon="34.6949365363"><ele>169.66</ele><time>2026-08-16T16:18:25Z</time></trkpt><trkpt lat="59.3262363318" lon="34.6949372906"><ele>169.60</ele><time>2026-08-16T16:19:26Z</time></trkpt><trkpt lat="59.3262622319" lon="34.6949789487"><ele>169.49</ele><time>2026-08-16T16:20:23Z</time></trkpt><trkpt lat="59.3262604717" lon="34.6950593311"><ele>169.67</ele><time>2026-08-16T16:21:31Z</time></trkpt><trkpt lat="59.3262151256" lon="34.6949815471"><ele>169.50</ele><time>2026-08-16T16:22:16Z</time></trkpt><trkpt lat="59.3262063246" lon="34.6949823853"><ele>171.12</ele><time>2026-08-16T16:22:37Z</time></trkpt><trkpt lat="59.3262218311" lon="34.6951141488"><ele>170.75</ele><time>2026-08-16T16:22:58Z</time></trkpt><trkpt lat="59.3262128625" lon="34.6952240355"><ele>170.91</ele><time>2026-08-16T16:23:12Z</time></trkpt><trkpt lat="59.3262182269" lon="34.6953764185"><ele>170.83</ele><time>2026-08-16T16:23:27Z</time></trkpt><trkpt lat="59.3262096774" lon="34.6954425517"><ele>171.32</ele><time>2026-08-16T16:23:39Z</time></trkpt><trkpt lat="59.3261787482" lon="34.6955930907"><ele>171.33</ele><time>2026-08-16T16:23:56Z</time></trkpt><trkpt lat="59.3261172250" lon="34.6957194898"><ele>171.76</ele><time>2026-08-16T16:24:11Z</time></trkpt><trkpt lat="59.3260456435" lon="34.6958681848"><ele>171.86</ele><time>2026-08-16T16:24:25Z</time></trkpt><trkpt lat="59.3260110263" lon="34.6960366610"><ele>172.29</ele><time>2026-08-16T16:24:39Z</time></trkpt><trkpt lat="59.3260015547" lon="34.6962018684"><ele>172.49</ele><time>2026-08-16T16:24:53Z</time></trkpt><trkpt lat="59.3259942625" lon="34.6963322908"><ele>172.67</ele><time>2026-08-16T16:25:08Z</time></trkpt><trkpt lat="59.3260006327" lon="34.6963721886"><ele>172.48</ele><time>2026-08-16T16:25:40Z</time></trkpt><trkpt lat="59.3259990402" lon="34.6963577718"><ele>173.24</ele><time>2026-08-16T16:26:07Z</time></trkpt><trkpt lat="59.3259796780" lon="34.6964623779"><ele>172.91</ele><time>2026-08-16T16:26:23Z</time></trkpt><trkpt lat="59.3259375170" lon="34.6965638828"><ele>172.80</ele><time>2026-08-16T16:26:36Z</time></trkpt><trkpt lat="59.3258925900" lon="34.6967072971"><ele>173.02</ele><time>2026-08-16T16:26:50Z</time></trkpt><trkpt lat="59.3258607388" lon="34.6968189441"><ele>172.96</ele><time>2026-08-16T16:27:03Z</time></trkpt><trkpt lat="59.3258502614" lon="34.6968461853"><ele>173.00</ele><time>2026-08-16T16:27:06Z</time></trkpt><trkpt lat="59.3257944379" lon="34.6969777811"><ele>173.13</ele><time>2026-08-16T16:27:18Z</time></trkpt><trkpt lat="59.3257416319" lon="34.6970532183"><ele>172.81</ele><time>2026-08-16T16:27:32Z</time></trkpt><trkpt lat="59.3257629219" lon="34.6971923579"><ele>172.80</ele><time>2026-08-16T16:27:47Z</time></trkpt><trkpt lat="59.3257422186" lon="34.6972626820"><ele>172.50</ele><time>2026-08-16T16:27:58Z</time></trkpt><trkpt lat="59.3257035781" lon="34.6974419709"><ele>171.91</ele><time>2026-08-16T16:28:13Z</time></trkpt><trkpt lat="59.3256905861" lon="34.6975551266"><ele>171.67</ele><time>2026-08-16T16:28:27Z</time></trkpt><trkpt lat="59.3256856408" lon="34.6977571305"><ele>171.44</ele><time>2026-08-16T16:28:44Z</time></trkpt><trkpt lat="59.3257203419" lon="34.6979940869"><ele>171.10</ele><time>2026-08-16T16:28:58Z</time></trkpt><trkpt lat="59.3257437274" lon="34.6981004532"><ele>170.58</ele><time>2026-08-16T16:29:13Z</time></trkpt><trkpt lat="59.3257813621" lon="34.6982515790"><ele>170.77</ele><time>2026-08-16T16:29:27Z</time></trkpt><trkpt lat="59.3258348387" lon="34.6983890422"><ele>171.09</ele><time>2026-08-16T16:29:42Z</time></trkpt><trkpt lat="59.3258566316" lon="34.6984915528"><ele>171.50</ele><time>2026-08-16T16:29:58Z</time></trkpt><trkpt lat="59.3258567993" lon="34.6985359769"><ele>171.51</ele><time>2026-08-16T16:30:21Z</time></trkpt><trkpt lat="59.3258762453" lon="34.6986420918"><ele>171.06</ele><time>2026-08-16T16:30:54Z</time></trkpt><trkpt lat="59.3258534465" lon="34.6987343766"><ele>171.66</ele><time>2026-08-16T16:31:16Z</time></trkpt><trkpt lat="59.3258560449" lon="34.6987692453"><ele>171.73</ele><time>2026-08-16T16:31:32Z</time></trkpt><trkpt lat="59.3257827032" lon="34.6988209616"><ele>172.01</ele><time>2026-08-16T16:31:46Z</time></trkpt><trkpt lat="59.3257246166" lon="34.6989314351"><ele>172.57</ele><time>2026-08-16T16:31:59Z</time></trkpt><trkpt lat="59.3256501853" lon="34.6990809683"><ele>172.48</ele><time>2026-08-16T16:32:15Z</time></trkpt><trkpt lat="59.3256045878" lon="34.6991482750"><ele>172.82</ele><time>2026-08-16T16:32:24Z</time></trkpt><trkpt lat="59.3256267998" lon="34.6993554756"><ele>173.72</ele><time>2026-08-16T16:32:40Z</time></trkpt><trkpt lat="59.3256438151" lon="34.6995025780"><ele>173.77</ele><time>2026-08-16T16:32:54Z</time></trkpt><trkpt lat="59.3255700544" lon="34.6997013967"><ele>174.33</ele><time>2026-08-16T16:33:12Z</time></trkpt><trkpt lat="59.3255164940" lon="34.6999368444"><ele>173.83</ele><time>2026-08-16T16:33:26Z</time></trkpt><trkpt lat="59.3254577368" lon="34.7001041472"><ele>174.06</ele><time>2026-08-16T16:33:38Z</time></trkpt><trkpt lat="59.3254139833" lon="34.7002839390"><ele>174.14</ele><time>2026-08-16T16:33:50Z</time></trkpt><trkpt lat="59.3253884185" lon="34.7004437819"><ele>173.82</ele><time>2026-08-16T16:34:05Z</time></trkpt><trkpt lat="59.3253424857" lon="34.7005865257"><ele>173.25</ele><time>2026-08-16T16:34:20Z</time></trkpt><trkpt lat="59.3252930325" lon="34.7007641383"><ele>172.86</ele><time>2026-08-16T16:34:34Z</time></trkpt><trkpt lat="59.3252725806" lon="34.7009915393"><ele>172.88</ele><time>2026-08-16T16:34:50Z</time></trkpt><trkpt lat="59.3252760172" lon="34.7010587621"><ele>172.74</ele><time>2026-08-16T16:35:05Z</time></trkpt><trkpt lat="59.3252495304" lon="34.7010501288"><ele>172.76</ele><time>2026-08-16T16:35:32Z</time></trkpt><trkpt lat="59.3252395559" lon="34.7010329459"><ele>173.03</ele><time>2026-08-16T16:36:03Z</time></trkpt><trkpt lat="59.3252555653" lon="34.7010894399"><ele>173.13</ele><time>2026-08-16T16:36:22Z</time></trkpt><trkpt lat="59.3253526278" lon="34.7011933755"><ele>172.99</ele><time>2026-08-16T16:36:36Z</time></trkpt><trkpt lat="59.3254489359" lon="34.7012727521"><ele>173.05</ele><time>2026-08-16T16:36:46Z</time></trkpt><trkpt lat="59.3254740816" lon="34.7014194354"><ele>172.97</ele><time>2026-08-16T16:37:03Z</time></trkpt><trkpt lat="59.3255171645" lon="34.7015414760"><ele>172.99</ele><time>2026-08-16T16:37:16Z</time></trkpt><trkpt lat="59.3255378678" lon="34.7016304918"><ele>173.05</ele><time>2026-08-16T16:37:30Z</time></trkpt><trkpt lat="59.3255316652" lon="34.7017395403"><ele>173.12</ele><time>2026-08-16T16:37:41Z</time></trkpt><trkpt lat="59.3254403863" lon="34.7019435558"><ele>173.47</ele><time>2026-08-16T16:37:56Z</time></trkpt><trkpt lat="59.3254316691" lon="34.7021307237"><ele>174.13</ele><time>2026-08-16T16:38:12Z</time></trkpt><trkpt lat="59.3253527954" lon="34.7022635769"><ele>174.79</ele><time>2026-08-16T16:38:33Z</time></trkpt><trkpt lat="59.3253119756" lon="34.7024809197"><ele>175.98</ele><time>2026-08-16T16:38:52Z</time></trkpt><trkpt lat="59.3253262248" lon="34.7026252560"><ele>176.51</ele><time>2026-08-16T16:39:03Z</time></trkpt><trkpt lat="59.3252859917" lon="34.7027712688"><ele>177.52</ele><time>2026-08-16T16:39:21Z</time></trkpt><trkpt lat="59.3252388854" lon="34.7029542457"><ele>178.35</ele><time>2026-08-16T16:39:36Z</time></trkpt><trkpt lat="59.3252321798" lon="34.7030387353"><ele>178.66</ele><time>2026-08-16T16:39:57Z</time></trkpt><trkpt lat="59.3252189364" lon="34.7030441836"><ele>178.67</ele><time>2026-08-16T16:40:42Z</time></trkpt><trkpt lat="59.3252500333" lon="34.7030428424"><ele>177.98</ele><time>2026-08-16T16:41:12Z</time></trkpt><trkpt lat="59.3252416514" lon="34.7030349635"><ele>179.62</ele><time>2026-08-16T16:41:42Z</time></trkpt><trkpt lat="59.3252398912" lon="34.7030342929"><ele>179.11</ele><time>2026-08-16T16:41:43Z</time></trkpt><trkpt lat="59.3252286594" lon="34.7030280903"><ele>178.67</ele><time>2026-08-16T16:41:48Z</time></trkpt><trkpt lat="59.3252260610" lon="34.7030799743"><ele>178.58</ele><time>2026-08-16T16:42:06Z</time></trkpt><trkpt lat="59.3252311740" lon="34.7031043656"><ele>178.41</ele><time>2026-08-16T16:42:25Z</time></trkpt><trkpt lat="59.3251686450" lon="34.7031441797"><ele>178.49</ele><time>2026-08-16T16:42:38Z</time></trkpt><trkpt lat="59.3251375481" lon="34.7032190301"><ele>178.86</ele><time>2026-08-16T16:42:58Z</time></trkpt><trkpt lat="59.3250847422" lon="34.7033276595"><ele>179.49</ele><time>2026-08-16T16:43:18Z</time></trkpt><trkpt lat="59.3250378035" lon="34.7034814674"><ele>178.96</ele><time>2026-08-16T16:43:32Z</time></trkpt><trkpt lat="59.3250157591" lon="34.7035780270"><ele>178.76</ele><time>2026-08-16T16:43:46Z</time></trkpt><trkpt lat="59.3250316847" lon="34.7037003189"><ele>178.68</ele><time>2026-08-16T16:44:00Z</time></trkpt><trkpt lat="59.3250024319" lon="34.7037974652"><ele>177.64</ele><time>2026-08-16T16:44:13Z</time></trkpt><trkpt lat="59.3249810580" lon="34.7040417977"><ele>176.58</ele><time>2026-08-16T16:44:26Z</time></trkpt><trkpt lat="59.3249073811" lon="34.7042712942"><ele>175.90</ele><time>2026-08-16T16:44:41Z</time></trkpt><trkpt lat="59.3248855881" lon="34.7043888923"><ele>176.50</ele><time>2026-08-16T16:44:56Z</time></trkpt><trkpt lat="59.3249117397" lon="34.7045065742"><ele>176.82</ele><time>2026-08-16T16:45:11Z</time></trkpt><trkpt lat="59.3249538168" lon="34.7046675906"><ele>177.59</ele><time>2026-08-16T16:45:23Z</time></trkpt><trkpt lat="59.3249324430" lon="34.7047463804"><ele>178.13</ele><time>2026-08-16T16:45:37Z</time></trkpt><trkpt lat="59.3249423336" lon="34.7048696782"><ele>178.61</ele><time>2026-08-16T16:45:53Z</time></trkpt><trkpt lat="59.3249576725" lon="34.7050408367"><ele>178.73</ele><time>2026-08-16T16:46:13Z</time></trkpt><trkpt lat="59.3249571696" lon="34.7051900346"><ele>179.13</ele><time>2026-08-16T16:46:29Z</time></trkpt><trkpt lat="59.3249903619" lon="34.7051827423"><ele>178.98</ele><time>2026-08-16T16:47:08Z</time></trkpt><trkpt lat="59.3249966484" lon="34.7051842511"><ele>179.71</ele><time>2026-08-16T16:47:10Z</time></trkpt><trkpt lat="59.3250354566" lon="34.7051459458"><ele>178.69</ele><time>2026-08-16T16:47:33Z</time></trkpt><trkpt lat="59.3250492867" lon="34.7050828300"><ele>177.78</ele><time>2026-08-16T16:47:55Z</time></trkpt><trkpt lat="59.3250323553" lon="34.7051484603"><ele>178.44</ele><time>2026-08-16T16:48:19Z</time></trkpt><trkpt lat="59.3250070419" lon="34.7052672319"><ele>178.54</ele><time>2026-08-16T16:48:31Z</time></trkpt><trkpt lat="59.3250229675" lon="34.7054831497"><ele>178.64</ele><time>2026-08-16T16:48:43Z</time></trkpt><trkpt lat="59.3249710836" lon="34.7055906896"><ele>178.97</ele><time>2026-08-16T16:48:56Z</time></trkpt><trkpt lat="59.3249655515" lon="34.7056431603"><ele>178.83</ele><time>2026-08-16T16:49:05Z</time></trkpt><trkpt lat="59.3249753583" lon="34.7057392169"><ele>179.07</ele><time>2026-08-16T16:49:15Z</time></trkpt><trkpt lat="59.3249680661" lon="34.7058874927"><ele>179.13</ele><time>2026-08-16T16:49:32Z</time></trkpt><trkpt lat="59.3249423336" lon="34.7061064281"><ele>178.93</ele><time>2026-08-16T16:49:46Z</time></trkpt><trkpt lat="59.3249427527" lon="34.7061412968"><ele>178.60</ele><time>2026-08-16T16:49:52Z</time></trkpt><trkpt lat="59.3249510508" lon="34.7062690370"><ele>178.25</ele><time>2026-08-16T16:50:06Z</time></trkpt><trkpt lat="59.3249078840" lon="34.7063913289"><ele>177.08</ele><time>2026-08-16T16:50:22Z</time></trkpt><trkpt lat="59.3248853367" lon="34.7064355854"><ele>175.77</ele><time>2026-08-16T16:50:37Z</time></trkpt><trkpt lat="59.3248447683" lon="34.7064979468"><ele>175.31</ele><time>2026-08-16T16:50:43Z</time></trkpt><trkpt lat="59.3247668166" lon="34.7065893933"><ele>175.21</ele><time>2026-08-16T16:50:55Z</time></trkpt><trkpt lat="59.3247360550" lon="34.7065142915"><ele>175.44</ele><time>2026-08-16T16:51:17Z</time></trkpt><trkpt lat="59.3247008510" lon="34.7065269481"><ele>175.31</ele><time>2026-08-16T16:51:43Z</time></trkpt><trkpt lat="59.3247123342" lon="34.7067326400"><ele>175.59</ele><time>2026-08-16T16:51:58Z</time></trkpt><trkpt lat="59.3247554172" lon="34.7069223225"><ele>176.92</ele><time>2026-08-16T16:52:16Z</time></trkpt><trkpt lat="59.3247294333" lon="34.7069935687"><ele>176.98</ele><time>2026-08-16T16:52:46Z</time></trkpt><trkpt lat="59.3247407489" lon="34.7069625556"><ele>177.01</ele><time>2026-08-16T16:53:07Z</time></trkpt><trkpt lat="59.3247208837" lon="34.7070372384"><ele>176.89</ele><time>2026-08-16T16:53:34Z</time></trkpt><trkpt lat="59.3247090653" lon="34.7071231529"><ele>177.07</ele><time>2026-08-16T16:53:58Z</time></trkpt><trkpt lat="59.3247315288" lon="34.7072742786"><ele>176.63</ele><time>2026-08-16T16:54:23Z</time></trkpt><trkpt lat="59.3247611169" lon="34.7074679844"><ele>176.58</ele><time>2026-08-16T16:54:40Z</time></trkpt><trkpt lat="59.3246965762" lon="34.7076596785"><ele>176.99</ele><time>2026-08-16T16:54:56Z</time></trkpt><trkpt lat="59.3246684968" lon="34.7078008298"><ele>177.49</ele><time>2026-08-16T16:55:08Z</time></trkpt><trkpt lat="59.3246084824" lon="34.7078683879"><ele>177.54</ele><time>2026-08-16T16:55:21Z</time></trkpt><trkpt lat="59.3246000167" lon="34.7079643607"><ele>177.52</ele><time>2026-08-16T16:55:33Z</time></trkpt><trkpt lat="59.3245519884" lon="34.7080480959"><ele>177.14</ele><time>2026-08-16T16:55:42Z</time></trkpt><trkpt lat="59.3245420977" lon="34.7081684601"><ele>176.53</ele><time>2026-08-16T16:55:55Z</time></trkpt><trkpt lat="59.3245385773" lon="34.7082718927"><ele>176.58</ele><time>2026-08-16T16:56:12Z</time></trkpt><trkpt lat="59.3245290220" lon="34.7084374353"><ele>176.39</ele><time>2026-08-16T16:56:25Z</time></trkpt><trkpt lat="59.3245141860" lon="34.7084986232"><ele>175.89</ele><time>2026-08-16T16:56:38Z</time></trkpt><trkpt lat="59.3245072290" lon="34.7085026465"><ele>176.06</ele><time>2026-08-16T16:57:01Z</time></trkpt><trkpt lat="59.3245082349" lon="34.7086514253"><ele>176.38</ele><time>2026-08-16T16:57:19Z</time></trkpt><trkpt lat="59.3245069776" lon="34.7087669279"><ele>177.45</ele><time>2026-08-16T16:57:35Z</time></trkpt><trkpt lat="59.3245160300" lon="34.7088266909"><ele>177.51</ele><time>2026-08-16T16:58:05Z</time></trkpt><trkpt lat="59.3245305307" lon="34.7088445444"><ele>177.83</ele><time>2026-08-16T16:58:41Z</time></trkpt><trkpt lat="59.3245406728" lon="34.7089982685"><ele>178.83</ele><time>2026-08-16T16:58:57Z</time></trkpt><trkpt lat="59.3245328777" lon="34.7091646492"><ele>179.38</ele><time>2026-08-16T16:59:10Z</time></trkpt><trkpt lat="59.3245454505" lon="34.7092546709"><ele>177.25</ele><time>2026-08-16T16:59:17Z</time></trkpt><trkpt lat="59.3245531619" lon="34.7092744522"><ele>179.25</ele><time>2026-08-16T16:59:23Z</time></trkpt><trkpt lat="59.3245681655" lon="34.7094719298"><ele>179.56</ele><time>2026-08-16T16:59:42Z</time></trkpt><trkpt lat="59.3245646451" lon="34.7095212992"><ele>179.28</ele><time>2026-08-16T16:59:59Z</time></trkpt><trkpt lat="59.3245690875" lon="34.7096022684"><ele>179.78</ele><time>2026-08-16T17:00:28Z</time></trkpt><trkpt lat="59.3245331291" lon="34.7096343711"><ele>179.74</ele><time>2026-08-16T17:00:45Z</time></trkpt><trkpt lat="59.3245399185" lon="34.7096331976"><ele>179.58</ele><time>2026-08-16T17:01:26Z</time></trkpt><trkpt lat="59.3245136831" lon="34.7096557450"><ele>179.92</ele><time>2026-08-16T17:01:47Z</time></trkpt><trkpt lat="59.3244629726" lon="34.7096751910"><ele>179.65</ele><time>2026-08-16T17:02:01Z</time></trkpt><trkpt lat="59.3244236615" lon="34.7097549867"><ele>179.56</ele><time>2026-08-16T17:02:17Z</time></trkpt><trkpt lat="59.3243882898" lon="34.7098243888"><ele>179.20</ele><time>2026-08-16T17:02:32Z</time></trkpt><trkpt lat="59.3243127689" lon="34.7098717466"><ele>178.48</ele><time>2026-08-16T17:02:47Z</time></trkpt><trkpt lat="59.3242452946" lon="34.7100485209"><ele>177.27</ele><time>2026-08-16T17:03:02Z</time></trkpt><trkpt lat="59.3241933268" lon="34.7101279814"><ele>176.75</ele><time>2026-08-16T17:03:12Z</time></trkpt><trkpt lat="59.3241232540" lon="34.7102707252"><ele>176.35</ele><time>2026-08-16T17:03:26Z</time></trkpt><trkpt lat="59.3240898941" lon="34.7103864793"><ele>176.32</ele><time>2026-08-16T17:03:46Z</time></trkpt><trkpt lat="59.3240372557" lon="34.7105419636"><ele>176.57</ele><time>2026-08-16T17:04:01Z</time></trkpt><trkpt lat="59.3239484914" lon="34.7106752358"><ele>176.34</ele><time>2026-08-16T17:04:14Z</time></trkpt><trkpt lat="59.3238821905" lon="34.7107175644"><ele>176.07</ele><time>2026-08-16T17:04:34Z</time></trkpt><trkpt lat="59.3237935938" lon="34.7107457276"><ele>175.48</ele><time>2026-08-16T17:04:53Z</time></trkpt><trkpt lat="59.3237418775" lon="34.7108282894"><ele>175.12</ele><time>2026-08-16T17:05:08Z</time></trkpt><trkpt lat="59.3236726429" lon="34.7109843604"><ele>175.12</ele><time>2026-08-16T17:05:21Z</time></trkpt><trkpt lat="59.3236455694" lon="34.7111920640"><ele>174.04</ele><time>2026-08-16T17:05:36Z</time></trkpt><trkpt lat="59.3236211780" lon="34.7112565208"><ele>173.17</ele><time>2026-08-16T17:05:56Z</time></trkpt><trkpt lat="59.3236502632" lon="34.7114117537"><ele>172.90</ele><time>2026-08-16T17:06:13Z</time></trkpt><trkpt lat="59.3235875666" lon="34.7114656493"><ele>173.39</ele><time>2026-08-16T17:06:34Z</time></trkpt><trkpt lat="59.3235168234" lon="34.7115439363"><ele>173.09</ele><time>2026-08-16T17:06:51Z</time></trkpt><trkpt lat="59.3235199247" lon="34.7115101572"><ele>172.67</ele><time>2026-08-16T17:07:13Z</time></trkpt><trkpt lat="59.3234961201" lon="34.7115518991"><ele>173.84</ele><time>2026-08-16T17:07:36Z</time></trkpt><trkpt lat="59.3234668672" lon="34.7116993368"><ele>174.41</ele><time>2026-08-16T17:07:54Z</time></trkpt><trkpt lat="59.3234140612" lon="34.7118524741"><ele>175.28</ele><time>2026-08-16T17:08:12Z</time></trkpt><trkpt lat="59.3233431503" lon="34.7120388877"><ele>175.04</ele><time>2026-08-16T17:08:28Z</time></trkpt><trkpt lat="59.3232812919" lon="34.7121876664"><ele>175.45</ele><time>2026-08-16T17:08:44Z</time></trkpt><trkpt lat="59.3232272286" lon="34.7123522870"><ele>175.21</ele><time>2026-08-16T17:09:01Z</time></trkpt><trkpt lat="59.3231549766" lon="34.7125918418"><ele>174.11</ele><time>2026-08-16T17:09:23Z</time></trkpt><trkpt lat="59.3230929505" lon="34.7128273733"><ele>174.09</ele><time>2026-08-16T17:09:35Z</time></trkpt><trkpt lat="59.3230647873" lon="34.7130025551"><ele>174.50</ele><time>2026-08-16T17:09:48Z</time></trkpt><trkpt lat="59.3230543938" lon="34.7131915670"><ele>174.81</ele><time>2026-08-16T17:10:05Z</time></trkpt><trkpt lat="59.3230284099" lon="34.7133055609"><ele>174.80</ele><time>2026-08-16T17:10:19Z</time></trkpt><trkpt lat="59.3229624443" lon="34.7134699300"><ele>174.53</ele><time>2026-08-16T17:10:34Z</time></trkpt><trkpt lat="59.3229080457" lon="34.7135740332"><ele>175.06</ele><time>2026-08-16T17:10:46Z</time></trkpt><trkpt lat="59.3228828162" lon="34.7135681659"><ele>175.23</ele><time>2026-08-16T17:10:50Z</time></trkpt><trkpt lat="59.3227604404" lon="34.7135340516"><ele>175.17</ele><time>2026-08-16T17:11:04Z</time></trkpt><trkpt lat="59.3227444310" lon="34.7135371529"><ele>174.14</ele><time>2026-08-16T17:11:19Z</time></trkpt><trkpt lat="59.3226694968" lon="34.7134839278"><ele>174.16</ele><time>2026-08-16T17:11:30Z</time></trkpt><trkpt lat="59.3225649744" lon="34.7133992705"><ele>173.63</ele><time>2026-08-16T17:11:41Z</time></trkpt><trkpt lat="59.3224902917" lon="34.7133496497"><ele>173.25</ele><time>2026-08-16T17:11:49Z</time></trkpt><trkpt lat="59.3223719392" lon="34.7132706922"><ele>172.84</ele><time>2026-08-16T17:12:00Z</time></trkpt><trkpt lat="59.3222251721" lon="34.7132507432"><ele>173.01</ele><time>2026-08-16T17:12:12Z</time></trkpt><trkpt lat="59.3221128546" lon="34.7132471390"><ele>172.38</ele><time>2026-08-16T17:12:23Z</time></trkpt><trkpt lat="59.3220463861" lon="34.7132480610"><ele>172.38</ele><time>2026-08-16T17:12:27Z</time></trkpt><trkpt lat="59.3219050672" lon="34.7131894715"><ele>172.40</ele><time>2026-08-16T17:12:41Z</time></trkpt><trkpt lat="59.3217391893" lon="34.7131624818"><ele>171.68</ele><time>2026-08-16T17:12:55Z</time></trkpt><trkpt lat="59.3216025643" lon="34.7131227516"><ele>171.91</ele><time>2026-08-16T17:13:08Z</time></trkpt><trkpt lat="59.3214911688" lon="34.7130775731"><ele>172.05</ele><time>2026-08-16T17:13:20Z</time></trkpt><trkpt lat="59.3213996384" lon="34.7130541876"><ele>171.34</ele><time>2026-08-16T17:13:33Z</time></trkpt><trkpt lat="59.3212659471" lon="34.7130057402"><ele>171.47</ele><time>2026-08-16T17:13:45Z</time></trkpt><trkpt lat="59.3211530428" lon="34.7130060755"><ele>171.40</ele><time>2026-08-16T17:13:51Z</time></trkpt><trkpt lat="59.3210267276" lon="34.7129899822"><ele>171.61</ele><time>2026-08-16T17:14:00Z</time></trkpt><trkpt lat="59.3209704850" lon="34.7129932512"><ele>171.71</ele><time>2026-08-16T17:14:04Z</time></trkpt><trkpt lat="59.3208785355" lon="34.7131190635"><ele>171.91</ele><time>2026-08-16T17:14:17Z</time></trkpt><trkpt lat="59.3208943773" lon="34.7131099273"><ele>167.39</ele><time>2026-08-16T17:14:30Z</time></trkpt><trkpt lat="59.3208937906" lon="34.7131080832"><ele>168.61</ele><time>2026-08-16T17:14:31Z</time></trkpt><trkpt lat="59.3208929524" lon="34.7131069936"><ele>171.92</ele><time>2026-08-16T17:14:32Z</time></trkpt><trkpt lat="59.3208922818" lon="34.7131069936"><ele>175.33</ele><time>2026-08-16T17:14:33Z</time></trkpt><trkpt lat="59.3208918627" lon="34.7131084185"><ele>172.63</ele><time>2026-08-16T17:14:34Z</time></trkpt><trkpt lat="59.3208873365" lon="34.7130978573"><ele>171.15</ele><time>2026-08-16T17:14:52Z</time></trkpt><trkpt lat="59.3208928686" lon="34.7130310535"><ele>171.11</ele><time>2026-08-16T17:15:06Z</time></trkpt><trkpt lat="59.3208111450" lon="34.7130217496"><ele>171.99</ele><time>2026-08-16T17:15:10Z</time></trkpt><trkpt lat="59.3207730912" lon="34.7130180616"><ele>172.28</ele><time>2026-08-16T17:15:11Z</time></trkpt><trkpt lat="59.3207266554" lon="34.7130017169"><ele>172.51</ele><time>2026-08-16T17:15:12Z</time></trkpt><trkpt lat="59.3206140865" lon="34.7129392717"><ele>172.76</ele><time>2026-08-16T17:15:14Z</time></trkpt><trkpt lat="59.3203801475" lon="34.7129057441"><ele>173.27</ele><time>2026-08-16T17:15:17Z</time></trkpt><trkpt lat="59.3193464074" lon="34.7126555443"><ele>175.18</ele><time>2026-08-16T17:15:25Z</time></trkpt><trkpt lat="59.3183068838" lon="34.7124151513"><ele>171.70</ele><time>2026-08-16T17:15:33Z</time></trkpt><trkpt lat="59.3181573506" lon="34.7123790253"><ele>171.54</ele><time>2026-08-16T17:15:34Z</time></trkpt><trkpt lat="59.3166135717" lon="34.7121499479"><ele>171.03</ele><time>2026-08-16T17:15:44Z</time></trkpt><trkpt lat="59.3154745549" lon="34.7121145763"><ele>171.09</ele><time>2026-08-16T17:15:52Z</time></trkpt><trkpt lat="59.3134500738" lon="34.7122684680"><ele>169.31</ele><time>2026-08-16T17:16:06Z</time></trkpt><trkpt lat="59.3131911568" lon="34.7124144807"><ele>168.52</ele><time>2026-08-16T17:16:12Z</time></trkpt><trkpt lat="59.3131725490" lon="34.7125153989"><ele>168.56</ele><time>2026-08-16T17:16:25Z</time></trkpt><trkpt lat="59.3131528515" lon="34.7126246989"><ele>168.34</ele><time>2026-08-16T17:16:43Z</time></trkpt></trkseg><trkseg><trkpt lat="59.3131656758" lon="34.7126726434"><ele>168.52</ele><time>2026-08-16T17:17:17Z</time></trkpt><trkpt lat="59.3131569587" lon="34.7126344219"><ele>168.07</ele><time>2026-08-16T17:17:47Z</time></trkpt><trkpt lat="59.3131549470" lon="34.7126546223"><ele>168.60</ele><time>2026-08-16T17:18:06Z</time></trkpt></trkseg></trk></gpx>